[[{"header":{"parameterUnit":"m.s-1","parameterCategory":1,"la1":30.6,"la2":29.2853,"lo1":-89.7004,"lo2":-87.6739,"dy":0.0162,"dx":0.0183,"nx":112,"ny":82,"refTime":"2026-05-19T00:00:00:Z","depth":0,"parameterNumber":2,"parameterNumberName":"U-component_of_WINDS"},"data":[0.0,0.0,0.0,0.0,0.0,0.0,0.0,0.0,0.0,0.0,0.0,0.0,0.0,0.0,0.0,0.0,0.0,0.0,0.0,0.0,0.0,0.0,0.0,0.0,0.0,0.0,0.0,0.0,0.0,0.0,0.0,0.0,0.0,0.0,0.0,0.0,0.0,0.0,0.0,0.0,0.0,0.0,0.0,0.0,0.0,0.0,0.0,0.0,0.0,0.0,0.0,0.0,0.0,0.0,0.0,0.0,0.0,0.0,0.0,0.0,0.0,0.0,0.0,0.0,0.0,0.0,0.0,0.0,0.0,0.0,0.0,0.0,0.0,0.0,0.0,0.0,0.0,0.0,0.0,0.0,0.0,0.0,0.0,0.0,0.0,0.0,0.0,0.0,0.0,0.0,-4.7125,-4.9243,-5.1454,-5.2419,-5.1472,-5.0618,-4.8403,-4.4461,0.0,0.0,0.0,0.0,0.0,0.0,0.0,0.0,0.0,0.0,0.0,0.0,0.0,0.0,0.0,0.0,0.0,0.0,0.0,0.0,0.0,0.0,0.0,0.0,0.0,0.0,0.0,0.0,0.0,0.0,0.0,0.0,0.0,0.0,0.0,0.0,0.0,0.0,0.0,0.0,0.0,0.0,0.0,0.0,0.0,0.0,0.0,0.0,0.0,0.0,0.0,0.0,0.0,0.0,0.0,0.0,0.0,0.0,0.0,0.0,0.0,0.0,0.0,0.0,0.0,0.0,0.0,0.0,0.0,0.0,0.0,0.0,0.0,0.0,0.0,0.0,0.0,0.0,0.0,0.0,0.0,0.0,0.0,0.0,0.0,0.0,0.0,0.0,0.0,0.0,0.0,0.0,0.0,0.0,0.0,0.0,0.0,0.0,0.0,0.0,0.0,0.0,0.0,0.0,-4.7163,-5.1565,-5.2995,-5.3032,-5.1528,-5.0655,-4.8475,-4.4461,0.0,0.0,0.0,0.0,0.0,0.0,0.0,0.0,0.0,0.0,0.0,0.0,0.0,0.0,0.0,0.0,0.0,0.0,0.0,0.0,0.0,0.0,0.0,0.0,0.0,0.0,0.0,0.0,0.0,0.0,0.0,0.0,0.0,0.0,0.0,0.0,0.0,0.0,0.0,0.0,0.0,0.0,0.0,0.0,0.0,0.0,0.0,0.0,0.0,0.0,0.0,0.0,0.0,0.0,0.0,0.0,0.0,0.0,0.0,0.0,0.0,0.0,0.0,0.0,0.0,0.0,0.0,0.0,0.0,0.0,0.0,0.0,0.0,0.0,0.0,0.0,0.0,0.0,0.0,0.0,0.0,0.0,0.0,0.0,0.0,0.0,0.0,0.0,0.0,0.0,0.0,0.0,0.0,0.0,0.0,0.0,0.0,0.0,0.0,0.0,0.0,0.0,0.0,-4.6122,-4.8147,-5.2178,-5.294,-5.2679,-5.1491,-5.0636,-4.8423,-4.4339,-4.4094,0.0,0.0,0.0,0.0,0.0,0.0,0.0,0.0,0.0,0.0,0.0,0.0,0.0,0.0,0.0,0.0,0.0,0.0,0.0,0.0,0.0,0.0,0.0,0.0,0.0,0.0,0.0,0.0,0.0,0.0,0.0,0.0,0.0,0.0,0.0,0.0,0.0,0.0,0.0,0.0,0.0,0.0,0.0,0.0,0.0,0.0,0.0,0.0,0.0,0.0,0.0,0.0,0.0,0.0,0.0,0.0,0.0,0.0,0.0,0.0,0.0,0.0,0.0,0.0,0.0,0.0,0.0,0.0,0.0,0.0,0.0,0.0,0.0,0.0,0.0,0.0,0.0,0.0,0.0,0.0,0.0,0.0,0.0,0.0,0.0,0.0,0.0,0.0,0.0,0.0,0.0,0.0,0.0,0.0,0.0,0.0,0.0,0.0,0.0,0.0,0.0,0.0,-4.8074,-4.9635,-5.2568,-5.2884,-5.2475,-5.1472,-5.0432,-4.8147,-4.4246,-4.3633,0.0,0.0,0.0,0.0,0.0,0.0,0.0,0.0,0.0,0.0,0.0,0.0,0.0,0.0,0.0,0.0,0.0,0.0,0.0,0.0,0.0,0.0,0.0,0.0,0.0,0.0,0.0,0.0,0.0,0.0,0.0,0.0,0.0,0.0,0.0,0.0,0.0,0.0,0.0,0.0,0.0,0.0,0.0,0.0,0.0,0.0,0.0,0.0,0.0,0.0,0.0,0.0,0.0,0.0,0.0,0.0,0.0,0.0,0.0,0.0,0.0,0.0,0.0,0.0,0.0,0.0,0.0,0.0,0.0,0.0,0.0,0.0,0.0,0.0,0.0,0.0,0.0,0.0,0.0,0.0,0.0,0.0,0.0,0.0,0.0,0.0,0.0,0.0,0.0,0.0,0.0,0.0,0.0,0.0,0.0,0.0,0.0,0.0,0.0,0.0,0.0,0.0,-4.9136,-5.1658,-5.3515,-5.372,-5.3088,-5.1528,-4.993,-4.7553,-4.4209,-4.2593,0.0,0.0,0.0,0.0,0.0,0.0,0.0,0.0,0.0,0.0,0.0,0.0,0.0,0.0,0.0,0.0,0.0,0.0,0.0,0.0,0.0,0.0,0.0,0.0,0.0,0.0,0.0,0.0,0.0,0.0,0.0,0.0,0.0,0.0,0.0,0.0,0.0,0.0,0.0,0.0,0.0,0.0,0.0,0.0,0.0,0.0,0.0,0.0,0.0,0.0,0.0,0.0,0.0,0.0,0.0,0.0,0.0,0.0,0.0,0.0,0.0,0.0,0.0,0.0,0.0,0.0,0.0,0.0,0.0,0.0,0.0,0.0,0.0,0.0,0.0,0.0,0.0,0.0,0.0,0.0,0.0,0.0,0.0,0.0,0.0,0.0,0.0,0.0,0.0,0.0,0.0,0.0,0.0,0.0,0.0,0.0,0.0,0.0,0.0,0.0,0.0,0.0,-4.8305,-5.0731,-5.3438,-5.2883,-5.2067,-5.1454,-4.9856,-4.7497,-4.4209,0.0,0.0,0.0,0.0,0.0,0.0,0.0,0.0,0.0,0.0,0.0,0.0,0.0,0.0,0.0,0.0,0.0,0.0,0.0,0.0,0.0,0.0,0.0,0.0,0.0,0.0,0.0,0.0,0.0,0.0,0.0,0.0,0.0,0.0,0.0,0.0,0.0,0.0,0.0,0.0,0.0,0.0,0.0,0.0,0.0,0.0,0.0,0.0,0.0,0.0,0.0,0.0,0.0,0.0,0.0,0.0,0.0,0.0,0.0,0.0,0.0,0.0,0.0,0.0,0.0,0.0,0.0,0.0,0.0,0.0,0.0,0.0,0.0,0.0,0.0,0.0,0.0,0.0,0.0,0.0,0.0,0.0,0.0,0.0,0.0,0.0,0.0,0.0,0.0,0.0,0.0,0.0,0.0,0.0,0.0,0.0,0.0,0.0,0.0,0.0,0.0,0.0,-4.5835,-4.8106,-5.0546,-5.334,-5.2492,-5.1603,-5.1361,-4.9374,-4.6847,-4.3819,0.0,0.0,0.0,0.0,0.0,0.0,0.0,0.0,0.0,0.0,0.0,0.0,0.0,0.0,0.0,0.0,0.0,0.0,0.0,0.0,0.0,0.0,0.0,0.0,0.0,0.0,0.0,0.0,0.0,0.0,0.0,0.0,0.0,0.0,0.0,0.0,0.0,0.0,0.0,0.0,0.0,0.0,0.0,0.0,0.0,0.0,0.0,0.0,0.0,0.0,0.0,0.0,0.0,0.0,0.0,0.0,0.0,0.0,0.0,0.0,0.0,0.0,0.0,0.0,0.0,0.0,0.0,0.0,0.0,0.0,0.0,0.0,0.0,0.0,0.0,0.0,0.0,0.0,0.0,0.0,0.0,0.0,0.0,0.0,0.0,0.0,0.0,0.0,0.0,0.0,0.0,0.0,0.0,0.0,0.0,0.0,0.0,0.0,0.0,0.0,0.0,0.0,-4.5966,-4.8937,-5.1573,-5.3315,-5.2821,-5.2065,-5.1268,-4.832,-4.5454,0.0,0.0,0.0,0.0,0.0,0.0,0.0,0.0,0.0,0.0,0.0,0.0,0.0,0.0,0.0,0.0,0.0,0.0,0.0,0.0,0.0,0.0,0.0,0.0,0.0,0.0,0.0,0.0,0.0,0.0,0.0,0.0,0.0,0.0,0.0,0.0,0.0,0.0,0.0,0.0,0.0,0.0,0.0,0.0,0.0,0.0,0.0,0.0,0.0,0.0,0.0,0.0,0.0,0.0,0.0,0.0,0.0,0.0,0.0,0.0,0.0,0.0,0.0,0.0,0.0,0.0,0.0,0.0,0.0,0.0,0.0,0.0,0.0,0.0,0.0,0.0,0.0,0.0,0.0,0.0,0.0,0.0,0.0,0.0,0.0,0.0,0.0,0.0,0.0,0.0,0.0,0.0,0.0,0.0,0.0,0.0,0.0,0.0,0.0,0.0,0.0,0.0,0.0,-4.5698,-4.8862,-5.1534,-5.3175,-5.2242,-5.1396,-5.1155,-4.8678,-4.5864,-4.2928,0.0,0.0,0.0,0.0,0.0,0.0,0.0,0.0,0.0,0.0,0.0,0.0,0.0,0.0,0.0,0.0,0.0,0.0,0.0,0.0,0.0,0.0,0.0,0.0,0.0,0.0,0.0,0.0,0.0,0.0,0.0,0.0,0.0,0.0,0.0,0.0,0.0,0.0,0.0,0.0,0.0,0.0,0.0,0.0,0.0,0.0,0.0,0.0,0.0,0.0,0.0,0.0,0.0,0.0,0.0,0.0,0.0,0.0,0.0,0.0,0.0,0.0,0.0,0.0,0.0,0.0,0.0,0.0,0.0,0.0,0.0,0.0,0.0,0.0,0.0,0.0,0.0,0.0,0.0,0.0,0.0,0.0,0.0,0.0,0.0,0.0,0.0,0.0,0.0,0.0,0.0,0.0,0.0,0.0,0.0,0.0,0.0,0.0,0.0,0.0,0.0,0.0,-4.559,-4.8804,-5.1491,-5.3088,-5.192,-5.1021,-5.1021,-4.8513,-4.5686,-4.2797,0.0,0.0,0.0,0.0,0.0,0.0,0.0,0.0,0.0,0.0,0.0,0.0,0.0,0.0,0.0,0.0,0.0,0.0,0.0,0.0,0.0,0.0,0.0,0.0,0.0,0.0,0.0,0.0,0.0,0.0,0.0,0.0,0.0,0.0,0.0,0.0,0.0,0.0,0.0,0.0,0.0,0.0,0.0,0.0,0.0,0.0,0.0,0.0,0.0,0.0,0.0,0.0,0.0,0.0,0.0,0.0,0.0,0.0,0.0,0.0,0.0,0.0,0.0,0.0,0.0,0.0,0.0,0.0,0.0,0.0,0.0,0.0,0.0,0.0,0.0,0.0,0.0,0.0,0.0,0.0,0.0,0.0,0.0,0.0,0.0,0.0,0.0,0.0,0.0,0.0,0.0,0.0,0.0,0.0,0.0,0.0,0.0,0.0,0.0,0.0,0.0,0.0,-4.5517,-4.8649,-5.1247,-5.2785,-5.1623,-5.071,-5.0657,-4.7794,-4.5014,-4.2578,0.0,0.0,0.0,0.0,0.0,0.0,0.0,0.0,0.0,0.0,0.0,0.0,0.0,0.0,0.0,0.0,0.0,0.0,0.0,0.0,0.0,0.0,0.0,0.0,0.0,0.0,0.0,0.0,0.0,0.0,0.0,0.0,0.0,0.0,0.0,0.0,0.0,0.0,0.0,0.0,0.0,0.0,0.0,0.0,0.0,0.0,0.0,0.0,0.0,0.0,0.0,0.0,0.0,0.0,0.0,0.0,0.0,0.0,0.0,0.0,-4.6779,-4.6074,0.0,0.0,0.0,0.0,0.0,0.0,0.0,0.0,0.0,0.0,0.0,0.0,0.0,0.0,0.0,0.0,0.0,0.0,0.0,0.0,0.0,0.0,0.0,0.0,0.0,0.0,0.0,0.0,0.0,0.0,0.0,0.0,0.0,0.0,0.0,0.0,0.0,0.0,0.0,0.0,-4.4879,-4.7775,-4.9916,-5.0886,-5.0137,-4.9333,-4.8744,-4.6334,-4.4012,-4.1995,-3.9774,0.0,0.0,0.0,0.0,0.0,0.0,0.0,0.0,0.0,0.0,0.0,0.0,0.0,0.0,0.0,0.0,0.0,0.0,0.0,0.0,0.0,0.0,0.0,0.0,0.0,0.0,0.0,0.0,0.0,0.0,0.0,0.0,0.0,0.0,0.0,0.0,0.0,0.0,0.0,0.0,0.0,0.0,0.0,0.0,0.0,0.0,0.0,0.0,0.0,0.0,0.0,0.0,0.0,0.0,0.0,0.0,0.0,0.0,0.0,-4.8734,-4.8126,0.0,0.0,0.0,0.0,0.0,0.0,0.0,0.0,0.0,0.0,0.0,0.0,0.0,0.0,0.0,0.0,0.0,0.0,0.0,0.0,0.0,0.0,0.0,0.0,0.0,0.0,0.0,0.0,0.0,0.0,0.0,0.0,0.0,0.0,0.0,0.0,0.0,0.0,0.0,0.0,-4.4422,-4.7062,-4.9127,-5.0287,-4.9359,-4.852,-4.8133,-4.623,-4.4317,-4.2591,-4.0236,0.0,0.0,0.0,0.0,0.0,0.0,0.0,0.0,0.0,0.0,0.0,0.0,0.0,0.0,0.0,0.0,0.0,0.0,0.0,0.0,0.0,0.0,0.0,0.0,0.0,0.0,0.0,0.0,0.0,0.0,0.0,0.0,0.0,0.0,0.0,0.0,0.0,0.0,0.0,0.0,0.0,0.0,0.0,0.0,0.0,0.0,0.0,0.0,0.0,0.0,0.0,0.0,0.0,-5.1366,-5.1731,-5.1731,-5.1731,-5.2059,-5.2566,-5.1349,-5.0927,-5.0977,-4.9416,0.0,0.0,0.0,0.0,0.0,0.0,0.0,0.0,0.0,0.0,0.0,0.0,0.0,0.0,0.0,0.0,0.0,0.0,0.0,0.0,0.0,0.0,-4.5333,-4.4525,-4.5351,-4.5315,-4.1615,0.0,0.0,0.0,0.0,0.0,0.0,0.0,0.0,0.0,0.0,0.0,-4.4017,-4.6404,-4.8329,-4.9607,-4.8595,-4.7779,-4.7636,-4.6282,-4.4791,-4.3276,-4.1105,-3.9206,0.0,0.0,0.0,0.0,0.0,0.0,0.0,0.0,0.0,0.0,0.0,0.0,0.0,0.0,0.0,0.0,0.0,0.0,0.0,0.0,0.0,0.0,0.0,0.0,0.0,0.0,0.0,0.0,0.0,0.0,0.0,0.0,-4.7485,-4.6801,0.0,0.0,0.0,0.0,0.0,0.0,0.0,0.0,0.0,0.0,0.0,0.0,0.0,-5.0346,-5.0365,-5.253,-5.3668,-5.3799,-5.4608,-5.4972,-5.4972,-5.4972,-5.5027,-5.5119,-5.492,0.0,-5.1722,-5.0126,0.0,0.0,0.0,0.0,0.0,0.0,0.0,0.0,0.0,0.0,0.0,0.0,0.0,0.0,0.0,0.0,0.0,0.0,0.0,0.0,0.0,0.0,-4.8655,-4.7865,-4.7829,-4.7329,-4.501,-4.2704,-4.0967,-4.0545,-3.8581,-3.6991,0.0,0.0,0.0,0.0,0.0,0.0,-4.35,-4.5558,-4.6862,-4.7097,-4.6914,-4.6499,-4.5823,-4.4982,-4.3976,-4.2758,-4.1143,-3.9693,-3.8479,-3.615,0.0,0.0,0.0,0.0,0.0,0.0,0.0,0.0,0.0,0.0,0.0,0.0,0.0,0.0,0.0,0.0,0.0,0.0,0.0,0.0,0.0,0.0,0.0,0.0,0.0,0.0,0.0,0.0,0.0,-4.6906,-4.7579,-4.7541,-4.7496,-4.7237,0.0,0.0,0.0,0.0,0.0,0.0,0.0,0.0,0.0,-4.9682,-5.1298,-5.238,-5.2821,-5.4308,-5.506,-5.5078,-5.5886,-5.6033,-5.5611,-5.6069,-5.6271,-5.6253,-5.5794,-5.5244,-5.4546,-5.2472,-5.0917,-4.9727,0.0,0.0,0.0,0.0,-4.8508,-4.8673,-4.9939,-4.9921,-4.9242,-4.8673,0.0,0.0,0.0,0.0,0.0,0.0,0.0,-4.5058,-4.6672,-4.7608,-4.812,-4.7957,-4.7915,-4.7575,-4.6406,-4.4487,-4.2605,-4.1232,-4.0203,-3.8954,-3.7097,-3.6557,0.0,0.0,0.0,-4.1677,-4.3763,-4.5131,-4.6086,-4.6562,-4.619,-4.5776,-4.5432,-4.5113,-4.4345,-4.301,-4.1881,-4.0647,-3.9258,-3.7423,-3.604,0.0,0.0,0.0,0.0,0.0,0.0,0.0,0.0,0.0,0.0,0.0,0.0,0.0,0.0,0.0,0.0,0.0,0.0,0.0,0.0,0.0,0.0,0.0,0.0,0.0,0.0,0.0,0.0,-4.7657,-4.8236,-4.8262,-4.8714,-4.8604,0.0,0.0,0.0,0.0,0.0,0.0,-4.9829,-5.0672,-5.1411,-5.1995,-5.339,-5.4418,-5.5005,-5.5812,-5.6198,-5.6216,-5.6822,-5.6785,-5.6216,-5.684,-5.7116,-5.7079,-5.6473,-5.6308,-5.6326,-5.4124,-5.2511,-5.138,-5.0328,-4.9576,-4.9173,-4.9942,-5.0216,-5.0418,-5.1811,-5.216,-5.183,-5.0839,-4.9793,-4.8563,-4.6544,0.0,0.0,0.0,0.0,-4.5479,-4.6971,-4.737,-4.7417,-4.7669,-4.7728,-4.7493,-4.6608,-4.541,-4.3961,-4.2172,-4.1694,-4.0679,-3.7914,-3.7881,0.0,-3.8558,-4.0258,-4.2107,-4.3733,-4.4595,-4.5361,-4.6109,-4.5662,-4.5291,-4.5291,-4.5291,-4.4664,-4.3175,-4.2496,-4.1498,-3.9967,-3.8659,-3.7524,-3.6526,0.0,0.0,0.0,0.0,0.0,0.0,0.0,0.0,0.0,0.0,0.0,0.0,0.0,0.0,0.0,0.0,0.0,0.0,0.0,0.0,0.0,0.0,0.0,0.0,0.0,0.0,0.0,0.0,0.0,-4.8911,-5.0562,0.0,0.0,0.0,0.0,-5.0861,-5.0817,-5.1685,-5.3977,-5.4145,-5.4531,-5.5339,-5.618,-5.6657,-5.6693,-5.7483,-5.7868,-5.7868,-5.7923,-5.7923,-5.7886,-5.7923,-5.7941,-5.7941,-5.7886,-5.7042,-5.5519,-5.3885,-5.3151,-5.2931,-5.1353,-5.0729,-5.0784,-5.1573,-5.1887,-5.1995,-5.2858,-5.2637,-5.2105,-5.2803,-5.1958,-5.0508,-4.9554,-4.8159,0.0,0.0,-4.6325,-4.6584,-4.7738,-4.8059,-4.8059,-4.8072,-4.8066,-4.754,-4.5511,-4.4777,-4.4464,-4.4339,-4.2802,-4.1357,-4.0831,0.0,-4.0435,-4.0228,-4.1076,-4.206,-4.2859,-4.3675,-4.4395,-4.5015,-4.5022,-4.5005,-4.5005,-4.5005,-4.4356,-4.2808,-4.2672,-4.2014,-4.0534,-3.973,-3.8595,-3.7086,-3.63,0.0,0.0,0.0,0.0,0.0,0.0,0.0,0.0,0.0,0.0,0.0,0.0,0.0,0.0,0.0,0.0,0.0,0.0,0.0,0.0,0.0,0.0,0.0,0.0,0.0,0.0,0.0,0.0,-5.1157,-5.257,0.0,-5.2066,-5.2128,-5.2516,-5.321,-5.3658,-5.4252,-5.5115,-5.5666,-5.6088,-5.6363,-5.7152,-5.7574,-5.7574,-5.785,-5.7997,-5.7997,-5.7997,-5.7997,-5.7997,-5.7997,-5.7997,-5.7997,-5.7997,-5.7666,-5.706,-5.5978,-5.4598,-5.313,-5.2582,-5.2344,-5.2454,-5.3243,-5.3537,-5.3592,-5.3867,-5.3775,-5.3408,-5.2674,-5.2032,-5.1408,-5.0582,-4.9939,-4.9272,-4.8242,-4.7953,-4.7846,-4.7438,-4.7606,-4.782,-4.7463,-4.7339,-4.6858,-4.5321,-4.4135,-4.3183,-4.2721,-4.1945,-4.1054,-4.012,-4.0289,-4.0528,-4.0433,-4.1133,-4.1945,-4.2732,-4.3074,-4.3536,-4.4219,-4.3877,-4.3791,-4.4253,-4.3877,-4.3116,-4.2057,-4.1971,-4.1552,-4.0544,-4.0253,-3.9375,-3.7855,-3.708,-3.5339,0.0,0.0,0.0,0.0,0.0,0.0,0.0,0.0,0.0,0.0,0.0,0.0,0.0,0.0,0.0,0.0,0.0,0.0,0.0,0.0,0.0,0.0,0.0,0.0,0.0,-5.0683,-5.2252,-5.2846,-5.4267,-5.4874,-5.402,-5.446,-5.4913,-5.5188,-5.5702,-5.6106,-5.64,-5.6914,-5.7207,-5.7207,-5.7721,-5.7997,-5.7997,-5.7997,-5.7997,-5.7997,-5.7997,-5.7997,-5.7997,-5.7997,-5.7997,-5.7997,-5.7997,-5.785,-5.7556,-5.7024,-5.5702,-5.4014,-5.4014,-5.4014,-5.4069,-5.4601,-5.4803,-5.4766,-5.4491,-5.4216,-5.383,-5.2747,-5.2399,-5.2252,-5.1444,-5.1206,-5.0826,-4.905,-4.8568,-4.8214,-4.6714,-4.6861,-4.7267,-4.6813,-4.6655,-4.6245,-4.4915,-4.3611,-4.239,-4.1358,-4.1281,-4.1058,-3.9966,-4.0546,-4.1024,-4.0578,-4.1075,-4.1733,-4.2262,-4.233,-4.2594,-4.3274,-4.2917,-4.2832,-4.3309,-4.2917,-4.2304,-4.1503,-4.1214,-4.0762,-4.0005,-3.9749,-3.9034,-3.7757,-3.6968,-3.5487,-3.324,0.0,0.0,0.0,0.0,0.0,0.0,0.0,0.0,0.0,0.0,0.0,0.0,0.0,0.0,0.0,0.0,0.0,0.0,0.0,0.0,0.0,0.0,0.0,-5.0413,-5.2416,-5.3774,-5.3792,-5.5591,-5.6235,-5.4656,-5.5207,-5.5996,-5.6785,-5.6877,-5.7207,-5.796,-5.8015,-5.8033,-5.7997,-5.7997,-5.7997,-5.7997,-5.7997,-5.7997,-5.7997,-5.7997,-5.7997,-5.7997,-5.7997,-5.7997,-5.7997,-5.7997,-5.7556,-5.684,-5.684,-5.6381,-5.5666,-5.5611,-5.5596,-5.5578,-5.5574,-5.5596,-5.5445,-5.4693,-5.3904,-5.3185,-5.3185,-5.3185,-5.3059,-5.227,-5.2032,-5.1499,-4.8892,-4.815,-4.7696,-4.5788,-4.5954,-4.6539,-4.6219,-4.6251,-4.586,-4.427,-4.3261,-4.2228,-4.0619,-4.0991,-4.1347,-4.0605,-4.1563,-4.1971,-4.0666,-4.1,0.0,-4.1359,-4.1359,-4.1596,-4.2211,-4.2236,-4.2236,-4.2252,-4.2236,-4.1914,-4.1187,-4.0468,-3.9757,-3.9022,-3.8311,-3.7584,-3.6846,-3.6045,-3.5267,-3.4489,0.0,0.0,0.0,0.0,0.0,0.0,0.0,0.0,0.0,0.0,0.0,0.0,0.0,0.0,0.0,0.0,0.0,0.0,0.0,0.0,0.0,-5.0335,-5.2212,-5.2313,-5.3904,-5.5288,-5.5896,-5.6963,-5.7501,-5.7042,-5.7207,-5.7428,-5.7648,-5.8217,-5.8382,-5.8015,-5.8547,-5.8602,-5.8015,-5.7997,-5.7997,-5.7997,-5.7997,-5.7997,-5.7997,-5.7997,-5.7997,-5.7997,-5.7997,-5.7997,-5.7997,-5.7997,-5.7868,-5.7666,-5.7666,-5.7538,-5.7207,-5.6051,-5.5225,-5.4803,-5.5372,-5.5225,-5.4785,-5.5133,-5.4363,-5.3185,-5.3185,-5.3185,-5.317,-5.2949,-5.2876,-5.2428,-5.0342,-4.9293,-4.8522,-4.7205,-4.6873,-4.6993,-4.7452,-4.7104,-4.626,-4.4726,-4.3369,-4.1952,-4.0451,-4.0341,-4.0434,-4.023,-4.051,-4.0646,-4.0264,-4.0341,-4.0451,-4.0451,-4.0451,-4.0731,-4.1424,-4.1018,-4.0916,-4.1457,-4.1001,-4.0375,-3.9648,-3.9411,-3.9208,-3.9005,-3.8802,-3.8345,-3.7618,-3.6857,-3.5808,0.0,0.0,0.0,0.0,0.0,0.0,0.0,0.0,0.0,0.0,0.0,0.0,0.0,0.0,0.0,0.0,0.0,0.0,0.0,0.0,0.0,0.0,-5.2411,-5.4246,-5.4708,-5.5801,-5.6742,-5.7234,-5.7866,-5.8186,-5.802,-5.7997,-5.7997,-5.7997,-5.8437,-5.8492,-5.8015,-5.8437,-5.8492,-5.8015,-5.7997,-5.7997,-5.7997,-5.7997,-5.7997,-5.7997,-5.7997,-5.7997,-5.7997,-5.7997,-5.7997,-5.7997,-5.7997,-5.7997,-5.7997,-5.7997,-5.7997,-5.7905,0.0,0.0,0.0,0.0,-5.5372,-5.4528,-5.5317,-5.4546,-5.3185,-5.3185,-5.3185,-5.3185,-5.3185,-5.3039,-5.2512,-5.0862,-4.9646,-4.8637,-4.7738,-4.7352,-4.7351,-4.7937,-4.7696,-4.6925,-4.5393,-4.3842,-4.232,-4.0832,-4.0316,0.0,-4.0096,-4.0096,-4.0096,-4.0096,-4.0367,-4.0468,-4.0146,-4.0383,-4.0595,-4.073,-4.0367,-4.0282,-4.0696,-4.0367,0.0,0.0,0.0,-3.8853,-3.8548,-3.8531,0.0,0.0,0.0,0.0,0.0,-3.6438,0.0,0.0,-3.6017,-3.6096,0.0,0.0,0.0,0.0,0.0,0.0,0.0,0.0,0.0,0.0,0.0,0.0,0.0,0.0,0.0,0.0,-5.4388,-5.5665,-5.7093,-5.7691,-5.7973,-5.8,-5.8396,-5.852,-5.8171,-5.8217,-5.8272,-5.8272,-5.8345,-5.8327,-5.8143,-5.8217,0.0,0.0,0.0,-5.7997,-5.7997,-5.7997,-5.7997,-5.7997,-5.7997,-5.7997,-5.7997,-5.7997,-5.7997,-5.7997,-5.7997,-5.7997,-5.7997,-5.7997,-5.7997,-5.7978,-5.7795,-5.7281,-5.6657,-5.6565,-5.5574,-5.4381,-5.5188,0.0,0.0,-5.3185,-5.3185,-5.3185,-5.3185,-5.2868,-5.2221,-5.0862,-4.9565,-4.8425,-4.7841,-4.7562,-4.7586,-4.8069,-4.8129,-4.764,-4.6036,-4.4474,-4.2953,-4.1491,-4.0595,-4.013,-4.0214,-4.0231,-4.0231,-4.0231,-4.0849,-4.1085,-4.0434,-4.0849,-4.095,-4.0299,-4.0146,0.0,-4.0096,-4.0096,-4.0062,-3.9994,-3.9343,-3.87,-3.8058,-3.8108,-3.8108,-3.8041,-3.8751,-3.9073,-3.8988,-3.9298,-3.9339,-3.9075,-3.6222,-3.6009,0.0,0.0,0.0,0.0,0.0,0.0,0.0,0.0,0.0,0.0,0.0,0.0,0.0,0.0,0.0,-5.3646,-5.5566,-5.7085,-5.7751,-5.8196,-5.8357,-5.8029,-5.8635,-5.9044,-5.8988,-5.9557,-5.9942,-5.9942,-6.0529,-6.0346,-5.9038,-5.9593,-5.9336,-5.8033,-5.7997,-5.7997,-5.7997,-5.7997,-5.7997,-5.7997,-5.7997,0.0,-5.7997,-5.7997,-5.7997,-5.7997,-5.7997,-5.7997,-5.7997,-5.7997,-5.7997,-5.7868,-5.6565,-5.5959,-5.5739,-5.5097,-5.4271,-5.3555,-5.4344,-5.4014,-5.3185,-5.3185,-5.3185,-5.3185,-5.3185,-5.3143,0.0,-5.143,-5.005,-4.8962,-4.8824,-4.7945,-4.7372,-4.8551,-4.8355,-4.7526,-4.6024,-4.4474,-4.2953,-4.1491,-4.0595,-4.0299,-4.0882,-4.0984,-4.0984,-4.0984,-4.161,-4.2033,-4.188,-4.1474,-4.1153,-4.1001,-4.0443,-4.0096,-4.0096,-4.0096,-3.9859,-3.9242,-3.9073,-3.8937,-3.8785,-3.9343,-3.9377,-3.8802,-3.952,-3.9605,-3.8988,-4.0222,-4.0517,-3.9933,-3.8313,-3.7742,0.0,0.0,0.0,0.0,0.0,0.0,0.0,0.0,0.0,0.0,0.0,-4.7722,-4.9938,0.0,-5.366,-5.538,-5.6759,-5.7661,-5.7873,-5.8142,-5.8231,-5.802,-5.8882,-5.9425,-5.9208,-5.9942,-6.0401,-6.0401,-6.0768,-6.0658,-5.985,-6.0181,-5.985,-5.8639,-5.8602,-5.8419,-5.7997,-5.7997,-5.7997,-5.7997,-5.7997,-5.7997,-5.7997,-5.7997,-5.7997,-5.7997,-5.7997,-5.7776,-5.7373,-5.695,-5.7042,-5.7281,-5.6069,-5.5614,-5.5482,-5.4693,-5.3904,-5.3314,-5.4124,-5.3867,-5.3185,-5.3185,-5.3185,-5.3112,-5.2729,-5.2395,-5.1912,-5.05,-4.9132,-4.8106,-4.8186,-4.7603,-4.7245,-4.8307,-4.8233,-4.7483,-4.6024,-4.4474,-4.2953,-4.1491,-4.0595,-4.0333,-4.1068,-4.1508,-4.1745,-4.1745,-4.2388,-4.2591,-4.1847,-4.1745,-4.1457,-4.073,-4.0333,-4.0096,-4.0096,-4.0096,-3.9943,-3.9571,-3.9554,-3.9554,-3.9554,-3.991,-3.9943,-3.9571,-3.991,-3.9944,-3.9592,-4.0043,-4.0254,-4.023,-3.8994,-3.8702,0.0,0.0,0.0,0.0,0.0,0.0,0.0,0.0,-4.5371,-4.7626,-4.8466,-4.9784,-5.3025,-5.4086,-5.5104,-5.6911,-5.7651,-5.7968,-5.7845,-5.7927,-5.7997,-5.7997,-5.9128,-5.9786,-5.9452,-6.0309,-6.0878,-6.0878,-6.0878,-6.0731,-6.0419,-6.0401,-5.996,-5.9006,-5.8964,-5.8657,-5.7997,-5.7997,-5.7997,-5.7997,-5.7997,-5.7997,-5.7997,-5.7997,-5.7997,-5.7997,-5.7831,-5.7483,-5.6969,-5.5996,-5.6069,-5.6712,-5.5739,-5.5354,-5.528,-5.4638,-5.3904,-5.3277,-5.394,-5.3739,-5.3185,-5.3185,-5.3185,-5.3059,-5.2234,-5.1667,-5.0972,-4.937,-4.8081,-4.722,-4.7186,-4.6982,-4.702,-4.7874,-4.7874,-4.7327,-4.5991,-4.4474,-4.2953,-4.1491,-4.0595,-4.0383,-4.1255,-4.1914,-4.2337,-4.2489,-4.3149,-4.3166,-4.1813,-4.2016,-4.1779,-4.0468,-4.0197,-4.0096,-4.0096,-4.0096,-4.0096,-4.0096,-4.0096,-4.0045,-3.9944,-3.9944,-3.9876,-3.9731,-3.9882,-3.9971,-4.0017,-3.9796,-3.9941,-4.0309,-3.9469,-3.9454,-4.0012,-4.0065,-4.1259,-4.3608,-4.3683,-4.4382,0.0,0.0,-4.8471,-5.1092,-5.2218,-5.3002,-5.38,-5.5242,-5.65,-5.7108,-5.7884,-5.8335,-5.8024,-5.7997,-5.7997,-5.7997,-5.9383,-6.032,-6.0272,-6.1649,-6.2523,-6.2523,-6.2523,-6.1924,-6.0493,-6.0401,-5.9703,-5.818,-5.8125,-5.8088,-5.7997,-5.7997,-5.7997,-5.7997,-5.7997,-5.7997,-5.7997,-5.7997,-5.7997,-5.796,-5.7244,-5.7299,-5.774,-5.6216,-5.6069,-5.6657,-5.5133,-5.4528,-5.4528,-5.4436,-5.3904,-5.3203,-5.3316,-5.3277,-5.3185,-5.3185,-5.3185,-5.3059,-5.2234,-5.1875,-5.1298,-4.922,-4.8174,-4.7498,-4.683,-4.634,-4.6333,-4.761,-4.7394,-4.6701,-4.5889,-4.4474,-4.2953,-4.1491,-4.0595,-4.0553,-4.1931,-4.2236,-4.2523,-4.32,-4.3961,-4.4147,-4.3284,-4.2658,-4.1982,-4.117,-4.0476,-4.0096,-4.0096,-4.0096,-4.0096,-4.0096,-4.0096,-3.985,-3.9312,-3.9312,-3.9055,-3.8502,-3.9081,-3.9381,-3.9405,-4.0596,-4.0906,-4.0404,-4.0939,-4.0576,-4.1912,-4.2205,-4.2982,-4.4721,-4.5965,-4.7316,-4.9488,-5.0033,-5.0591,-5.2458,-5.3138,-5.3921,-5.5605,-5.6285,-5.6912,0.0,-5.8317,-5.8431,-5.8047,-5.7997,-5.7997,-5.7997,-5.9006,-5.9905,-6.0346,-6.1429,-6.231,-6.2743,-6.278,-6.253,-6.1832,-6.1355,-6.0584,-5.9428,-5.8951,-5.8474,-5.7997,-5.7997,-5.7997,-5.7997,-5.7997,-5.7997,-5.7997,-5.7997,-5.7997,-5.796,-5.7152,-5.7262,-5.7831,-5.5757,-5.5372,-5.5996,-5.484,-5.4106,-5.3702,-5.3702,-5.35,-5.3185,-5.3185,-5.3185,-5.3185,-5.3185,-5.3185,-5.2947,-5.1603,-5.1197,-5.0728,-4.8395,-4.7354,-4.6758,-4.604,-4.5812,-4.6015,-4.7005,-4.6363,-4.5461,-4.5111,-4.3504,-4.1813,-4.0747,-4.0316,-4.057,-4.2033,-4.2286,-4.2709,-4.391,-4.4395,-4.413,-4.2912,-4.2489,-4.1847,-4.0663,-4.0282,-4.0096,-4.0096,-4.0096,-4.0096,-4.0096,-3.9773,-3.947,-3.9206,-3.8865,-3.8378,-3.7734,-3.8359,-3.856,-3.8214,-3.9572,-4.0119,-3.9893,-4.0577,-4.0593,-4.3203,-4.3721,-4.4296,-4.5792,-4.7625,-4.9288,-5.0105,-5.0993,-5.2037,-5.3522,-5.3728,-5.4399,-5.6832,-5.6826,-5.6947,-5.8368,-5.8584,-5.8434,-5.8047,-5.7997,-5.7923,-5.7703,-5.8382,-5.9116,-5.9685,-6.0676,-6.1502,-6.2108,-6.2144,-6.2028,-6.1808,-6.1263,-6.0566,-5.9758,-5.9171,-5.8602,-5.7997,-5.7997,-5.7997,-5.7997,-5.7997,-5.7997,-5.7997,-5.7997,-5.7997,-5.796,-5.7152,-5.7134,-5.7501,-5.5299,-5.473,-5.5188,-5.4381,-5.372,-5.3185,-5.3185,-5.3185,-5.3185,-5.3185,-5.3185,-5.3185,-5.3185,-5.3185,-5.2831,-5.1117,-5.0641,-5.0128,-4.7582,-4.6601,-4.6136,-4.532,-4.5386,-4.5838,-4.6363,-4.5546,-4.4547,-4.4316,-4.2642,-4.0984,-4.0248,-4.0096,-4.0502,-4.1779,-4.2168,-4.2743,-4.4062,-4.4479,-4.4056,-4.2489,-4.1931,-4.1297,-4.0214,-4.0096,-4.0096,-4.0096,-4.0096,-4.002,-3.985,-3.9444,-3.9055,-3.8728,-3.8294,-3.7741,-3.7086,-3.7553,-3.7592,-3.7148,-3.8325,-3.8978,-3.9262,-3.9905,-4.032,-4.3483,-4.3946,-4.4535,-4.6792,-4.7791,-4.8999,-5.1841,-5.2323,-5.2741,-5.473,-5.4678,-5.4869,-5.6833,-5.6594,-5.6646,-5.8326,-5.8558,-5.8381,-5.8042,-5.7997,-5.7703,-5.6932,-5.7556,-5.8052,-5.807,-5.9501,-6.0456,-6.0474,-6.0474,-6.0144,-5.9349,-5.9276,-5.8914,-5.8107,-5.8052,-5.8015,-5.7997,-5.7997,-5.7997,-5.7997,-5.7997,-5.7997,-5.7997,-5.7997,-5.7997,-5.796,-5.7152,-5.6822,-5.6712,-5.5078,-5.4418,-5.4363,-5.3555,-5.3203,-5.3185,-5.3185,-5.3185,-5.3185,-5.3185,-5.3185,-5.3185,-5.3185,-5.3103,-5.2706,-5.1078,-5.0474,-4.9745,-4.708,-4.6238,-4.5868,-4.4896,-4.5173,-4.572,-4.5737,-4.5145,-4.4395,-4.3606,-4.2269,-4.0984,-4.0248,-4.0096,-4.035,-4.1102,-4.183,-4.2557,-4.3308,-4.4096,-4.4056,-4.2489,-4.106,-4.0146,-4.0096,-4.0096,-4.0096,-4.0096,-4.0096,-3.985,-3.9259,-3.9206,-3.8673,-3.749,-3.7447,-3.7148,-3.6554,-3.6538,-3.6554,-3.6523,-3.7216,-3.7877,-3.8554,-3.9231,-3.9859,-4.4051,-4.5154,-4.6263,-4.7646,-4.938,-5.1051,-5.2306,-5.3419,-5.4315,-5.4766,-5.456,-5.4735,-5.621,-5.5641,-5.5665,-5.7789,-5.7703,-5.7526,-5.7946,-5.7997,-5.7905,-5.7629,-5.7831,-5.7997,-5.7997,-5.8969,-5.9832,-6.0364,-6.0401,-6.0291,-6.0015,-5.9478,-5.9074,-5.8781,-5.829,-5.7997,-5.7997,-5.7997,-5.7997,-5.7997,-5.7997,-5.7997,-5.7997,-5.7997,-5.7997,-5.7978,-5.7703,-5.7593,-5.7519,-5.6436,-5.5684,-5.5115,-5.4308,-5.3683,-5.3185,-5.3185,-5.3185,-5.3185,-5.3185,-5.3185,-5.3185,-5.3185,-5.2736,-5.1993,-5.0811,-5.0055,-4.9168,-4.724,-4.6478,-4.6067,-4.5284,-4.5029,-4.5077,-4.5585,-4.435,-4.3132,-4.3341,-4.1863,-4.0417,-4.0146,-4.0096,-4.0333,-4.1068,-4.1407,-4.1999,-4.3206,-4.3639,-4.3623,-4.3115,-4.1745,-4.0832,-4.0832,-4.0375,-4.0096,-4.0096,-3.9722,-3.9418,-3.9206,-3.8451,-3.7825,-3.7417,-3.7013,-3.6305,-3.5198,-3.5629,-3.5629,-3.5183,-3.6738,-3.7846,-3.8539,-3.9628,-4.0274,-4.5412,-4.6424,-4.7254,-4.857,-5.036,-5.194,-5.2511,-5.3759,-5.4751,-5.452,-5.4157,-5.418,-5.5213,-5.4389,-5.4308,-5.6668,-5.6665,-5.6657,-5.7464,-5.7813,-5.7886,-5.7611,-5.7813,-5.7886,-5.7593,-5.8309,-5.8988,-5.9501,-5.9538,-5.9538,-5.9538,-5.9061,-5.8786,-5.8786,-5.8272,-5.7997,-5.7997,-5.7997,-5.7997,-5.7997,-5.7997,-5.7997,-5.7997,-5.7997,-5.7997,-5.7997,-5.7997,-5.7831,-5.7538,-5.7024,-5.6161,-5.5115,-5.4601,-5.3922,-5.3185,-5.3185,-5.3185,-5.3185,-5.3185,-5.3164,-5.3088,-5.2794,-5.223,-5.1463,-5.0286,-4.9407,-4.8507,-4.7013,-4.6286,-4.58,-4.5205,-4.5001,-4.4959,-4.4908,-4.3775,-4.2675,-4.2642,-4.1288,-4.0096,-4.0096,-4.0096,-4.0265,-4.073,-4.1238,-4.1914,-4.2878,-4.325,-4.3392,-4.3392,-4.2117,-4.1204,-4.1204,-4.0527,-4.0096,-4.0096,-3.9747,-3.9339,-3.892,-3.8153,-3.7519,-3.7104,-3.6491,-3.5752,-3.4874,-3.4797,-3.4522,-3.4091,-3.566,-3.6892,-3.7815,-3.8923,-3.9674,-4.7379,-4.769,-4.7599,-4.9521,-5.0735,-5.1675,-5.2463,-5.3404,-5.404,-5.3932,-5.3398,-5.3135,-5.372,-5.2791,-5.2702,-5.5039,-5.5534,-5.5886,-5.6748,-5.7519,-5.7721,0.0,0.0,0.0,0.0,0.0,-5.7997,-5.7997,-5.7997,-5.7997,-5.7997,-5.7997,-5.7997,-5.7997,-5.7997,-5.7997,-5.7997,-5.7997,-5.7997,-5.7997,-5.7997,-5.7997,-5.7997,-5.7997,-5.7997,-5.7997,-5.7997,-5.7574,-5.6877,-5.6877,-5.5904,-5.4454,-5.4454,-5.394,-5.3185,-5.3185,-5.3185,-5.3185,-5.3185,-5.3103,-5.2852,-5.2069,-5.1642,-5.1155,-4.9574,-4.8604,-4.7778,-4.6473,-4.5699,-4.5188,-4.472,-4.5111,-4.528,-4.3798,-4.3392,-4.2953,-4.1559,-4.0646,-4.0096,-4.0096,-4.0096,-4.0096,-4.0096,-4.1331,-4.2286,-4.2236,-4.2912,-4.3392,-4.3392,-4.2168,-4.1271,-4.1271,-4.0612,-4.018,-4.0045,-4.0062,-3.9523,-3.8265,-3.8189,-3.7661,-3.6446,-3.5814,-3.5475,-3.5368,-3.4075,-3.3413,-3.346,-3.4197,-3.5275,-3.6615,-3.7292,-3.8292,-4.7819,-4.8664,-4.9308,-4.9917,-5.1179,-5.2221,-5.1941,-5.2831,-5.33,-5.18,-5.115,-5.0731,-5.0295,-5.0713,-5.1773,-5.3832,-5.496,0.0,-5.7501,-5.7868,0.0,-5.7721,0.0,-5.7923,-5.7703,-5.7886,-5.7997,-5.7997,-5.7997,-5.7997,-5.7997,-5.7997,-5.7997,-5.7997,-5.7997,-5.7997,-5.7997,-5.7997,-5.7997,-5.7997,-5.7997,-5.7997,-5.7997,-5.7997,-5.7997,-5.7997,-5.7997,-5.7886,-5.7685,-5.7685,-5.6748,-5.528,-5.528,-5.4436,-5.3185,-5.3185,-5.3185,-5.3185,-5.3082,-5.302,-5.2852,-5.2069,-5.1262,-5.041,-4.9413,-4.8207,-4.7043,-4.6315,-4.5699,-4.5188,-4.472,-4.475,-4.4801,-4.4384,-4.342,-4.2472,-4.21,-4.1027,-4.0096,-4.0096,-4.0096,-4.0096,-4.0096,-4.1331,-4.21,-4.1559,-4.2591,-4.3392,-4.3392,-4.2591,-4.2016,-4.2016,-4.1847,-4.1077,-3.9436,-3.9468,-3.8788,-3.6848,-3.6891,-3.6364,-3.5059,-3.5337,-3.5028,-3.3952,-3.3583,-3.366,-3.4227,-3.4921,-3.6184,-3.8015,-3.8692,-3.9152,-4.933,-5.0069,-5.0487,-5.0196,-5.1148,-5.1936,-5.1195,-5.191,-5.2145,-5.0147,-4.9567,-4.9152,-4.8202,-4.9061,-5.0397,0.0,0.0,0.0,-5.6767,-5.7538,-5.7997,0.0,-5.7997,0.0,-5.7997,-5.7997,-5.7997,-5.7997,-5.7997,-5.7997,-5.7997,-5.7997,-5.7997,-5.7997,-5.7997,-5.7997,-5.7997,-5.7997,-5.7997,-5.7997,-5.7997,-5.7997,-5.7997,-5.7997,-5.7997,-5.7997,-5.7997,-5.7997,-5.7997,-5.7997,-5.7042,-5.5614,-5.5614,-5.462,-5.3185,-5.3185,-5.3164,-5.3103,-5.302,-5.2714,-5.2207,-5.1408,-5.0478,-4.9524,-4.8729,-4.7577,-4.6478,-4.6172,-4.558,-4.4917,-4.4682,-4.4615,-4.4513,-4.4147,-4.3403,-4.2608,-4.1965,-4.1153,-4.0476,-4.0163,-4.0096,-4.0096,-4.0096,-4.1035,-4.1677,-4.1271,-4.2185,-4.3047,-4.3341,-4.276,-4.2286,-4.2286,-4.1999,-4.117,-3.9622,-3.9365,-3.8699,-3.7204,-3.6719,-3.6133,-3.5414,-3.4845,-3.4491,-3.4306,-3.3706,-3.3752,-3.4505,-3.5183,-3.6215,-3.7646,-3.8323,-3.8631,-5.1222,-5.1472,-5.1218,-5.0538,-5.0931,-5.1261,-5.0347,-5.0687,-5.0602,-4.8465,0.0,-4.7559,-4.649,-4.7402,-4.8671,-4.9748,0.0,-5.4473,-5.5592,-5.695,-5.7886,-5.7997,-5.7997,-5.7997,-5.7997,-5.7997,-5.7997,-5.7997,-5.7997,-5.7997,-5.7997,-5.7997,-5.7997,-5.7997,-5.7997,-5.7997,-5.7997,-5.7997,-5.7997,-5.7997,-5.7997,-5.7997,-5.7997,-5.7997,-5.7997,-5.7997,-5.7997,-5.7997,-5.7997,-5.7886,-5.695,-5.5574,-5.5464,-5.4528,-5.3185,-5.3185,-5.3103,-5.2999,-5.2977,-5.2313,-5.1373,-5.0555,-4.9651,-4.8746,-4.785,-4.6886,-4.6091,-4.6,-4.5311,-4.4615,-4.4615,-4.4615,-4.4429,-4.3741,-4.3392,-4.2885,-4.1627,-4.1187,-4.0865,-4.0231,-4.0096,-4.0096,-4.0096,-4.0696,-4.117,-4.1068,-4.1762,-4.2523,-4.3183,-4.2777,-4.2405,-4.2303,-4.1813,-4.1068,-4.0045,-3.9582,-3.899,-3.8202,-3.7205,-3.6613,-3.6492,-3.4765,-3.4337,-3.5491,-3.4214,-3.3937,-3.4767,-3.5275,-3.5922,-3.6769,-3.7277,-3.7507,-5.2163,-5.191,-5.137,-5.13,-5.1389,-5.1127,-4.9641,-4.9219,0.0,0.0,-4.4565,-4.3863,-4.3225,-4.4552,-4.6603,-4.9176,-5.1193,-5.339,-5.6198,-5.684,-5.7262,0.0,-5.7997,-5.7997,-5.7997,-5.7997,0.0,-5.7997,-5.7997,-5.7997,-5.7997,-5.7997,-5.7997,-5.7997,-5.7997,-5.7997,-5.7997,-5.7997,-5.7997,-5.7997,-5.7997,-5.7997,-5.7997,-5.7997,-5.7997,-5.7997,-5.7997,-5.7997,-5.7941,-5.7281,-5.6455,-5.5519,-5.4858,-5.4032,-5.3185,-5.3185,-5.3103,-5.2999,-5.2872,-5.2247,-5.1373,-5.0555,-4.9651,-4.8663,-4.7425,-4.6613,-4.6,-4.5545,-4.5035,-4.4615,-4.4615,-4.4615,-4.4564,-4.4445,-4.342,-4.2422,-4.2151,-4.1136,-4.0265,-4.013,-4.0096,-4.0096,-4.0096,-4.0696,-4.0984,-4.0383,-4.145,-4.2337,-4.2472,-4.2912,-4.298,-4.2354,-4.2726,-4.1982,-3.9394,-3.9766,-3.9322,-3.743,-3.776,-3.7563,-3.6465,-3.6133,-3.5814,-3.5521,-3.472,-3.4936,-3.6138,-3.5691,-3.6399,-3.8138,-3.7707,-3.7507,-5.3143,-5.2775,-5.2043,-5.1648,-5.0904,-4.9808,-4.8143,0.0,0.0,0.0,-4.3113,-4.2775,-4.2195,-4.3874,0.0,-4.7016,-4.9193,-5.172,-5.4546,-5.5299,0.0,-5.7795,-5.7997,-5.7997,0.0,-5.7997,-5.7997,-5.7997,-5.7997,-5.7997,-5.7997,-5.7997,-5.7997,-5.7997,-5.7997,-5.7997,-5.7997,-5.7997,-5.7997,-5.7997,-5.7997,-5.7997,-5.7997,-5.7997,-5.7997,-5.7997,-5.7997,-5.7997,-5.7941,-5.7134,-5.6326,-5.5522,-5.4711,-5.3922,-5.3185,-5.3124,-5.2999,-5.2872,-5.2743,-5.1867,-5.0703,-5.0322,-4.9608,-4.8641,-4.7312,-4.6543,-4.5975,-4.5459,-4.4971,-4.4615,-4.4615,-4.4615,-4.4615,-4.4615,-4.343,-4.2185,-4.1813,-4.0865,-4.0096,-4.0096,-4.0096,-4.0096,-4.0096,-4.0375,-4.0629,-4.0663,-4.1593,-4.2286,-4.2286,-4.3301,-4.3724,-4.2963,-4.2506,-4.1847,-4.0798,-4.0117,-3.9313,-3.8373,-3.7706,-3.7252,-3.6984,-3.5997,-3.5784,-3.6522,-3.5552,-3.5521,-3.6492,-3.6168,-3.6507,-3.7461,-3.7492,-3.7307,-5.4091,-5.3607,-5.2652,-5.2021,-5.0474,-4.8651,-4.6901,-4.5736,0.0,0.0,-4.2131,-4.2125,-4.1629,0.0,-4.4676,0.0,-4.7186,-4.9774,-5.2546,0.0,0.0,0.0,0.0,0.0,-5.7997,-5.7997,0.0,-5.7997,-5.7997,-5.7997,-5.7997,-5.7997,-5.7997,-5.7997,-5.7997,-5.7997,-5.7997,-5.7997,-5.7997,-5.7997,-5.7997,-5.7997,-5.7997,-5.7997,-5.7997,-5.7997,-5.7997,-5.7905,-5.7685,-5.6877,-5.6069,-5.5244,-5.4454,-5.3775,-5.3185,-5.3042,-5.2934,-5.2783,-5.2654,-5.1615,-5.0347,-5.0166,-4.9354,-4.8257,-4.7064,-4.6358,-4.5817,-4.5294,-4.4879,-4.4615,-4.4615,-4.4615,-4.453,-4.4192,-4.3166,-4.2049,-4.1153,-4.0493,-4.0096,-4.0096,-4.0096,-4.0096,-4.0096,-4.0096,-4.0316,-4.0882,-4.1593,-4.2117,-4.2269,-4.3379,-4.3978,-4.369,-4.232,-4.161,-4.2016,-4.0424,-3.945,-3.9573,-3.7969,-3.7217,-3.7653,-3.606,-3.5876,-3.7477,-3.6307,-3.603,-3.6707,-3.6569,-3.6569,-3.6722,-3.706,-3.6936,-5.483,-5.4065,-5.2785,-5.2709,-5.0875,-4.8651,-4.6901,0.0,0.0,-4.1298,-4.0683,-4.0513,-4.0466,-4.0825,-4.202,-4.4676,-4.5748,-4.7609,0.0,0.0,0.0,0.0,0.0,0.0,-5.7997,-5.7997,-5.7997,-5.7997,-5.7997,-5.7997,-5.7997,-5.7997,-5.7997,-5.7997,-5.7997,-5.7997,-5.7997,-5.7997,-5.7997,-5.7997,-5.7997,-5.7997,-5.7997,-5.7997,-5.7997,-5.7997,-5.7997,-5.7593,-5.6859,-5.6033,-5.5225,-5.4436,-5.3628,-5.328,-5.3185,-5.3042,-5.2934,-5.2783,-5.2654,-5.1978,-5.1072,-5.0347,-4.8717,-4.6975,-4.6352,-4.58,-4.5267,-4.4786,-4.4626,-4.4615,-4.4615,-4.4615,-4.4259,-4.2828,-4.2388,-4.1897,-4.0519,-4.0146,-4.0096,-4.0096,-4.0096,-4.0096,-4.0096,-4.0096,-4.013,-4.0197,-4.0832,-4.1542,-4.2202,-4.2405,-4.3014,-4.4361,-4.3125,-4.1948,-4.1356,-4.0519,-4.0076,-4.0216,-3.9475,-3.8809,-3.8322,-3.7608,-3.7307,-3.7507,-3.6769,-3.6738,-3.7415,-3.6799,-3.6799,-3.74,-3.6657,-3.6303,-5.4161,-5.3722,-5.2805,-5.2805,-5.0531,-4.7876,-4.6175,0.0,-4.2744,-4.0853,-4.0366,-4.03,-4.0295,-4.0527,-4.1244,-4.2903,-4.3481,-4.5149,-4.9205,0.0,0.0,0.0,-5.6785,0.0,0.0,0.0,-5.7997,-5.7997,-5.7997,-5.7997,-5.7997,-5.8213,-5.8257,-5.802,-5.8235,-5.8235,-5.7997,-5.7997,-5.7997,-5.7997,-5.7997,-5.7997,-5.7997,-5.7997,-5.7997,-5.796,-5.7483,-5.7097,-5.6689,-5.5302,-5.4565,-5.4199,-5.3288,-5.3017,-5.3042,-5.285,-5.2783,-5.2779,-5.2599,-5.1674,-5.0506,-5.0202,-4.8442,-4.6382,-4.6147,-4.5742,-4.5188,-4.4748,-4.4615,-4.4615,-4.4615,-4.4615,-4.4327,-4.3217,-4.2625,-4.2016,-4.0984,-4.0417,-4.0096,-4.0096,-4.0096,-4.0096,-4.0096,-4.0096,-4.0096,-4.0096,-4.073,-4.1322,-4.1593,-4.2422,-4.3031,-4.321,-4.2658,-4.2557,-4.3183,-4.2144,-4.1137,-4.0455,-3.9764,-3.8923,-3.7919,-3.7233,-3.7092,-3.7492,-3.683,-3.663,-3.6892,-3.6521,-3.6458,-3.6703,-3.6285,-3.6085,-5.2977,-5.2919,-5.2442,-5.2442,-5.0111,-4.736,0.0,-4.3997,-4.2297,-4.0539,-4.0244,-4.0282,-4.0186,-4.053,-4.1048,-4.1785,-4.2411,-4.4096,-4.7793,-4.9003,0.0,0.0,0.0,-5.6418,-5.7207,-5.7721,-5.7997,-5.7997,-5.7997,-5.7997,-5.7997,-5.8391,-5.8434,-5.802,-5.8279,-5.8301,-5.7997,-5.7997,-5.7997,-5.7997,-5.7997,-5.7997,-5.7997,-5.7997,-5.7997,-5.796,-5.7152,-5.6653,-5.6259,-5.4796,-5.4056,-5.3719,-5.3065,-5.2868,-5.2915,-5.268,-5.2654,-5.2717,-5.2549,-5.1448,-5.0112,-5.0112,-4.8286,-4.6098,-4.6098,-4.5614,-4.5035,-4.4692,-4.4615,-4.4615,-4.4615,-4.4615,-4.4344,-4.3318,-4.2675,-4.2033,-4.1068,-4.0485,-4.0096,-4.0096,-4.0096,-4.0096,-4.0096,-4.0096,-4.0096,-4.0096,-4.0527,-4.095,-4.117,-4.2303,-4.2963,-4.2658,-4.2828,-4.3301,-4.4164,-4.2867,-4.1583,-4.0577,-3.9634,-3.8515,-3.7263,-3.6738,-3.6722,-3.72,-3.6691,-3.6445,-3.6492,-3.6305,-3.6196,-3.6196,-3.6068,-3.5941,-5.1391,-5.162,-5.1608,-5.1608,-4.9679,-4.736,-4.5679,-4.3997,-4.2237,-4.0298,-4.0108,-4.0225,-3.9946,-4.0566,-4.126,-4.1811,-4.3069,-4.499,-4.7885,-4.904,0.0,0.0,0.0,-5.473,-5.5559,-5.706,-5.7997,-5.7997,-5.7997,-5.7997,-5.7997,-5.8391,-5.8434,-5.802,-5.7997,-5.7997,-5.7997,-5.7997,-5.7997,-5.7997,-5.7997,-5.7997,-5.7997,-5.7997,-5.7997,-5.796,-5.7152,-5.6277,-5.534,-5.4554,-5.3642,-5.2824,-5.2806,-5.2806,-5.2783,-5.2654,-5.259,-5.259,-5.2526,-5.1448,-5.0112,-5.0112,-4.8286,-4.6098,-4.6098,-4.539,-4.4615,-4.4615,-4.4615,-4.4615,-4.4615,-4.4615,-4.4225,-4.2685,-4.2303,-4.1907,-4.0434,-4.0113,-4.0096,-4.0096,-4.0096,-4.0096,-4.0096,-4.0096,-4.0096,-4.0096,-4.0113,-4.0383,-4.1119,-4.1847,-4.2591,-4.3291,-4.4096,-4.4248,-4.3477,-4.2128,-4.107,-4.0518,-3.9203,-3.7839,-3.6553,-3.6492,-3.6492,-3.6507,-3.632,-3.6305,-3.6492,-3.6305,-3.6196,-3.6196,-3.6068,-3.5829,-4.8762,-4.9442,-4.9614,-4.8411,-4.7513,-4.6328,-4.4093,-4.3176,-4.2297,-4.0529,-4.0244,-4.0263,-4.0186,-4.0226,-4.0995,-4.3178,-4.3752,-4.494,-4.7885,0.0,0.0,-5.3038,-5.5372,-5.695,0.0,-5.7703,-5.7997,-5.7997,-5.7997,-5.7997,-5.7997,-5.8138,-5.8119,-5.7997,-5.8279,-5.8279,-5.7997,-5.7997,-5.7997,-5.7997,-5.7997,-5.7997,-5.7997,-5.7997,-5.7703,-5.7152,-5.6326,-5.5452,-5.4495,-5.3624,-5.3002,-5.2654,-5.2599,-5.2622,-5.2654,-5.2577,-5.2559,-5.2586,-5.2526,-5.1448,-5.0112,-5.0112,-4.8286,-4.6098,-4.6098,-4.539,-4.4615,-4.4615,-4.4615,-4.4615,-4.4615,-4.4615,-4.4344,-4.3301,-4.2675,-4.2016,-4.1052,-4.0468,-4.0096,-4.0096,-4.0096,-4.0096,-4.0096,-4.0096,-4.0096,-4.0096,-4.0096,-4.0383,-4.1119,-4.1407,-4.2033,-4.3257,-4.3639,-4.391,-4.4198,-4.3347,-4.2338,-4.1235,-3.9906,-3.856,-3.7247,-3.6738,-3.6492,-3.6492,-3.6305,-3.6242,-3.6274,-3.6006,-3.5799,-3.5701,-3.5683,-3.5587,0.0,-4.6997,-4.7409,-4.6309,-4.5793,-4.5067,-4.3214,-4.2545,-4.1934,-4.0568,-4.0301,-4.0301,-4.0301,-4.0414,-4.1135,-4.3074,-4.3762,-4.505,0.0,0.0,0.0,-5.3463,0.0,0.0,-5.7519,-5.7813,-5.7997,-5.7997,-5.7997,-5.7997,-5.7997,-5.7997,-5.7997,-5.7997,-5.8235,-5.8257,-5.7997,-5.7997,-5.7997,-5.7997,-5.7997,-5.7997,-5.7997,-5.7685,-5.7281,-5.6748,-5.5566,-5.4708,0.0,-5.3111,-5.2672,-5.2559,-5.2503,-5.2526,-5.2559,-5.2503,-5.2327,-5.2105,-5.205,-5.0995,-4.9655,-4.9655,-4.8054,-4.6042,-4.5657,-4.5106,-4.4615,-4.4615,-4.4615,-4.4615,-4.4615,-4.435,-4.3944,-4.3183,-4.2422,-4.1677,-4.0933,-4.0409,-4.0096,-4.0096,-4.0096,-4.0096,-4.0096,-4.0096,-4.0096,-4.0096,-4.0096,-4.0282,-4.073,-4.1035,-4.1559,-4.2489,-4.2621,-4.2836,-4.3351,-4.3243,-4.2437,-4.0854,-3.9724,-3.8527,-3.7185,-3.6722,-3.6492,-3.6492,-3.6258,-3.6148,-3.6196,-3.5879,-3.5671,-3.5572,-3.5522,-3.5504,0.0,-4.438,-4.5086,-4.4972,-4.4437,-4.3682,-4.2813,-4.203,0.0,-4.0473,-4.0301,-4.032,-4.0358,-4.0998,-4.1649,-4.2076,-4.3465,-4.5397,0.0,-4.9279,0.0,0.0,-5.5299,-5.6051,-5.6799,-5.7574,-5.7997,-5.7997,-5.7997,-5.7997,-5.7997,-5.7997,-5.7997,-5.7997,-5.7997,-5.7997,-5.7997,-5.7997,-5.7997,-5.7997,-5.7997,-5.796,-5.7886,-5.7152,-5.6726,-5.6524,-5.4909,-5.4103,-5.3845,-5.2967,-5.2559,-5.2498,-5.2498,-5.2498,-5.2498,-5.2498,-5.1991,-5.1285,-5.1285,-5.0253,-4.8873,-4.8797,-4.7561,-4.5918,-4.4934,-4.4626,-4.4615,-4.4615,-4.4564,-4.4513,-4.4513,-4.3927,-4.3149,-4.2388,-4.1694,-4.1001,-4.0265,-4.0096,-4.0096,-4.0096,-4.0096,-4.0096,-4.0096,-4.0096,-4.0096,-4.0096,-4.0096,-4.0096,-4.0096,-4.0696,-4.1127,-4.1135,-4.1243,-4.1309,-4.1274,-4.1887,-4.1498,-3.9628,-3.8821,-3.7877,-3.6615,-3.6507,-3.646,-3.646,-3.6132,-3.6037,-3.6148,-3.5831,-3.5688,-3.5688,-3.5554,-3.5504,-4.0253,0.0,-4.308,-4.18,-4.2297,-4.2698,0.0,-4.1208,-4.1266,-4.0473,0.0,-4.0492,-4.1094,-4.1361,-4.221,-4.4387,-4.5569,-4.693,-4.9009,0.0,0.0,-5.657,-5.7203,-5.7478,-5.7546,-5.784,-5.7997,-5.7997,-5.7997,-5.7997,-5.7997,-5.7997,-5.7997,-5.7997,-5.7997,-5.7997,-5.7997,-5.7904,-5.7904,-5.7997,-5.7904,-5.7509,-5.6928,-5.6832,-5.6057,-5.4777,-5.4371,-5.3752,-5.3057,-5.2726,-5.2559,-5.2498,-5.2498,-5.2498,-5.2498,-5.2498,-5.1991,-5.1285,-5.1285,-5.0253,-4.8739,-4.7702,-4.6779,-4.5992,-4.5346,-4.4879,-4.4615,-4.4615,-4.4147,-4.369,-4.369,-4.3115,-4.2371,-4.1627,-4.1339,-4.1001,-4.0265,-4.0096,-4.0096,-4.0096,-4.0096,-4.0096,-4.0096,-4.0096,-4.0096,-4.0096,-4.0096,-4.0096,-4.0096,-4.0265,-4.039,-4.0488,-4.0541,-4.0393,-3.9977,-4.0114,-4.0007,-3.9534,-3.837,-3.752,-3.7054,-3.6549,-3.6211,-3.61,-3.5894,-3.575,-3.5651,-3.5587,-3.5554,-3.5554,-3.5504,-3.5504,-3.9126,-4.0578,-4.1896,-4.0607,-4.1266,-4.1972,-4.1055,0.0,0.0,0.0,0.0,-4.0559,-4.1342,-4.1711,-4.2561,-4.466,-4.6183,0.0,0.0,0.0,-5.4934,-5.6823,-5.7196,-5.7389,-5.7684,-5.7815,-5.7904,-5.7904,-5.7973,-5.7997,-5.7997,-5.7997,-5.7997,-5.7997,-5.7997,-5.7997,-5.7997,-5.7881,-5.7679,-5.7446,-5.7243,-5.6776,-5.604,-5.5692,-5.5029,-5.4166,-5.3693,-5.3207,-5.2783,-5.2627,-5.2531,-5.2498,-5.2498,-5.2498,-5.2462,-5.2082,-5.143,-5.0709,-5.0325,-4.9401,-4.8193,-4.7228,-4.6543,-4.6,-4.5459,-4.4971,-4.4615,-4.4615,-4.4012,-4.3392,-4.3392,-4.2608,-4.1694,-4.1288,-4.0933,-4.0578,-4.0197,-4.0096,-4.0096,-4.0096,-4.0096,-4.0096,-4.0096,-4.0096,-4.0096,-4.0096,-4.0096,-3.9995,-3.9722,-3.9696,-3.9621,-3.9402,-3.9117,-3.885,-3.8567,-3.8277,-3.8263,-3.856,-3.7805,-3.7178,-3.6761,-3.6331,-3.6022,-3.5863,-3.5752,-3.5638,-3.5504,-3.5504,-3.5504,-3.5504,-3.5504,-3.5504,-3.9164,-4.0425,-4.1437,-4.0368,-4.0807,-4.1457,-4.1342,0.0,0.0,0.0,0.0,0.0,0.0,-4.2158,0.0,-4.436,0.0,0.0,-5.2654,-5.3748,-5.4775,-5.6332,-5.6562,-5.6835,-5.7504,-5.7697,-5.7768,-5.7768,-5.7886,-5.7973,-5.795,-5.7973,-5.7997,-5.7973,-5.7845,-5.779,-5.779,-5.7656,-5.723,-5.6552,-5.6309,-5.5842,-5.5149,-5.4364,-5.3981,-5.392,-5.299,-5.2676,-5.2761,-5.2572,-5.2498,-5.2498,-5.2498,-5.2498,-5.2389,-5.1593,-5.0778,-4.9985,-4.9039,-4.8257,-4.7636,-4.7151,-4.6595,-4.6017,-4.5563,-4.5052,-4.4615,-4.4615,-4.4012,-4.3358,-4.324,-4.2236,-4.117,-4.1068,-4.0544,-4.0096,-4.0096,-4.0096,-4.0096,-4.0096,-4.0096,-4.0096,-4.0096,-4.0096,-4.0096,-4.0096,-4.0096,-3.9876,-3.9286,-3.9206,-3.8947,-3.8238,-3.7725,-3.7358,-3.7268,-3.6785,-3.6738,-3.7307,-3.7163,-3.676,-3.6163,-3.599,-3.5846,-3.5671,-3.5671,-3.5621,-3.5504,-3.5504,-3.5504,-3.5504,-3.5504,-3.5504,-3.99,-4.1323,-4.2049,-3.9775,-4.0368,-4.1323,-4.0635,0.0,0.0,0.0,0.0,0.0,0.0,-4.3133,-4.4348,0.0,0.0,-5.0866,0.0,0.0,-5.552,-5.6926,-5.7279,-5.7407,-5.7437,-5.7553,-5.7625,-5.7625,-5.7745,-5.7768,-5.7673,-5.7881,-5.795,-5.7839,-5.718,-5.6813,-5.6813,-5.6698,-5.6226,-5.5441,-5.5283,-5.4836,-5.4132,-5.4041,-5.3581,-5.284,-5.2667,-5.2613,-5.2631,-5.2549,-5.2498,-5.2498,-5.2498,-5.2498,-5.2389,-5.1593,-5.0778,-4.9894,-4.8405,-4.7808,-4.7696,-4.7615,-4.6908,-4.6074,-4.6,-4.5337,-4.4615,-4.4615,-4.4012,-4.324,-4.2625,-4.1847,-4.1035,-4.0434,-4.018,-4.0096,-4.0096,-4.0096,-4.0096,-4.0096,-4.0096,-4.0096,-4.0096,-4.0096,-4.0096,-4.0096,-4.0096,-3.9876,-3.9286,-3.9206,-3.8783,-3.7666,-3.7476,-3.7178,-3.6693,-3.6554,-3.6538,-3.6645,-3.6458,-3.6176,-3.5784,-3.5636,-3.5554,-3.5522,-3.5522,-3.5537,-3.5504,-3.5504,-3.5504,-3.5504,-3.5504,-3.5504,-3.8782,-3.9794,-4.0549,-3.966,-4.1501,-4.3329,-4.2478,-4.1815,0.0,0.0,0.0,0.0,0.0,0.0,-4.6081,-4.8676,0.0,-5.1475,-5.3022,-5.3522,-5.4143,-5.5184,-5.5783,-5.6273,-5.6599,-5.7158,-5.7486,-5.7486,-5.7625,-5.7673,-5.7601,-5.7721,-5.7591,-5.717,-5.6721,-5.6053,-5.5195,-5.5098,-5.4893,-5.4556,-5.4389,-5.3901,-5.319,-5.319,-5.2972,-5.259,-5.2559,-5.2581,-5.259,-5.2526,-5.2498,-5.2498,-5.2498,-5.2226,-5.1701,-5.047,-4.9492,-4.8695,-4.7971,-4.7717,-4.7657,-4.7363,-4.673,-4.6067,-4.5767,-4.5169,-4.4615,-4.4615,-4.3724,-4.2726,-4.2388,-4.1441,-4.051,-4.018,-4.0096,-4.0096,-4.0096,-4.0096,-4.0096,-4.0096,-4.0096,-4.0096,-4.0096,-4.0096,-4.0096,-4.0096,-3.9825,-3.9391,-3.8794,-3.8423,-3.7883,-3.7013,-3.6922,-3.68,-3.6523,-3.6492,-3.6429,-3.6226,-3.6132,-3.5941,-3.5604,-3.5522,-3.5504,-3.5504,-3.5504,-3.5504,-3.5504,-3.5504,-3.5504,-3.5504,-3.5504,-3.5504,-3.819,-3.8801,-3.9442,-4.0045,-4.2318,-4.4302,-4.3888,-4.3012,0.0,0.0,0.0,0.0,0.0,-4.5727,0.0,-5.0803,-5.1486,-5.1928,-5.2772,-5.2803,-5.3078,-5.3892,-5.4526,-5.5196,-5.5921,-5.6654,-5.7139,-5.7338,-5.7298,-5.7261,-5.7237,-5.7121,-5.681,-5.63,-5.5965,-5.5226,-5.4009,-5.3727,-5.3613,-5.3649,-5.3497,-5.3106,-5.2563,-5.2526,-5.2526,-5.2563,-5.2526,-5.2531,-5.2563,-5.2526,-5.2498,-5.2498,-5.2498,-5.1882,-5.085,-4.942,-4.8384,-4.7717,-4.7717,-4.7717,-4.7636,-4.7214,-4.6637,-4.6024,-4.5614,-4.5062,-4.4615,-4.4615,-4.3606,-4.2557,-4.2557,-4.1576,-4.057,-4.0417,-4.0231,-4.0096,-4.0096,-4.0096,-4.0096,-4.0096,-4.0096,-4.0096,-4.0096,-4.0096,-4.0096,-4.0096,-3.9592,-3.8974,-3.8379,-3.7767,-3.7178,-3.6554,-3.6492,-3.6492,-3.6492,-3.6492,-3.6367,-3.6037,-3.6005,-3.5861,-3.5504,-3.5504,-3.5504,-3.5504,-3.5504,-3.5504,-3.5504,-3.5504,-3.5504,-3.5504,-3.5504,-3.5504,-3.9671,-4.0148,-4.0396,-4.117,-4.1581,-4.2015,-4.2956,-4.2725,0.0,-4.4228,0.0,0.0,0.0,-4.7187,-4.914,-5.0231,-5.152,-5.2707,-5.3585,-5.3655,-5.3911,-5.4725,-5.487,-5.5196,-5.5921,-5.6072,-5.6416,-5.7159,-5.6648,-5.6255,-5.6133,-5.566,-5.534,-5.5285,-5.4519,-5.4041,-5.3991,-5.3071,-5.2594,-5.2594,-5.2594,-5.2552,-5.2521,-5.2498,-5.2498,-5.2521,-5.2498,-5.2498,-5.2521,-5.2498,-5.2498,-5.2498,-5.2498,-5.1538,-5.0093,-4.922,-4.8384,-4.7717,-4.7717,-4.7717,-4.7678,-4.7657,-4.6931,-4.6098,-4.6049,-4.5363,-4.4615,-4.4615,-4.3978,-4.3308,-4.3308,-4.2726,-4.1965,-4.1288,-4.0595,-4.0096,-4.0096,-4.0096,-4.0096,-4.0096,-4.0096,-4.0096,-4.0096,-4.0096,-4.0096,-4.0096,-3.9592,-3.8974,-3.8379,-3.7767,-3.7178,-3.6554,-3.6492,-3.6492,-3.6492,-3.6492,-3.6367,-3.6037,-3.6005,-3.5861,-3.5504,-3.5504,-3.5504,-3.5504,-3.5504,-3.5504,-3.5504,-3.5504,-3.5504,-3.5504,-3.5504,-3.5504,-3.9164,-3.9728,-4.0276,-4.1449,-4.2112,0.0,0.0,-4.4449,-4.4909,-4.5513,-4.6295,0.0,0.0,0.0,-4.9956,-5.079,-5.1819,-5.263,-5.2948,-5.2956,-5.3078,-5.3367,-5.3856,-5.4255,-5.4544,-5.5015,-5.5432,-5.5758,-5.5535,-5.5372,-5.5323,-5.513,-5.4784,-5.435,-5.3979,-5.358,-5.3131,-5.2717,-5.2498,-5.2498,-5.2498,-5.2498,-5.2498,-5.2498,-5.2498,-5.2498,-5.2498,-5.2498,-5.2498,-5.2498,-5.2498,-5.2389,-5.1393,-5.0325,-4.9257,-4.846,-4.795,-4.7717,-4.7717,-4.7717,-4.7636,-4.7302,-4.6931,-4.6478,-4.58,-4.5346,-4.4954,-4.4665,-4.4395,-4.4028,-4.3538,-4.2523,-4.1542,-4.1271,-4.0629,-4.0096,-4.0096,-4.0096,-4.0096,-4.0096,-4.0096,-4.0096,-4.0096,-4.0096,-4.0096,-4.0096,-3.9269,-3.8574,-3.8351,-3.746,-3.6754,-3.6523,-3.6492,-3.6492,-3.6492,-3.6492,-3.6367,-3.6037,-3.6005,-3.5861,-3.5504,-3.5504,-3.5504,-3.5504,-3.5504,-3.5504,-3.5504,-3.5504,-3.5504,-3.5504,-3.5504,-3.5504,-3.847,-3.9123,-4.0102,-4.1204,0.0,0.0,-4.5251,-4.5923,-4.6385,-4.718,-4.7922,-4.8632,-4.9222,0.0,0.0,-5.1158,-5.1973,-5.2498,-5.2498,-5.2498,-5.2498,-5.2498,-5.2987,-5.3422,-5.3675,-5.42,-5.4635,-5.4888,-5.4671,-5.4526,-5.4526,-5.4291,-5.3922,-5.3444,-5.3365,-5.3093,-5.259,-5.2531,-5.2498,-5.2498,-5.2498,-5.2498,-5.2498,-5.2498,-5.2498,-5.2498,-5.2498,-5.2498,-5.2498,-5.2498,-5.2353,-5.1955,-5.0343,-4.9383,-4.88,-4.8007,-4.7717,-4.7717,-4.7717,-4.7717,-4.7636,-4.7258,-4.7039,-4.673,-4.5843,-4.5433,-4.5188,-4.4748,-4.4615,-4.4479,-4.3927,-4.2844,-4.1897,-4.1897,-4.1322,-4.0739,-4.0519,-4.0468,-4.0383,-4.0146,-4.0096,-4.0096,-4.0096,-4.0096,-4.0096,-4.0096,-3.9263,-3.8618,-3.8618,-3.7741,-3.7138,-3.7138,-3.7138,-3.7138,-3.7138,-3.7138,-3.6904,-3.6339,-3.6324,-3.6073,-3.5519,-3.5504,-3.5504,-3.5504,-3.5504,-3.5504,-3.5504,-3.5504,-3.5504,-3.5504,-3.5714,-3.5818,-3.7848,-3.8593,-4.0034,-4.0509,0.0,0.0,-4.6783,-4.679,-4.6832,-4.9307,-4.9617,-4.9543,-5.0014,-5.0112,-5.0383,-5.1158,-5.1973,-5.2498,-5.2498,-5.2498,-5.2498,-5.2498,-5.2498,-5.2806,-5.3603,-5.3693,-5.4019,-5.4834,-5.4146,-5.3693,-5.3693,-5.2933,-5.2531,-5.2608,-5.2531,-5.2531,-5.259,-5.2531,-5.2498,-5.2498,-5.2498,-5.2498,-5.2498,-5.2498,-5.2498,-5.248,-5.2498,-5.2498,-5.248,-5.248,-5.2009,-5.1122,-4.9528,-4.8891,-4.8782,-4.7986,-4.7717,-4.7717,-4.7717,-4.7717,-4.7717,-4.7717,-4.7341,-4.6817,-4.6244,-4.5724,-4.5214,-4.4748,-4.4615,-4.4615,-4.4615,-4.4012,-4.3392,-4.3392,-4.2844,-4.21,-4.1373,-4.1204,-4.0984,-4.0248,-4.0096,-4.0096,-4.0113,-4.0096,-4.0096,-4.013,-3.9666,-3.9289,-3.9305,-3.8842,-3.8523,-3.8523,-3.8539,-3.8539,-3.8539,-3.8523,-3.81,-3.7086,-3.7008,-3.6557,-3.5534,-3.5504,-3.5504,-3.5504,-3.5519,-3.5519,-3.5519,-3.5519,-3.5534,-3.5534,-3.6193,-3.6492,-3.8813,-3.9829,0.0,-4.2171,0.0,0.0,0.0,-4.7812,0.0,0.0,-5.0375,-5.0119,-5.0822,-5.0923,-5.1036,-5.1249,-5.1973,-5.2498,-5.2498,-5.2498,-5.2498,-5.2498,-5.2498,-5.2589,-5.2824,-5.286,-5.2951,-5.3186,-5.2987,-5.286,-5.286,-5.2625,-5.2503,-5.2531,-5.2503,-5.2503,-5.2531,-5.2503,-5.2498,-5.2498,-5.2498,-5.2498,-5.2498,-5.2498,-5.219,-5.1683,-5.2245,-5.2172,-5.1647,-5.1647,-5.1176,-5.0365,-4.9311,-4.8547,-4.8022,-4.7787,-4.7717,-4.7717,-4.7717,-4.7717,-4.7717,-4.7717,-4.7593,-4.728,-4.6382,-4.5975,-4.5691,-4.4841,-4.4615,-4.4615,-4.4615,-4.4429,-4.4096,-4.3511,-4.2844,-4.21,-4.1373,-4.1204,-4.0984,-4.0248,-4.0096,-4.0265,-4.0781,-4.0426,-4.0451,-4.15,-4.0309,-3.9319,-3.9422,-3.9309,-3.9367,-3.9844,-3.9905,-3.9905,-3.9905,-3.9342,-3.8806,-3.8421,-3.7392,-3.6393,-3.5534,-3.5504,-3.5504,-3.5504,-3.5953,-3.6193,-3.6193,-3.6626,-3.6851,-3.6851,-3.7045,-3.7135,-3.976,-4.0891,0.0,-4.3468,-4.506,-4.6893,-4.8857,0.0,0.0,0.0,-5.126,-5.0903,-5.1683,-5.1529,-5.1393,-5.1719,-5.2172,-5.2498,-5.2498,-5.2498,-5.2498,-5.2498,-5.2498,-5.2498,-5.2498,-5.2498,-5.2498,-5.2498,-5.2498,-5.2498,-5.2498,-5.2498,-5.2498,-5.2498,-5.2498,-5.2498,-5.2498,-5.2498,-5.2498,-5.2498,-5.2172,-5.2009,-5.2009,-5.2009,-5.1756,-5.1321,-5.181,-5.1556,-5.0836,-5.0836,-5.0343,-4.9546,-4.8749,-4.8113,-4.7717,-4.7717,-4.7717,-4.7717,-4.7717,-4.7717,-4.7717,-4.7717,-4.7717,-4.7533,-4.6683,-4.6286,-4.5943,-4.5115,-4.4731,-4.4615,-4.4615,-4.4615,-4.4496,-4.3995,-4.3301,-4.254,-4.1796,-4.1407,-4.0984,-4.0248,-4.035,-4.0679,-4.1119,-4.1068,-4.128,-4.2151,-4.1069,-4.0064,-3.9939,-3.989,-4.0043,-4.0459,-4.0489,-4.0489,-4.0489,-4.0036,-3.9512,-3.9047,-3.8137,-3.721,-3.6282,-3.6028,-3.5893,-3.5893,-3.6522,-3.6851,-3.6851,-3.7225,-3.7404,-3.7419,-3.7674,-3.7808,-4.0603,-4.1745,0.0,-4.45,-4.614,0.0,-5.038,-5.1435,-5.2081,-5.259,0.0,-5.1809,-5.2481,-5.1955,-5.1647,-5.2371,-5.2498,-5.2498,-5.2498,-5.2498,-5.2498,-5.2498,-5.2498,-5.2498,-5.2498,-5.2498,-5.2498,-5.2498,-5.2498,-5.2498,-5.2498,-5.2498,-5.2498,-5.2498,-5.2498,-5.2498,-5.2498,-5.2426,-5.2426,-5.248,-5.1665,-5.1285,-5.1285,-5.1212,-5.1176,-5.1176,-5.1104,-5.0705,-5.0093,-5.0021,-4.9564,-4.8818,-4.8004,-4.7717,-4.7717,-4.7717,-4.7717,-4.7717,-4.7717,-4.7717,-4.7717,-4.7717,-4.7717,-4.7593,-4.6999,-4.6478,-4.5975,-4.5381,-4.4917,-4.4615,-4.4615,-4.4615,-4.4581,-4.4513,-4.3927,-4.3217,-4.2455,-4.1762,-4.1085,-4.035,-4.0798,-4.1322,-4.139,-4.1897,-4.2277,-4.2237,-4.1811,-4.1278,-4.0696,-4.0597,-4.0612,-4.0674,-4.0689,-4.0689,-4.0689,-4.0628,-4.0182,-3.9245,-3.9059,-3.8519,-3.7524,-3.6911,-3.6567,-3.6567,-3.718,-3.7494,-3.7494,-3.7554,-3.7584,-3.7614,-3.8197,-3.8482,-4.0919,-4.2267,0.0,0.0,-4.7997,-5.0306,-5.1481,-5.2341,-5.2718,-5.2136,-5.2196,-5.2409,-5.2572,-5.2409,-5.2299,-5.2462,-5.2498,-5.2498,-5.2498,-5.2498,-5.2498,-5.2498,-5.2498,-5.2498,-5.2498,-5.2498,-5.2498,-5.2498,-5.2498,-5.2498,-5.2498,-5.2498,-5.2498,-5.2498,-5.2498,-5.2498,-5.2498,-5.1864,-5.1864,-5.248,-5.1665,-5.1285,-5.1267,-5.0655,-5.0365,-5.0307,-4.9691,-4.9673,-5.0057,-4.942,-4.9075,-4.8818,-4.8004,-4.7717,-4.7717,-4.7717,-4.7717,-4.7717,-4.7717,-4.7717,-4.7717,-4.7717,-4.7717,-4.7511,-4.6548,-4.6189,-4.5918,-4.5015,-4.4665,-4.4615,-4.4615,-4.4615,-4.4445,-4.3809,-4.3538,-4.3217,-4.2455,-4.2168,-4.1847,-4.1102,-4.1559,-4.2252,-4.2817,-4.2591,-4.2131,-4.1668,-4.1963,-4.2029,-4.1438,-4.137,-4.1571,-4.2109,-4.2171,-4.2171,-4.2171,-4.1505,-4.096,-4.0608,-3.9415,-3.8592,-3.8182,-3.7554,-3.721,-3.721,-3.7838,-3.8182,-3.8182,-3.8721,-3.899,-3.8955,-3.9125,-3.92,-4.1678,0.0,0.0,-4.7202,0.0,-5.0912,-5.1334,-5.205,-5.2378,-5.1509,-5.205,-5.2698,-5.2698,-5.2577,-5.2498,-5.2498,-5.2498,-5.2498,-5.2498,-5.2498,-5.2498,-5.2498,-5.2498,-5.2498,-5.2498,-5.2498,-5.2498,-5.2498,-5.2498,-5.2498,-5.2498,-5.2498,-5.2498,-5.2498,-5.2498,-5.2317,-5.1919,-5.1882,-5.1882,-5.1919,-5.1104,-5.0307,-4.9582,-4.9546,-4.9311,-4.8949,-4.8912,-4.8931,-4.8949,-4.8912,-4.8656,-4.8275,-4.7859,-4.7717,-4.7717,-4.7717,-4.7717,-4.7717,-4.7717,-4.7717,-4.7717,-4.7717,-4.7717,-4.7554,-4.673,-4.631,-4.5943,-4.5152,-4.4759,-4.4615,-4.4615,-4.4615,-4.4412,-4.3578,-4.3149,-4.2675,-4.1931,-4.1762,-4.166,-4.1271,-4.2083,-4.2963,-4.3325,-4.3104,-4.2663,-4.2014,-4.198,-4.1783,-4.1171,-4.1078,-4.1217,-4.1571,-4.1601,-4.1601,-4.1601,-4.1172,-4.0781,-4.0563,-3.9753,-3.9184,-3.8886,-3.8556,-3.8212,-3.7883,-3.8542,-3.8886,-3.8886,-3.9245,-3.9388,-3.9388,-3.9388,-3.9388,-4.2278,0.0,-4.5177,-4.8714,-5.0086,0.0,-5.0765,-5.1316,-5.1591,-5.0949,-5.1773,-5.2627,-5.2605,-5.2554,-5.2503,-5.2498,-5.2498,-5.2498,-5.2498,-5.2498,-5.2498,-5.2498,-5.2498,-5.2498,-5.2498,-5.2498,-5.2498,-5.2498,-5.2498,-5.2498,-5.2498,-5.2498,-5.2498,-5.2498,-5.2371,-5.1973,-5.1303,-5.181,-5.181,-5.1285,-5.0492,-4.9329,-4.7935,-4.8438,-4.8312,-4.7732,-4.8384,-4.8312,-4.7753,-4.842,-4.8294,-4.7717,-4.7717,-4.7717,-4.7717,-4.7717,-4.7717,-4.7717,-4.7717,-4.7717,-4.7717,-4.7717,-4.7717,-4.7575,-4.6954,-4.6454,-4.5975,-4.5346,-4.4906,-4.4615,-4.4615,-4.4615,-4.4412,-4.3578,-4.2929,-4.2286,-4.1542,-4.1491,-4.1593,-4.1593,-4.2692,-4.3623,-4.3623,-4.3657,-4.3453,-4.2769,-4.2109,-4.1426,-4.0783,-4.0593,-4.0489,-4.0489,-4.0489,-4.0489,-4.0489,-4.0489,-4.0366,-4.0031,-4.0011,-3.9818,-3.9424,-3.9388,-3.9155,-3.8571,-3.9125,-3.9388,-3.9388,-3.9388,-3.9388,-3.9388,-3.9388,-3.9388,-4.195,0.0,-4.6566,0.0,-4.9684,-4.9941,0.0,0.0,-5.093,0.0,-5.1396,-5.1892,-5.1788,-5.2203,-5.2581,-5.2503,-5.2498,-5.2498,-5.2498,-5.2498,-5.2498,-5.2498,-5.2498,-5.2498,-5.2498,-5.2498,-5.2498,-5.2498,-5.2498,-5.2498,-5.2498,-5.2498,-5.2498,-5.2498,-5.181,-5.1411,-5.1285,-5.0728,-5.0728,-5.1285,-5.0492,-4.9619,-4.871,-4.8113,-4.7808,-4.7717,-4.7805,-4.7808,-4.7717,-4.7826,-4.7808,-4.7717,-4.7717,-4.7717,-4.7717,-4.7717,-4.7717,-4.7717,-4.7717,-4.7717,-4.7717,-4.7717,-4.7717,-4.7511,-4.6501,-4.6165,-4.5893,-4.4961,-4.4654,-4.4615,-4.4615,-4.4615,-4.4412,-4.3578,-4.3308,-4.3064,-4.2303,-4.2658,-4.3105,-4.3105,-4.3826,-4.4445,-4.4445,-4.4446,-4.4207,-4.3482,-4.28,-4.2109,-4.1459,-4.087,-4.0489,-4.0489,-4.0489,-4.0489,-4.0489,-4.0489,-4.0366,-4.0031,-4.0011,-3.9818,-3.9424,-3.9388,-3.9379,-3.929,-3.9328,-3.9388,-3.9388,-3.9388,-3.9388,-3.9388,-3.9388,-3.9388,-4.2753,-4.4556,-4.619,0.0,-4.9243,-4.9574,-4.9426,-4.9774,-4.9976,-4.9499,-5.0395,-5.1339,-5.1636,-5.2258,-5.2694,-5.2581,-5.2559,-5.2554,-5.2521,-5.2498,-5.2498,-5.2498,-5.2498,-5.2498,-5.2498,-5.2498,-5.2299,-5.1846,-5.1828,-5.1828,-5.1828,-5.1828,-5.2027,-5.248,-5.2154,-5.1538,-5.0655,-5.0728,-5.0488,-4.9945,-4.9601,-4.9021,-4.8224,-4.7859,-4.7717,-4.7717,-4.7717,-4.7717,-4.7717,-4.7717,-4.7717,-4.7717,-4.7717,-4.7717,-4.7717,-4.7717,-4.7717,-4.7717,-4.7717,-4.7717,-4.7717,-4.7717,-4.7717,-4.7572,-4.6776,-4.6334,-4.5943,-4.5205,-4.4814,-4.4615,-4.4615,-4.4615,-4.4412,-4.3578,-4.3741,-4.3859,-4.3081,-4.3183,-4.3511,-4.3978,-4.435,-4.4615,-4.4615,-4.4253,-4.3752,-4.3045,-4.2363,-4.1706,-4.1024,-4.0681,-4.0489,-4.0489,-4.0489,-4.0489,-4.0489,-4.0489,-4.0401,-4.0172,-4.0066,-3.9854,-3.9589,-3.9445,-3.9388,-3.9388,-3.9388,-3.9388,-3.9388,-3.9388,-3.9388,-3.9388,-3.9388,-3.9388,-4.3068,-4.4308,-4.5199,-4.7278,-4.8401,-4.8838,0.0,0.0,-4.9077,-4.8434,-4.9462,-5.0653,-5.1158,-5.2111,-5.2806,-5.2676,-5.2613,-5.2586,-5.2531,-5.2503,-5.2498,-5.2498,-5.2498,-5.2498,-5.2498,-5.2317,-5.1937,-5.1339,-5.1104,-5.1017,-5.1017,-5.1017,-5.1267,-5.1864,-5.1683,-5.1013,-4.98,-5.0379,-5.009,-4.8891,-4.8891,-4.8475,-4.7717,-4.7717,-4.7717,-4.7717,-4.7717,-4.7717,-4.7717,-4.7717,-4.7717,-4.7717,-4.7717,-4.7717,-4.7717,-4.7717,-4.7717,-4.7717,-4.7717,-4.7717,-4.7717,-4.7717,-4.7717,-4.7575,-4.6908,-4.6406,-4.595,-4.5294,-4.4879,-4.4615,-4.4615,-4.4615,-4.4462,-4.3859,-4.4147,-4.4445,-4.3842,-4.3707,-4.3876,-4.4496,-4.4615,-4.4615,-4.4615,-4.4133,-4.3558,-4.2862,-4.2173,-4.1525,-4.0836,-4.0627,-4.0489,-4.0489,-4.0489,-4.0489,-4.0489,-4.047,-4.0401,-4.0312,-4.0066,-3.9854,-3.9717,-3.9517,-3.9388,-3.9388,-3.9388,-3.9388,-3.9388,-3.9388,-3.9388,-3.9388,-3.9388,-3.9388,-4.1977,-4.2949,-4.3826,-4.5962,-4.687,0.0,0.0,0.0,-4.8361,-4.8324,-4.9022,-4.9684,-4.9701,-5.1527,-5.2955,-5.2806,-5.2676,-5.259,-5.2608,-5.2531,-5.2498,-5.2498,-5.2498,-5.2498,-5.2498,-5.181,-5.1339,-5.1285,-5.0578,-5.0166,-5.0166,-5.0166,-5.0184,-5.022,-4.9492,-4.9036,-4.8945,-4.8999,-4.8981,-4.8891,-4.8891,-4.8475,-4.7717,-4.7717,-4.7717,-4.7717,-4.7717,-4.7717,-4.7717,-4.7717,-4.7717,-4.7717,-4.7717,-4.7717,-4.7717,-4.7717,-4.7717,-4.7717,-4.7717,-4.7717,-4.7717,-4.7717,-4.7717,-4.7511,-4.6454,-4.6123,-4.5893,-4.4906,-4.4626,-4.4615,-4.4615,-4.4615,-4.4598,-4.4564,-4.4581,-4.4598,-4.4564,-4.4547,-4.4564,-4.4598,-4.4615,-4.4615,-4.4615,-4.457,-4.431,-4.3542,-4.2892,-4.2205,-4.1525,-4.0904,-4.0489,-4.0489,-4.0489,-4.0489,-4.0489,-4.0366,-4.0312,-4.0312,-3.9945,-3.9717,-3.9681,-3.9517,-3.9388,-3.9388,-3.9388,-3.9388,-3.9388,-3.9388,-3.9388,-3.9388,-3.9388,-3.9388,-4.0916,-4.1968,0.0,-4.5013,-4.595,-4.6636,-4.7463,-4.7995,-4.8306,-4.8306,-4.8985,-4.961,-4.961,-5.1112,-5.2315,-5.2188,-5.2477,-5.2698,-5.2613,-5.2554,-5.2498,-5.2498,-5.2498,-5.2498,-5.2498,-5.1756,-5.1086,-5.056,-4.9782,-4.9329,-4.9329,-4.9329,-4.9564,-5.0093,-4.9818,-4.942,-4.8909,-4.8384,-4.8113,-4.8113,-4.8113,-4.7968,-4.7717,-4.7717,-4.7717,-4.7717,-4.7717,-4.7717,-4.7717,-4.7717,-4.7717,-4.7717,-4.7717,-4.7717,-4.7717,-4.7717,-4.7717,-4.7717,-4.7717,-4.7717,-4.7717,-4.7717,-4.7717,-4.7554,-4.6822,-4.6382,-4.595,-4.5258,-4.4824,-4.4615,-4.4615,-4.4615,-4.4615,-4.4615,-4.4615,-4.4615,-4.4615,-4.4615,-4.4615,-4.4615,-4.4615,-4.4615,-4.4615,-4.4615,-4.4207,-4.3045,-4.2629,-4.2109,-4.099,-4.0646,-4.0489,-4.0489,-4.0489,-4.0489,-4.0489,-4.047,-4.0436,-4.0436,-4.0086,-3.9889,-3.9889,-3.9568,-3.9388,-3.9388,-3.9388,-3.9388,-3.9388,-3.9388,-3.9388,-3.9388,-3.9388,-3.9388,-3.9798,-4.0892,0.0,0.0,0.0,-4.5293,-4.7261,-4.7573,-4.7664,-4.8196,-4.8765,-4.915,-4.915,-5.027,-5.1332,-5.1781,-5.2425,-5.2828,-5.2698,-5.2581,-5.2526,-5.2498,-5.2498,-5.2498,-5.2498,-5.1756,-5.0981,-5.0166,-4.9347,-4.8764,-4.8511,-4.8493,-4.8749,-4.9275,-4.9293,-4.9039,-4.8493,-4.7989,-4.7717,-4.7717,-4.7717,-4.7717,-4.7717,-4.7717,-4.7717,-4.7717,-4.7717,-4.7717,-4.7717,-4.7717,-4.7717,-4.7717,-4.7717,-4.7717,-4.7717,-4.7717,-4.7717,-4.7717,-4.7717,-4.7717,-4.7717,-4.7717,-4.7717,-4.7572,-4.6863,-4.6382,-4.5968,-4.5241,-4.4824,-4.4615,-4.4615,-4.4615,-4.4615,-4.4615,-4.4615,-4.4615,-4.4615,-4.4615,-4.4615,-4.4615,-4.4615,-4.4615,-4.4615,-4.4615,-4.4121,-4.2707,-4.252,-4.2029,-4.0681,-4.0489,-4.0489,-4.0489,-4.0489,-4.0489,-4.0489,-4.0401,-4.0366,-4.0436,-4.0031,-3.9818,-3.9889,-3.9568,-3.9388,-3.9388,-3.9388,-3.9388,-3.9388,-3.9388,-3.9388,-3.9388,-3.9388,-3.9388,0.0,0.0,0.0,0.0,0.0,0.0,-4.7463,0.0,-4.6287,-4.7939,-4.8251,-4.8251,-4.8306,-4.9003,-5.0106,-5.1665,-5.2517,-5.2919,-5.2828,-5.2698,-5.2563,-5.2503,-5.2498,-5.2498,-5.2498,-5.1756,-5.0981,-5.0166,-4.9347,-4.8547,-4.7732,-4.7717,-4.7717,-4.7717,-4.7717,-4.7717,-4.7717,-4.7717,-4.7717,-4.7717,-4.7717,-4.7717,-4.7717,-4.7717,-4.7717,-4.7717,-4.7717,-4.7699,-4.7681,-4.7678,-4.7699,-4.7681,-4.7678,-4.7699,-4.7681,-4.7678,-4.7717,-4.7717,-4.7717,-4.7717,-4.7717,-4.7717,-4.7717,-4.7511,-4.643,-4.6098,-4.5893,-4.4896,-4.4615,-4.4615,-4.4615,-4.4615,-4.4615,-4.4615,-4.4615,-4.4615,-4.4615,-4.4615,-4.4615,-4.4615,-4.4615,-4.4615,-4.4615,-4.4615,-4.4121,-4.2707,-4.252,-4.2029,-4.0681,-4.0489,-4.0489,-4.0489,-4.0489,-4.0489,-4.0489,-4.0207,-4.0101,-4.0312,-3.9747,-3.9517,-3.9681,-3.9517,-3.9388,-3.9388,-3.9388,-3.9388,-3.9388,-3.9388,-3.9388,-3.9388,-3.9388,-3.9388,-3.7715,0.0,0.0,0.0,0.0,0.0,0.0,-4.4611,-4.4782,-4.6966,-4.6985,-4.6929,-4.8104,-4.9003,-4.9757,-5.0198,-5.1326,-5.2319,-5.2864,-5.2743,-5.259,-5.2563,-5.2531,-5.2498,-5.2498,-5.1756,-5.0981,-5.0166,-4.9347,-4.8547,-4.7732,-4.7717,-4.7717,-4.7717,-4.7717,-4.7717,-4.7717,-4.7717,-4.7717,-4.7717,-4.7717,-4.7717,-4.7717,-4.7717,-4.7717,-4.7717,-4.7717,-4.7373,-4.6884,-4.7464,-4.7373,-4.6902,-4.7461,-4.7355,-4.6902,-4.75,-4.7717,-4.7717,-4.7717,-4.7717,-4.7717,-4.7717,-4.7717,-4.7511,-4.643,-4.6098,-4.5893,-4.4896,-4.4615,-4.4615,-4.4615,-4.4615,-4.4615,-4.4615,-4.4615,-4.4615,-4.4615,-4.4615,-4.4615,-4.4615,-4.4615,-4.4615,-4.4615,-4.4615,-4.4121,-4.2707,-4.252,-4.2029,-4.0681,-4.0489,-4.0489,-4.0489,-4.0489,-4.0489,-4.0489,-4.042,-4.0401,-4.0436,-4.0051,-3.9854,-3.9925,-3.9604,-3.9388,-3.9388,-3.9388,-3.9388,-3.9388,-3.9388,-3.9388,-3.9388,-3.9388,-3.9388,-3.7953,-3.8476,0.0,0.0,0.0,0.0,-4.3693,-4.3634,-4.3773,-4.6526,-4.6727,-4.6801,-4.8067,-4.8728,-4.9169,-4.9537,-5.0321,-5.1247,-5.234,-5.2609,-5.2676,-5.2613,-5.2531,-5.2498,-5.2498,-5.2063,-5.1321,-5.0202,-4.9673,-4.8912,-4.7772,-4.7717,-4.7717,-4.7717,-4.7717,-4.7717,-4.7717,-4.7717,-4.7717,-4.7717,-4.7717,-4.7717,-4.7717,-4.7717,-4.7717,-4.7717,-4.7717,-4.7246,-4.654,-4.7011,-4.6739,-4.6087,-4.6902,-4.692,-4.6613,-4.7409,-4.7717,-4.7717,-4.7717,-4.7717,-4.7717,-4.7717,-4.7717,-4.7533,-4.6683,-4.6286,-4.5943,-4.5115,-4.4759,-4.4615,-4.4615,-4.4615,-4.4615,-4.4615,-4.4615,-4.4615,-4.4615,-4.4615,-4.4615,-4.4615,-4.4615,-4.4615,-4.4615,-4.4615,-4.4121,-4.2707,-4.252,-4.2029,-4.0681,-4.0489,-4.0489,-4.0489,-4.0489,-4.0489,-4.0489,-4.047,-4.0401,-4.0401,-4.0101,-3.9889,-3.9889,-3.9568,-3.9388,-3.9388,-3.9388,-3.9388,-3.9388,-3.9388,-3.9388,-3.9388,-3.9388,-3.9388,-3.9028,-3.9077,0.0,-4.1107,-4.0318,0.0,-4.3656,-4.321,-4.2928,-4.6049,-4.6636,-4.6856,-4.7865,-4.8031,-4.8288,-4.906,-4.9335,-4.9993,-5.1483,-5.2272,-5.2656,-5.2508,-5.2499,-5.2521,-5.2498,-5.2498,-5.1828,-5.022,-4.9949,-4.9202,-4.779,-4.7717,-4.7717,-4.7717,-4.7717,-4.7717,-4.7717,-4.7717,-4.7717,-4.7717,-4.7717,-4.7717,-4.7717,-4.7717,-4.7717,-4.7717,-4.7627,-4.712,-4.6359,-4.6269,-4.5816,-4.5254,-4.6051,-4.6305,-4.6341,-4.7156,-4.75,-4.7572,-4.7572,-4.7645,-4.7717,-4.7717,-4.7717,-4.7615,-4.7062,-4.6543,-4.5992,-4.5381,-4.4917,-4.4615,-4.4615,-4.4615,-4.4615,-4.4615,-4.4615,-4.4615,-4.4615,-4.4615,-4.4615,-4.4615,-4.4615,-4.4615,-4.4615,-4.4542,-4.4018,-4.2707,-4.2426,-4.1917,-4.0646,-4.0489,-4.0489,-4.0489,-4.0489,-4.0489,-4.0489,-4.0401,-4.0312,-4.0312,-3.9945,-3.9732,-3.9732,-3.9517,-3.9388,-3.9388,-3.9388,-3.9388,-3.9388,-3.9388,-3.9388,-3.9388,-3.9388,-3.9388,-4.0293,-4.0561,-4.1033,-4.0698,-4.0811,0.0,-4.1049,-4.0751,-4.1153,-4.368,-4.3681,-4.3883,-4.5975,-4.6379,-4.6416,-4.6581,-4.77,-4.9132,-5.0762,-5.1556,-5.1944,-5.1799,-5.2253,-5.2559,-5.2521,-5.2498,-5.1828,-5.022,-4.8894,-4.8043,-4.7735,-4.7717,-4.7717,-4.7717,-4.7717,-4.7717,-4.7717,-4.7717,-4.7717,-4.7717,-4.7717,-4.7717,-4.7717,-4.7717,-4.7717,-4.7663,-4.7029,-4.6287,-4.549,-4.4838,-4.4476,-4.4403,-4.5218,-4.5146,-4.4675,-4.5472,-4.6178,-4.6739,-4.6739,-4.7174,-4.7717,-4.7717,-4.7717,-4.7615,-4.7062,-4.6543,-4.5918,-4.4998,-4.4682,-4.4615,-4.4615,-4.4615,-4.4615,-4.4615,-4.4615,-4.4615,-4.4615,-4.4615,-4.4615,-4.4615,-4.4615,-4.4615,-4.4615,-4.4105,-4.3423,-4.2614,-4.2046,-4.1393,-4.0593,-4.0489,-4.0489,-4.0489,-4.0489,-4.0489,-4.0489,-4.047,-4.047,-4.047,-4.0121,-3.9925,-3.9925,-3.9604,-3.9388,-3.9388,-3.9388,-3.9388,-3.9388,-3.9388,-3.9388,-3.9388,-3.9388,-3.9388,-4.1497,-4.1371,-4.1497,-4.1063,-4.0908,0.0,0.0,-4.0314,-4.0672,-4.3018,-4.2855,-4.291,-4.4929,-4.5296,-4.5424,-4.5828,-4.6911,-4.7993,-4.8837,-5.0242,-5.1331,-5.1651,-5.1883,-5.215,-5.2499,-5.2526,-5.1828,-5.022,-4.8985,-4.8113,-4.7735,-4.7717,-4.7717,-4.7717,-4.7717,-4.7717,-4.7717,-4.7717,-4.7717,-4.7717,-4.7717,-4.7717,-4.7717,-4.7717,-4.7482,-4.7083,-4.6685,-4.5816,-4.4675,-4.4258,-4.386,-4.357,-4.4385,-4.4458,-4.424,-4.5454,-4.616,-4.6558,-4.6975,-4.7373,-4.7717,-4.7717,-4.7511,-4.7258,-4.6976,-4.6334,-4.5537,-4.4814,-4.4615,-4.4615,-4.4615,-4.4615,-4.4615,-4.4615,-4.4615,-4.4615,-4.4615,-4.4615,-4.4615,-4.4615,-4.4615,-4.4615,-4.4615,-4.431,-4.381,-4.3106,-4.2426,-4.1771,-4.1075,-4.0715,-4.0489,-4.0489,-4.0489,-4.0489,-4.0489,-4.0489,-4.0489,-4.0489,-4.0207,-4.0011,-4.0011,-3.9604,-3.9388,-3.9388,-3.9388,-3.9388,-3.9388,-3.9388,-3.9388,-3.9388,-3.9388,-3.9388,-4.2674,-4.2178,-4.1969,-4.1597,-4.1085,-4.0688,0.0,0.0,0.0,-4.243,-4.2286,-4.2286,-4.3737,-4.3994,-4.4287,-4.5076,-4.5883,-4.6452,-4.6617,-4.8394,-5.0055,-5.0984,-5.1201,-5.149,-5.2063,-5.1787,-5.1104,-4.9945,-4.8985,-4.8203,-4.7735,-4.7717,-4.7717,-4.7717,-4.7717,-4.7717,-4.7717,-4.7717,-4.7717,-4.7717,-4.7717,-4.7717,-4.7678,-4.7554,-4.712,-4.6486,-4.6178,-4.5291,-4.4077,-4.3914,-4.3499,-4.2955,-4.3607,-4.386,-4.4023,-4.5327,-4.5997,-4.6359,-4.7011,-4.7446,-4.7717,-4.7717,-4.7341,-4.6863,-4.666,-4.5992,-4.5188,-4.4748,-4.4615,-4.4615,-4.4615,-4.4615,-4.4615,-4.4615,-4.4615,-4.4615,-4.4615,-4.4615,-4.4615,-4.4615,-4.4615,-4.4615,-4.4615,-4.4468,-4.4179,-4.3571,-4.2831,-4.2109,-4.1558,-4.0904,-4.0489,-4.0489,-4.0489,-4.0489,-4.0489,-4.0489,-4.0489,-4.0489,-4.0207,-4.0011,-4.0011,-3.9604,-3.9388,-3.9388,-3.9388,-3.9388,-3.9388,-3.9388,-3.9388,-3.9388,-3.9388,-3.9388,-4.3892,-4.3651,-4.3286,-4.186,-4.1971,-4.1832,-3.9574,0.0,-4.0124,-4.0281,0.0,-4.0451,-4.1334,0.0,0.0,-4.258,-4.3369,-4.4158,-4.4856,-4.581,-4.6965,-4.8443,-4.983,-5.0623,-5.0504,-4.9122,-4.8478,-4.8981,-4.7645,-4.7047,-4.7681,-4.7717,-4.7717,-4.7717,-4.7717,-4.7717,-4.7717,-4.7717,-4.7717,-4.7717,-4.7717,-4.7717,-4.7681,-4.6975,-4.6595,-4.6432,-4.4983,-4.4258,-4.4041,-4.3317,-4.2992,-4.2919,-4.301,-4.3046,-4.3064,-4.3245,-4.4204,-4.5454,-4.5544,-4.6504,-4.7717,-4.7717,-4.7341,-4.673,-4.5775,-4.5407,-4.5188,-4.4748,-4.4615,-4.4615,-4.4615,-4.4615,-4.4615,-4.4615,-4.4615,-4.4615,-4.4615,-4.4615,-4.4615,-4.4615,-4.4615,-4.4615,-4.4615,-4.4076,-4.3617,-4.3512,-4.241,-4.1591,-4.1525,-4.0904,-4.0489,-4.0489,-4.0489,-4.0489,-4.0489,-4.0489,-4.0489,-4.0489,-4.0207,-4.0011,-4.0011,-3.9604,-3.9388,-3.9388,-3.9388,-3.9388,-3.9388,-3.9388,-3.9388,-3.9388,-3.9388,-3.9388,-4.4169,-4.3835,-4.3541,-4.2345,-4.1955,-4.1456,-3.981,-3.978,-4.0065,-3.9929,0.0,0.0,0.0,0.0,0.0,0.0,-4.3369,-4.4158,-4.4011,-4.4709,-4.5792,-4.7368,-4.8115,-4.8764,-4.9446,-4.8829,-4.8529,-4.8873,-4.7823,-4.7355,-4.7681,-4.7717,-4.7717,-4.7717,-4.7717,-4.7717,-4.7717,-4.7717,-4.7717,-4.7717,-4.7717,-4.7717,-4.7681,-4.6866,-4.625,-4.5743,-4.4603,-4.3824,-4.3371,-4.3046,-4.2901,-4.2901,-4.2901,-4.2901,-4.2973,-4.3407,-4.4313,-4.5363,-4.5834,-4.6739,-4.7593,-4.6976,-4.6406,-4.5843,-4.5115,-4.4906,-4.4852,-4.4654,-4.4615,-4.4615,-4.4615,-4.4615,-4.4615,-4.4615,-4.4615,-4.4615,-4.4615,-4.4615,-4.4615,-4.4615,-4.4615,-4.4615,-4.4615,-4.4338,-4.415,-4.415,-4.297,-4.2078,-4.2078,-4.1158,-4.0489,-4.0489,-4.0489,-4.0489,-4.0489,-4.0489,-4.0489,-4.0489,-4.0207,-3.9889,-3.9676,-3.9496,-3.9388,-3.9388,-3.9388,-3.9388,-3.9388,-3.9388,-3.9388,-3.9388,-3.9388,-3.9388,-4.4494,-4.4068,-4.3754,-4.2417,-4.1675,-4.0972,-3.9822,-3.9991,-4.0366,-4.0244,-4.0625,0.0,0.0,0.0,-4.1956,-4.2525,0.0,-4.4176,-4.3588,-4.3809,-4.4562,-4.5938,-4.6451,-4.7049,-4.8038,-4.7822,-4.7832,-4.8267,-4.7518,-4.7246,-4.7681,-4.7717,-4.7717,-4.7717,-4.7717,-4.7717,-4.7717,-4.7717,-4.7717,-4.7717,-4.7717,-4.7591,-4.7355,-4.654,-4.5725,-4.4928,-4.4114,-4.3445,-4.2901,-4.2901,-4.2901,-4.2901,-4.2901,-4.2901,-4.2973,-4.3571,-4.4421,-4.5381,-4.5979,-4.6747,-4.7341,-4.6406,-4.5742,-4.5214,-4.4731,-4.4615,-4.4615,-4.4615,-4.4615,-4.4615,-4.4615,-4.4615,-4.4615,-4.4615,-4.4615,-4.4615,-4.4615,-4.4615,-4.4615,-4.4615,-4.4615,-4.4615,-4.4615,-4.4615,-4.4615,-4.4615,-4.3575,-4.2707,-4.2504,-4.1492,-4.0715,-4.0524,-4.0489,-4.0489,-4.0489,-4.0489,-4.0455,-4.0366,-4.0137,-3.9818,-3.9424,-3.9388,-3.9388,-3.9388,-3.9388,-3.9388,-3.9388,-3.9388,-3.9388,-3.9388,-3.9388,-3.9388,-4.5236,-4.4775,-4.4205,-4.183,-4.1222,-4.0783,-3.9126,-4.0,-4.1135,-4.1075,-4.2304,-4.3386,-4.3386,-4.3423,-4.3441,-4.346,-4.3515,0.0,0.0,-4.2855,-4.269,-4.3533,-4.493,-4.5846,-4.59,-4.5019,-4.5085,-4.6666,-4.5894,-4.6069,-4.7606,-4.7717,-4.7717,-4.7717,-4.7717,-4.7717,-4.7717,-4.7717,-4.7717,-4.7717,-4.7717,-4.7301,-4.6504,-4.5707,-4.4892,-4.4077,-4.33,-4.2919,-4.2901,-4.2901,-4.2901,-4.2901,-4.2901,-4.2901,-4.2901,-4.2937,-4.3932,-4.5291,-4.5327,-4.605,-4.6822,-4.6286,-4.5742,-4.5214,-4.4731,-4.4615,-4.4615,-4.4615,-4.4615,-4.4615,-4.4615,-4.4615,-4.4615,-4.4615,-4.4615,-4.4615,-4.4615,-4.4615,-4.4615,-4.4615,-4.4615,-4.4615,-4.4615,-4.4615,-4.4615,-4.4615,-4.3943,-4.3227,-4.2567,-4.1901,-4.1209,-4.0558,-4.0489,-4.0489,-4.0489,-4.0489,-4.0366,-4.0046,-4.0011,-3.9818,-3.9424,-3.9388,-3.9388,-3.9388,-3.9388,-3.9388,-3.9388,-3.9388,-3.9388,-3.9388,-3.9388,-3.9388,-4.4891,-4.4726,-4.4542,-4.3716,-4.2705,-4.1787,-4.1203,-4.1562,-4.1979,-4.1917,-4.3218,-4.4173,-4.3606,-4.3938,-4.4121,-4.3589,-4.3956,-4.3736,0.0,-4.1222,-4.1203,-4.2543,0.0,0.0,-4.4144,-4.4235,-4.4722,-4.5774,-4.5494,-4.5997,-4.7627,-4.7717,-4.7717,-4.7717,-4.7717,-4.7717,-4.7717,-4.7717,-4.7717,-4.7678,-4.7174,-4.6757,-4.645,-4.511,-4.4349,-4.4059,-4.3244,-4.2901,-4.2901,-4.2901,-4.2901,-4.2901,-4.2901,-4.3226,-4.3625,-4.31,-4.3914,-4.5454,-4.6522,-4.6659,-4.6334,-4.6165,-4.5528,-4.4814,-4.4654,-4.4615,-4.4615,-4.4615,-4.4615,-4.4615,-4.4615,-4.4615,-4.4615,-4.4615,-4.4615,-4.4615,-4.4615,-4.4615,-4.4615,-4.4615,-4.4615,-4.4615,-4.4615,-4.4615,-4.4615,-4.4615,-4.3604,-4.2769,-4.252,-4.1525,-4.0734,-4.0524,-4.0489,-4.0489,-4.0489,-4.0489,-4.0366,-4.0031,-4.0011,-3.9818,-3.9424,-3.9388,-3.9388,-3.9388,-3.9388,-3.9388,-3.9388,-3.9388,-3.9388,-3.9388,-3.9388,-3.9388,-4.5627,-4.5553,-4.5406,-4.4838,-4.392,-4.3075,-4.2782,-4.32,-4.3621,-4.3588,-4.489,-4.5882,-4.5314,-4.5626,-4.5626,-4.4525,-4.4782,-4.4195,0.0,-4.091,-4.102,-4.1791,0.0,0.0,0.0,-4.3433,-4.4051,-4.5377,-4.5116,-4.5707,-4.7609,-4.7717,-4.7717,-4.7717,-4.7717,-4.7717,-4.7717,-4.7717,-4.7717,-4.7678,-4.6884,-4.6359,-4.6033,-4.4693,-4.3932,-4.3625,-4.3137,-4.2901,-4.2901,-4.2901,-4.2901,-4.2901,-4.2901,-4.339,-4.4023,-4.3516,-4.4349,-4.5924,-4.7246,-4.6999,-4.6098,-4.6098,-4.5416,-4.4615,-4.4615,-4.4615,-4.4615,-4.4615,-4.4615,-4.4615,-4.4615,-4.4615,-4.4615,-4.4615,-4.4615,-4.4615,-4.4615,-4.4615,-4.4615,-4.4615,-4.4615,-4.4615,-4.4615,-4.4615,-4.4615,-4.4615,-4.3604,-4.2769,-4.2552,-4.1558,-4.0768,-4.0524,-4.0489,-4.0489,-4.0489,-4.0489,-4.0366,-4.0031,-4.0011,-3.9818,-3.9424,-3.9388,-3.9388,-3.9388,-3.9388,-3.9388,-3.9388,-3.9388,-3.9388,-3.9388,-3.9388,-3.9388]},{"header":{"parameterUnit":"m.s-1","parameterCategory":1,"la1":30.6,"la2":29.2853,"lo1":-89.7004,"lo2":-87.6739,"dy":0.0162,"dx":0.0183,"nx":112,"ny":82,"refTime":"2026-05-19T00:00:00:Z","depth":0,"parameterNumber":3,"parameterNumberName":"V-component_of_WINDS"},"data":[0.0,0.0,0.0,0.0,0.0,0.0,0.0,0.0,0.0,0.0,0.0,0.0,0.0,0.0,0.0,0.0,0.0,0.0,0.0,0.0,0.0,0.0,0.0,0.0,0.0,0.0,0.0,0.0,0.0,0.0,0.0,0.0,0.0,0.0,0.0,0.0,0.0,0.0,0.0,0.0,0.0,0.0,0.0,0.0,0.0,0.0,0.0,0.0,0.0,0.0,0.0,0.0,0.0,0.0,0.0,0.0,0.0,0.0,0.0,0.0,0.0,0.0,0.0,0.0,0.0,0.0,0.0,0.0,0.0,0.0,0.0,0.0,0.0,0.0,0.0,0.0,0.0,0.0,0.0,0.0,0.0,0.0,0.0,0.0,0.0,0.0,0.0,0.0,0.0,0.0,1.5312,1.6,1.6718,1.7032,1.6724,1.6447,1.5552,1.3699,0.0,0.0,0.0,0.0,0.0,0.0,0.0,0.0,0.0,0.0,0.0,0.0,0.0,0.0,0.0,0.0,0.0,0.0,0.0,0.0,0.0,0.0,0.0,0.0,0.0,0.0,0.0,0.0,0.0,0.0,0.0,0.0,0.0,0.0,0.0,0.0,0.0,0.0,0.0,0.0,0.0,0.0,0.0,0.0,0.0,0.0,0.0,0.0,0.0,0.0,0.0,0.0,0.0,0.0,0.0,0.0,0.0,0.0,0.0,0.0,0.0,0.0,0.0,0.0,0.0,0.0,0.0,0.0,0.0,0.0,0.0,0.0,0.0,0.0,0.0,0.0,0.0,0.0,0.0,0.0,0.0,0.0,0.0,0.0,0.0,0.0,0.0,0.0,0.0,0.0,0.0,0.0,0.0,0.0,0.0,0.0,0.0,0.0,0.0,0.0,0.0,0.0,0.0,0.0,1.5324,1.6754,1.7219,1.7231,1.6742,1.6459,1.5517,1.3699,0.0,0.0,0.0,0.0,0.0,0.0,0.0,0.0,0.0,0.0,0.0,0.0,0.0,0.0,0.0,0.0,0.0,0.0,0.0,0.0,0.0,0.0,0.0,0.0,0.0,0.0,0.0,0.0,0.0,0.0,0.0,0.0,0.0,0.0,0.0,0.0,0.0,0.0,0.0,0.0,0.0,0.0,0.0,0.0,0.0,0.0,0.0,0.0,0.0,0.0,0.0,0.0,0.0,0.0,0.0,0.0,0.0,0.0,0.0,0.0,0.0,0.0,0.0,0.0,0.0,0.0,0.0,0.0,0.0,0.0,0.0,0.0,0.0,0.0,0.0,0.0,0.0,0.0,0.0,0.0,0.0,0.0,0.0,0.0,0.0,0.0,0.0,0.0,0.0,0.0,0.0,0.0,0.0,0.0,0.0,0.0,0.0,0.0,0.0,0.0,0.0,0.0,0.0,1.4986,1.5644,1.6954,1.7201,1.7117,1.673,1.6453,1.5617,1.4087,1.3956,0.0,0.0,0.0,0.0,0.0,0.0,0.0,0.0,0.0,0.0,0.0,0.0,0.0,0.0,0.0,0.0,0.0,0.0,0.0,0.0,0.0,0.0,0.0,0.0,0.0,0.0,0.0,0.0,0.0,0.0,0.0,0.0,0.0,0.0,0.0,0.0,0.0,0.0,0.0,0.0,0.0,0.0,0.0,0.0,0.0,0.0,0.0,0.0,0.0,0.0,0.0,0.0,0.0,0.0,0.0,0.0,0.0,0.0,0.0,0.0,0.0,0.0,0.0,0.0,0.0,0.0,0.0,0.0,0.0,0.0,0.0,0.0,0.0,0.0,0.0,0.0,0.0,0.0,0.0,0.0,0.0,0.0,0.0,0.0,0.0,0.0,0.0,0.0,0.0,0.0,0.0,0.0,0.0,0.0,0.0,0.0,0.0,0.0,0.0,0.0,0.0,0.0,1.5678,1.6247,1.708,1.7183,1.705,1.6724,1.6386,1.5644,1.4377,1.4177,0.0,0.0,0.0,0.0,0.0,0.0,0.0,0.0,0.0,0.0,0.0,0.0,0.0,0.0,0.0,0.0,0.0,0.0,0.0,0.0,0.0,0.0,0.0,0.0,0.0,0.0,0.0,0.0,0.0,0.0,0.0,0.0,0.0,0.0,0.0,0.0,0.0,0.0,0.0,0.0,0.0,0.0,0.0,0.0,0.0,0.0,0.0,0.0,0.0,0.0,0.0,0.0,0.0,0.0,0.0,0.0,0.0,0.0,0.0,0.0,0.0,0.0,0.0,0.0,0.0,0.0,0.0,0.0,0.0,0.0,0.0,0.0,0.0,0.0,0.0,0.0,0.0,0.0,0.0,0.0,0.0,0.0,0.0,0.0,0.0,0.0,0.0,0.0,0.0,0.0,0.0,0.0,0.0,0.0,0.0,0.0,0.0,0.0,0.0,0.0,0.0,0.0,1.6203,1.7097,1.7453,1.7455,1.7249,1.6742,1.6223,1.5451,1.4364,1.3839,0.0,0.0,0.0,0.0,0.0,0.0,0.0,0.0,0.0,0.0,0.0,0.0,0.0,0.0,0.0,0.0,0.0,0.0,0.0,0.0,0.0,0.0,0.0,0.0,0.0,0.0,0.0,0.0,0.0,0.0,0.0,0.0,0.0,0.0,0.0,0.0,0.0,0.0,0.0,0.0,0.0,0.0,0.0,0.0,0.0,0.0,0.0,0.0,0.0,0.0,0.0,0.0,0.0,0.0,0.0,0.0,0.0,0.0,0.0,0.0,0.0,0.0,0.0,0.0,0.0,0.0,0.0,0.0,0.0,0.0,0.0,0.0,0.0,0.0,0.0,0.0,0.0,0.0,0.0,0.0,0.0,0.0,0.0,0.0,0.0,0.0,0.0,0.0,0.0,0.0,0.0,0.0,0.0,0.0,0.0,0.0,0.0,0.0,0.0,0.0,0.0,0.0,1.6163,1.6913,1.775,1.731,1.6917,1.6718,1.6199,1.5433,1.4364,0.0,0.0,0.0,0.0,0.0,0.0,0.0,0.0,0.0,0.0,0.0,0.0,0.0,0.0,0.0,0.0,0.0,0.0,0.0,0.0,0.0,0.0,0.0,0.0,0.0,0.0,0.0,0.0,0.0,0.0,0.0,0.0,0.0,0.0,0.0,0.0,0.0,0.0,0.0,0.0,0.0,0.0,0.0,0.0,0.0,0.0,0.0,0.0,0.0,0.0,0.0,0.0,0.0,0.0,0.0,0.0,0.0,0.0,0.0,0.0,0.0,0.0,0.0,0.0,0.0,0.0,0.0,0.0,0.0,0.0,0.0,0.0,0.0,0.0,0.0,0.0,0.0,0.0,0.0,0.0,0.0,0.0,0.0,0.0,0.0,0.0,0.0,0.0,0.0,0.0,0.0,0.0,0.0,0.0,0.0,0.0,0.0,0.0,0.0,0.0,0.0,0.0,1.5782,1.6447,1.7158,1.8042,1.7436,1.6954,1.6874,1.6102,1.5221,1.4238,0.0,0.0,0.0,0.0,0.0,0.0,0.0,0.0,0.0,0.0,0.0,0.0,0.0,0.0,0.0,0.0,0.0,0.0,0.0,0.0,0.0,0.0,0.0,0.0,0.0,0.0,0.0,0.0,0.0,0.0,0.0,0.0,0.0,0.0,0.0,0.0,0.0,0.0,0.0,0.0,0.0,0.0,0.0,0.0,0.0,0.0,0.0,0.0,0.0,0.0,0.0,0.0,0.0,0.0,0.0,0.0,0.0,0.0,0.0,0.0,0.0,0.0,0.0,0.0,0.0,0.0,0.0,0.0,0.0,0.0,0.0,0.0,0.0,0.0,0.0,0.0,0.0,0.0,0.0,0.0,0.0,0.0,0.0,0.0,0.0,0.0,0.0,0.0,0.0,0.0,0.0,0.0,0.0,0.0,0.0,0.0,0.0,0.0,0.0,0.0,0.0,0.0,1.5883,1.715,1.8073,1.8358,1.793,1.7484,1.7216,1.5933,1.4769,0.0,0.0,0.0,0.0,0.0,0.0,0.0,0.0,0.0,0.0,0.0,0.0,0.0,0.0,0.0,0.0,0.0,0.0,0.0,0.0,0.0,0.0,0.0,0.0,0.0,0.0,0.0,0.0,0.0,0.0,0.0,0.0,0.0,0.0,0.0,0.0,0.0,0.0,0.0,0.0,0.0,0.0,0.0,0.0,0.0,0.0,0.0,0.0,0.0,0.0,0.0,0.0,0.0,0.0,0.0,0.0,0.0,0.0,0.0,0.0,0.0,0.0,0.0,0.0,0.0,0.0,0.0,0.0,0.0,0.0,0.0,0.0,0.0,0.0,0.0,0.0,0.0,0.0,0.0,0.0,0.0,0.0,0.0,0.0,0.0,0.0,0.0,0.0,0.0,0.0,0.0,0.0,0.0,0.0,0.0,0.0,0.0,0.0,0.0,0.0,0.0,0.0,0.0,1.6351,1.7363,1.8186,1.87,1.8052,1.7572,1.7489,1.6524,1.5457,1.4259,0.0,0.0,0.0,0.0,0.0,0.0,0.0,0.0,0.0,0.0,0.0,0.0,0.0,0.0,0.0,0.0,0.0,0.0,0.0,0.0,0.0,0.0,0.0,0.0,0.0,0.0,0.0,0.0,0.0,0.0,0.0,0.0,0.0,0.0,0.0,0.0,0.0,0.0,0.0,0.0,0.0,0.0,0.0,0.0,0.0,0.0,0.0,0.0,0.0,0.0,0.0,0.0,0.0,0.0,0.0,0.0,0.0,0.0,0.0,0.0,0.0,0.0,0.0,0.0,0.0,0.0,0.0,0.0,0.0,0.0,0.0,0.0,0.0,0.0,0.0,0.0,0.0,0.0,0.0,0.0,0.0,0.0,0.0,0.0,0.0,0.0,0.0,0.0,0.0,0.0,0.0,0.0,0.0,0.0,0.0,0.0,0.0,0.0,0.0,0.0,0.0,0.0,1.6593,1.7583,1.8424,1.9061,1.8322,1.7817,1.7817,1.6764,1.5675,1.4528,0.0,0.0,0.0,0.0,0.0,0.0,0.0,0.0,0.0,0.0,0.0,0.0,0.0,0.0,0.0,0.0,0.0,0.0,0.0,0.0,0.0,0.0,0.0,0.0,0.0,0.0,0.0,0.0,0.0,0.0,0.0,0.0,0.0,0.0,0.0,0.0,0.0,0.0,0.0,0.0,0.0,0.0,0.0,0.0,0.0,0.0,0.0,0.0,0.0,0.0,0.0,0.0,0.0,0.0,0.0,0.0,0.0,0.0,0.0,0.0,0.0,0.0,0.0,0.0,0.0,0.0,0.0,0.0,0.0,0.0,0.0,0.0,0.0,0.0,0.0,0.0,0.0,0.0,0.0,0.0,0.0,0.0,0.0,0.0,0.0,0.0,0.0,0.0,0.0,0.0,0.0,0.0,0.0,0.0,0.0,0.0,0.0,0.0,0.0,0.0,0.0,0.0,1.6736,1.8008,1.9033,1.9605,1.8917,1.8457,1.8375,1.7101,1.5885,1.4921,0.0,0.0,0.0,0.0,0.0,0.0,0.0,0.0,0.0,0.0,0.0,0.0,0.0,0.0,0.0,0.0,0.0,0.0,0.0,0.0,0.0,0.0,0.0,0.0,0.0,0.0,0.0,0.0,0.0,0.0,0.0,0.0,0.0,0.0,0.0,0.0,0.0,0.0,0.0,0.0,0.0,0.0,0.0,0.0,0.0,0.0,0.0,0.0,0.0,0.0,0.0,0.0,0.0,0.0,0.0,0.0,0.0,0.0,0.0,0.0,1.6221,1.5808,0.0,0.0,0.0,0.0,0.0,0.0,0.0,0.0,0.0,0.0,0.0,0.0,0.0,0.0,0.0,0.0,0.0,0.0,0.0,0.0,0.0,0.0,0.0,0.0,0.0,0.0,0.0,0.0,0.0,0.0,0.0,0.0,0.0,0.0,0.0,0.0,0.0,0.0,0.0,0.0,1.7962,1.9911,2.1317,2.1731,2.1346,2.0941,2.0628,1.9608,1.8174,1.6384,1.5467,0.0,0.0,0.0,0.0,0.0,0.0,0.0,0.0,0.0,0.0,0.0,0.0,0.0,0.0,0.0,0.0,0.0,0.0,0.0,0.0,0.0,0.0,0.0,0.0,0.0,0.0,0.0,0.0,0.0,0.0,0.0,0.0,0.0,0.0,0.0,0.0,0.0,0.0,0.0,0.0,0.0,0.0,0.0,0.0,0.0,0.0,0.0,0.0,0.0,0.0,0.0,0.0,0.0,0.0,0.0,0.0,0.0,0.0,0.0,1.7138,1.6748,0.0,0.0,0.0,0.0,0.0,0.0,0.0,0.0,0.0,0.0,0.0,0.0,0.0,0.0,0.0,0.0,0.0,0.0,0.0,0.0,0.0,0.0,0.0,0.0,0.0,0.0,0.0,0.0,0.0,0.0,0.0,0.0,0.0,0.0,0.0,0.0,0.0,0.0,0.0,0.0,1.8913,2.0585,2.1808,2.2324,2.1911,2.1539,2.1304,2.0583,1.95,1.8079,1.7079,0.0,0.0,0.0,0.0,0.0,0.0,0.0,0.0,0.0,0.0,0.0,0.0,0.0,0.0,0.0,0.0,0.0,0.0,0.0,0.0,0.0,0.0,0.0,0.0,0.0,0.0,0.0,0.0,0.0,0.0,0.0,0.0,0.0,0.0,0.0,0.0,0.0,0.0,0.0,0.0,0.0,0.0,0.0,0.0,0.0,0.0,0.0,0.0,0.0,0.0,0.0,0.0,0.0,1.819,1.8446,1.8446,1.8446,1.8691,1.9068,1.8121,1.7909,1.8177,1.7378,0.0,0.0,0.0,0.0,0.0,0.0,0.0,0.0,0.0,0.0,0.0,0.0,0.0,0.0,0.0,0.0,0.0,0.0,0.0,0.0,0.0,0.0,1.65,1.6206,1.6506,1.6549,1.5404,0.0,0.0,0.0,0.0,0.0,0.0,0.0,0.0,0.0,0.0,0.0,1.9886,2.1148,2.2152,2.2738,2.2274,2.19,2.1835,2.1275,2.059,1.9722,1.8787,1.7867,0.0,0.0,0.0,0.0,0.0,0.0,0.0,0.0,0.0,0.0,0.0,0.0,0.0,0.0,0.0,0.0,0.0,0.0,0.0,0.0,0.0,0.0,0.0,0.0,0.0,0.0,0.0,0.0,0.0,0.0,0.0,0.0,1.3672,1.3365,0.0,0.0,0.0,0.0,0.0,0.0,0.0,0.0,0.0,0.0,0.0,0.0,0.0,1.82,1.8207,1.9054,1.9467,1.9449,1.9741,1.994,1.994,1.994,1.996,1.9993,1.9854,0.0,1.8761,1.8121,0.0,0.0,0.0,0.0,0.0,0.0,0.0,0.0,0.0,0.0,0.0,0.0,0.0,0.0,0.0,0.0,0.0,0.0,0.0,0.0,0.0,0.0,1.7709,1.7422,1.7408,1.7578,1.7843,1.6392,1.4961,1.4807,1.4762,1.4432,0.0,0.0,0.0,0.0,0.0,0.0,2.1216,2.3088,2.4395,2.4452,2.4422,2.4206,2.3854,2.3354,2.2407,2.0912,2.0123,1.9039,1.7485,1.6427,0.0,0.0,0.0,0.0,0.0,0.0,0.0,0.0,0.0,0.0,0.0,0.0,0.0,0.0,0.0,0.0,0.0,0.0,0.0,0.0,0.0,0.0,0.0,0.0,0.0,0.0,0.0,0.0,0.0,1.2843,1.3195,1.3688,1.3844,1.3545,0.0,0.0,0.0,0.0,0.0,0.0,0.0,0.0,0.0,1.8083,1.8671,1.9065,1.9225,1.9766,2.004,2.0047,2.0341,2.0394,2.0241,2.0408,2.0481,2.0474,2.0307,2.0107,1.9853,1.9098,1.8344,1.767,0.0,0.0,0.0,0.0,1.7655,1.7716,1.8176,1.817,1.7923,1.7716,0.0,0.0,0.0,0.0,0.0,0.0,0.0,1.6455,1.7045,1.7387,1.7693,1.8349,1.8513,1.874,1.9639,1.8712,1.7539,1.7079,1.6448,1.5837,1.5271,1.5895,0.0,0.0,0.0,2.0893,2.2479,2.3744,2.4569,2.4757,2.4624,2.4404,2.422,2.3987,2.3393,2.2151,2.157,2.0766,1.9573,1.8658,1.8018,0.0,0.0,0.0,0.0,0.0,0.0,0.0,0.0,0.0,0.0,0.0,0.0,0.0,0.0,0.0,0.0,0.0,0.0,0.0,0.0,0.0,0.0,0.0,0.0,0.0,0.0,0.0,0.0,1.3497,1.3888,1.4353,1.4952,1.4976,0.0,0.0,0.0,0.0,0.0,0.0,1.8136,1.7633,1.7828,1.8925,1.9432,1.9806,2.002,2.0314,2.0454,2.0461,2.0681,2.0668,2.0461,2.0688,2.0788,2.0775,2.0555,2.0494,2.0501,1.97,1.9048,1.8384,1.8194,1.7861,1.7595,1.8054,1.8215,1.8288,1.8858,1.8985,1.8865,1.8504,1.8123,1.7675,1.6941,0.0,0.0,0.0,0.0,1.7117,1.803,1.8243,1.8499,1.9502,1.9769,1.9976,2.0934,2.0456,1.963,1.8942,1.8237,1.7582,1.698,1.7664,0.0,1.8962,2.0237,2.1686,2.3253,2.3837,2.431,2.4775,2.4535,2.4399,2.4399,2.4399,2.3999,2.3138,2.2834,2.2298,2.1475,2.0772,2.0162,1.9626,0.0,0.0,0.0,0.0,0.0,0.0,0.0,0.0,0.0,0.0,0.0,0.0,0.0,0.0,0.0,0.0,0.0,0.0,0.0,0.0,0.0,0.0,0.0,0.0,0.0,0.0,0.0,0.0,0.0,1.601,1.7472,0.0,0.0,0.0,0.0,1.6956,1.7808,1.8748,1.9646,1.964,1.978,2.0073,2.0448,2.0621,2.0635,2.0922,2.1062,2.1062,2.1082,2.1082,2.1069,2.1082,2.1089,2.1089,2.1069,2.0762,2.0207,1.9613,1.9345,1.9265,1.8691,1.8464,1.8484,1.8771,1.8821,1.8925,1.9239,1.9158,1.8965,1.9219,1.8911,1.8384,1.8036,1.7528,0.0,0.0,1.8658,1.9058,2.0695,2.1084,2.1084,2.1152,2.1212,2.1291,2.1769,2.0761,1.9797,1.9741,1.9959,1.9726,1.8447,0.0,2.1386,1.9948,2.1383,2.2778,2.3271,2.3652,2.4167,2.4824,2.4892,2.4883,2.4883,2.4883,2.4523,2.3729,2.3653,2.3229,2.2353,2.191,2.1339,2.0557,2.0121,0.0,0.0,0.0,0.0,0.0,0.0,0.0,0.0,0.0,0.0,0.0,0.0,0.0,0.0,0.0,0.0,0.0,0.0,0.0,0.0,0.0,0.0,0.0,0.0,0.0,0.0,0.0,0.0,1.6807,1.8358,0.0,1.7169,1.8204,1.892,1.8777,1.9265,1.9746,2.006,2.0261,2.0414,2.0514,2.0802,2.0955,2.0955,2.1056,2.1109,2.1109,2.1109,2.1109,2.1109,2.1109,2.1109,2.1109,2.1109,2.0989,2.0768,2.0374,1.9939,1.9403,1.9138,1.9052,1.9092,1.9379,1.9486,1.9506,1.9606,1.9573,1.9439,1.9172,1.8938,1.8711,1.841,1.8176,1.8238,1.9125,1.9374,1.9635,2.075,2.1382,2.1856,2.2575,2.2834,2.3108,2.3718,2.3036,2.2241,2.1944,2.1142,2.0525,2.0553,2.1535,2.212,2.1555,2.2275,2.3071,2.3504,2.3692,2.3947,2.4448,2.4259,2.4212,2.4467,2.4259,2.39,2.3312,2.3265,2.2974,2.2416,2.2255,2.1826,2.0983,2.0607,1.9639,0.0,0.0,0.0,0.0,0.0,0.0,0.0,0.0,0.0,0.0,0.0,0.0,0.0,0.0,0.0,0.0,0.0,0.0,0.0,0.0,0.0,0.0,0.0,0.0,0.0,1.592,1.7167,1.7298,1.8951,1.9634,1.8469,1.9285,1.9987,2.0087,2.0274,2.0421,2.0528,2.0715,2.0822,2.0822,2.1009,2.1109,2.1109,2.1109,2.1109,2.1109,2.1109,2.1109,2.1109,2.1109,2.1109,2.1109,2.1109,2.1056,2.0949,2.0755,2.0274,1.9659,1.9659,1.9659,1.9679,1.9873,1.9947,1.9933,1.9833,1.9733,1.9593,1.9199,1.9072,1.9018,1.8724,1.8637,1.8877,1.9942,2.0242,2.0528,2.1783,2.2477,2.3117,2.3981,2.4287,2.4395,2.4641,2.4174,2.3558,2.3043,2.2123,2.1544,2.1926,2.2533,2.2799,2.2435,2.2827,2.3252,2.3547,2.3585,2.3793,2.4297,2.4096,2.4048,2.4316,2.4096,2.3752,2.3302,2.314,2.2828,2.2461,2.2318,2.1916,2.1199,2.0809,1.9975,1.8711,0.0,0.0,0.0,0.0,0.0,0.0,0.0,0.0,0.0,0.0,0.0,0.0,0.0,0.0,0.0,0.0,0.0,0.0,0.0,0.0,0.0,0.0,0.0,1.4933,1.6401,1.7602,1.7673,1.9481,2.0468,1.9893,2.0094,2.0381,2.0668,2.0702,2.0822,2.1096,2.1116,2.1122,2.1109,2.1109,2.1109,2.1109,2.1109,2.1109,2.1109,2.1109,2.1109,2.1109,2.1109,2.1109,2.1109,2.1109,2.0949,2.0688,2.0688,2.0521,2.0261,2.0241,2.0167,2.016,2.0227,2.0167,2.018,1.9907,1.9619,1.9424,1.9424,1.9424,1.9312,1.9025,1.8938,1.9255,2.088,2.1312,2.1799,2.3963,2.4692,2.5006,2.5554,2.5374,2.503,2.4476,2.4041,2.3528,2.2923,2.2898,2.286,2.2508,2.3276,2.3626,2.2599,2.2961,0.0,2.34,2.34,2.3654,2.4309,2.4385,2.4385,2.4394,2.4385,2.4199,2.3779,2.3305,2.2896,2.2529,2.2119,2.1699,2.122,2.081,2.0361,1.9912,0.0,0.0,0.0,0.0,0.0,0.0,0.0,0.0,0.0,0.0,0.0,0.0,0.0,0.0,0.0,0.0,0.0,0.0,0.0,0.0,0.0,1.3782,1.4541,1.5186,1.771,1.9579,1.9794,2.0522,2.0929,2.0762,2.0822,2.0902,2.0982,2.1189,2.1249,2.1116,2.1309,2.1329,2.1116,2.1109,2.1109,2.1109,2.1109,2.1109,2.1109,2.1109,2.1109,2.1109,2.1109,2.1109,2.1109,2.1109,2.1062,2.0989,2.0989,2.0942,2.0822,2.0401,2.01,1.9947,2.0154,2.01,1.994,2.0067,1.9786,1.9424,1.9424,1.9424,1.9352,1.9272,1.9245,1.9667,2.1563,2.2011,2.2433,2.4836,2.5782,2.625,2.671,2.665,2.6239,2.5499,2.4725,2.3977,2.3178,2.3057,2.3051,2.2935,2.3153,2.3231,2.2955,2.3057,2.3178,2.3178,2.3178,2.3397,2.3916,2.3682,2.3623,2.3935,2.3672,2.331,2.2891,2.2754,2.2637,2.2519,2.2402,2.2139,2.1719,2.1279,2.0674,0.0,0.0,0.0,0.0,0.0,0.0,0.0,0.0,0.0,0.0,0.0,0.0,0.0,0.0,0.0,0.0,0.0,0.0,0.0,0.0,0.0,0.0,1.4843,1.5811,1.6922,1.8064,1.9261,2.069,2.0491,2.0462,2.1046,2.1109,2.1109,2.1109,2.1269,2.1289,2.1116,2.1269,2.1289,2.1116,2.1109,2.1109,2.1109,2.1109,2.1109,2.1109,2.1109,2.1109,2.1109,2.1109,2.1109,2.1109,2.1109,2.1109,2.1109,2.1109,2.1109,2.1076,0.0,0.0,0.0,0.0,2.0154,1.9846,2.0134,1.9853,1.9424,1.9424,1.9424,1.9424,1.9424,1.9764,2.0487,2.1984,2.256,2.3199,2.5249,2.6046,2.645,2.7122,2.7191,2.6888,2.6142,2.5312,2.4434,2.3574,2.3218,0.0,2.3091,2.3091,2.3091,2.3091,2.3247,2.3305,2.312,2.3257,2.3437,2.3516,2.3247,2.3198,2.3496,2.3247,0.0,0.0,0.0,2.2432,2.2256,2.2246,0.0,0.0,0.0,0.0,0.0,2.1571,0.0,0.0,2.0742,2.084,0.0,0.0,0.0,0.0,0.0,0.0,0.0,0.0,0.0,0.0,0.0,0.0,0.0,0.0,0.0,0.0,1.6434,1.8356,1.938,1.8052,1.8001,2.0753,2.0036,1.9794,2.1029,2.1189,2.1209,2.1209,2.1236,2.1229,2.1162,2.1189,0.0,0.0,0.0,2.1109,2.1109,2.1109,2.1109,2.1109,2.1109,2.1109,2.1109,2.1109,2.1109,2.1109,2.1109,2.1109,2.1109,2.1109,2.1109,2.1102,2.1036,2.0848,2.0621,2.0588,2.0227,1.9793,2.0087,0.0,0.0,1.9424,1.9424,1.9424,1.9424,2.0162,2.1165,2.1984,2.2784,2.3815,2.5304,2.5824,2.6107,2.7127,2.7299,2.7091,2.6512,2.5742,2.4861,2.3955,2.3437,2.311,2.3159,2.3169,2.3169,2.3169,2.3584,2.3721,2.3286,2.3584,2.3643,2.3208,2.312,0.0,2.3091,2.3091,2.3071,2.3033,2.2715,2.2344,2.1973,2.2002,2.2002,2.1963,2.2373,2.2559,2.251,2.3788,2.3872,2.2788,2.1283,2.1105,0.0,0.0,0.0,0.0,0.0,0.0,0.0,0.0,0.0,0.0,0.0,0.0,0.0,0.0,0.0,1.5637,1.7453,1.91,2.0522,1.9472,1.9173,2.0906,2.1124,2.1199,2.147,2.1677,2.1817,2.1817,2.2031,2.1964,2.1561,2.169,2.1597,2.1122,2.1109,2.1109,2.1109,2.1109,2.1109,2.1109,2.1109,0.0,2.1109,2.1109,2.1109,2.1109,2.1109,2.1109,2.1109,2.1109,2.1109,2.1062,2.0588,2.0368,2.0287,2.0054,1.9753,1.9492,1.978,1.9659,1.9424,1.9424,1.9424,1.9424,1.9424,1.954,0.0,2.0779,2.1697,2.2831,2.481,2.5897,2.6733,2.782,2.7848,2.737,2.6572,2.5742,2.4861,2.3955,2.3437,2.3208,2.3603,2.3662,2.3662,2.3662,2.4023,2.4268,2.418,2.3945,2.376,2.3672,2.335,2.3091,2.3091,2.3091,2.2955,2.2656,2.2559,2.248,2.2393,2.2715,2.2734,2.2402,2.276,2.2808,2.251,2.3457,2.4225,2.4771,2.4703,2.4218,0.0,0.0,0.0,0.0,0.0,0.0,0.0,0.0,0.0,0.0,0.0,1.0963,1.2683,0.0,1.3815,1.7262,1.776,1.8596,2.0992,2.0589,2.0335,2.1046,2.0779,2.0825,2.155,2.1817,2.1984,2.1984,2.2118,2.2078,2.1784,2.1904,2.1784,2.1343,2.1329,2.1263,2.1109,2.1109,2.1109,2.1109,2.1109,2.1109,2.1109,2.1109,2.1109,2.1109,2.1109,2.1029,2.0882,2.0728,2.0762,2.0848,2.0408,2.0173,2.0194,1.9907,1.9619,1.947,1.97,1.9606,1.9424,1.9424,1.9424,1.9397,1.9192,1.959,2.0253,2.1241,2.2132,2.3268,2.5151,2.6116,2.6798,2.754,2.7707,2.7483,2.6572,2.5742,2.4861,2.3955,2.3437,2.3227,2.3711,2.3965,2.4102,2.4102,2.4473,2.459,2.416,2.4102,2.3935,2.3516,2.3227,2.3091,2.3091,2.3091,2.3003,2.2789,2.2779,2.2779,2.2779,2.2984,2.3003,2.2789,2.2984,2.3353,2.3907,2.4779,2.5583,2.6376,2.7431,2.7099,0.0,0.0,0.0,0.0,0.0,0.0,0.0,0.0,1.0893,1.2262,1.1804,1.1837,1.3775,1.3485,1.4315,1.8629,1.8177,1.8277,2.1125,2.1299,2.1109,2.1109,2.0432,2.044,2.1565,2.1951,2.2158,2.2158,2.2158,2.2104,2.1991,2.1984,2.1824,2.1476,2.1534,2.1349,2.1109,2.1109,2.1109,2.1109,2.1109,2.1109,2.1109,2.1109,2.1109,2.1109,2.1049,2.0922,2.0735,2.0381,2.0408,2.0641,2.0287,2.0147,2.012,1.9887,1.9619,1.9457,1.9633,1.9559,1.9424,1.9424,1.9424,1.9312,1.9011,1.9639,2.0659,2.1595,2.2548,2.3608,2.5288,2.611,2.6602,2.7155,2.7431,2.7324,2.6553,2.5742,2.4861,2.3955,2.3437,2.3257,2.3818,2.4199,2.4443,2.4531,2.4912,2.4922,2.4141,2.4258,2.4121,2.3305,2.3149,2.3091,2.3091,2.3091,2.3091,2.3091,2.3091,2.3178,2.3353,2.3353,2.343,2.3637,2.3727,2.4374,2.5555,2.6466,2.7195,2.7833,2.9406,2.9261,1.501,1.3212,1.1928,1.2453,1.2474,1.2517,0.0,0.0,1.3044,1.3213,1.3383,1.4016,1.5809,1.6233,1.6937,1.8969,1.9297,1.9731,2.0976,2.1109,2.1109,2.1109,2.1467,2.1806,2.1937,2.2438,2.2834,2.2834,2.2834,2.2539,2.2017,2.1984,2.173,2.1176,2.1156,2.1142,2.1109,2.1109,2.1109,2.1109,2.1109,2.1109,2.1109,2.1109,2.1109,2.1096,2.0835,2.0855,2.1015,2.0461,2.0408,2.0621,2.0067,1.9846,1.9846,1.9813,1.9619,1.943,1.9406,1.9457,1.9424,1.9424,1.9424,1.9312,1.9011,1.9138,1.9563,2.0199,2.126,2.2592,2.4119,2.5292,2.6348,2.7419,2.7363,2.6963,2.6494,2.5742,2.4861,2.3955,2.3437,2.3354,2.4209,2.4385,2.4551,2.4941,2.5381,2.5488,2.499,2.4629,2.4238,2.3769,2.3369,2.3091,2.3091,2.3091,2.3091,2.3091,2.3091,2.3474,2.4327,2.4327,2.4701,2.5484,2.599,2.6314,2.6454,2.7447,2.8377,2.9288,2.988,2.9616,1.567,1.4327,1.3192,1.3035,1.3234,1.3623,1.384,1.3173,1.2731,1.3628,1.3804,1.4133,1.5094,1.6073,1.7264,0.0,1.923,1.9693,2.0912,2.1109,2.1109,2.1109,2.1476,2.1804,2.1964,2.2358,2.2679,2.2914,2.2928,2.2759,2.2505,2.2331,2.2051,2.163,2.1456,2.1283,2.1109,2.1109,2.1109,2.1109,2.1109,2.1109,2.1109,2.1109,2.1109,2.1096,2.0802,2.0842,2.1049,2.0294,2.0154,2.0381,1.996,1.9693,1.9546,1.9546,1.9472,1.9424,1.9424,1.9424,1.9424,1.9424,1.9424,1.9336,1.8973,1.8888,1.9029,2.0046,2.1084,2.224,2.3776,2.5199,2.6433,2.7139,2.6768,2.6181,2.6045,2.5117,2.4141,2.3525,2.3218,2.3364,2.4268,2.4414,2.4658,2.5352,2.5567,2.5478,2.4775,2.4531,2.416,2.3477,2.3198,2.3091,2.3091,2.3091,2.3091,2.3091,2.3604,2.4069,2.4498,2.4999,2.5282,2.5333,2.5874,2.6378,2.6944,2.7967,2.9081,3.0336,3.0856,3.0868,1.5671,1.4841,1.3966,1.2915,1.332,1.3901,1.366,1.2891,1.2493,1.3407,1.402,1.4386,1.4499,1.6027,1.7615,1.8824,1.9106,1.9623,2.0912,2.1109,2.1082,2.1002,2.1249,2.1516,2.1724,2.2084,2.2385,2.2605,2.2619,2.2653,2.2573,2.2298,2.2044,2.175,2.1537,2.1329,2.1109,2.1109,2.1109,2.1109,2.1109,2.1109,2.1109,2.1109,2.1109,2.1096,2.0802,2.0795,2.0929,2.0127,1.992,2.0087,1.9793,1.9553,1.9424,1.9424,1.9424,1.9424,1.9424,1.9424,1.9424,1.9424,1.9424,1.9425,1.9048,1.8871,1.918,2.0566,2.1422,2.2316,2.4097,2.5483,2.6465,2.6768,2.623,2.5654,2.5586,2.4619,2.3662,2.3179,2.3091,2.3325,2.4121,2.4346,2.4678,2.5439,2.5615,2.5372,2.4531,2.4209,2.3783,2.3159,2.3091,2.3091,2.3091,2.3091,2.3222,2.3474,2.4112,2.4701,2.521,2.583,2.6121,2.5968,2.6356,2.6876,2.7551,2.8424,2.9506,3.0675,3.1247,3.1573,1.4814,1.4226,1.3722,1.221,1.2638,1.3186,1.2386,1.2803,1.315,1.2384,1.4013,1.541,1.4963,1.6965,1.8748,1.8951,1.931,1.996,2.0982,2.1109,2.1002,2.0722,2.0949,2.1129,2.1136,2.1657,2.2004,2.2011,2.2011,2.1891,2.1675,2.1648,2.1443,2.1149,2.1129,2.1116,2.1109,2.1109,2.1109,2.1109,2.1109,2.1109,2.1109,2.1109,2.1109,2.1096,2.0802,2.0681,2.0641,2.0047,1.9806,1.9786,1.9492,1.943,1.9424,1.9424,1.9424,1.9424,1.9424,1.9424,1.9424,1.9424,1.9591,1.9706,1.9097,1.9312,2.0098,2.1642,2.224,2.2994,2.5079,2.6015,2.6396,2.6406,2.6064,2.5567,2.5176,2.4404,2.3662,2.3179,2.3091,2.3237,2.373,2.415,2.457,2.5067,2.5459,2.5372,2.4531,2.3647,2.312,2.3091,2.3091,2.3091,2.3091,2.3091,2.3474,2.4413,2.4498,2.5295,2.7051,2.7144,2.7551,2.8367,2.8419,2.8431,2.8471,2.9011,2.9593,3.0122,3.0651,3.1211,1.5383,1.4617,1.3539,1.2878,1.3347,1.3679,1.2377,1.2333,1.279,1.3338,1.4619,1.5308,1.4406,1.7078,1.9031,1.7668,1.9097,2.0512,2.1019,2.1109,2.1076,2.0975,2.1049,2.1109,2.1109,2.1463,2.1777,2.1971,2.1984,2.1944,2.1844,2.1722,2.1574,2.1467,2.1216,2.1109,2.1109,2.1109,2.1109,2.1109,2.1109,2.1109,2.1109,2.1109,2.1109,2.1102,2.1002,2.0962,2.0935,2.0541,2.0267,2.006,1.9766,1.9539,1.9424,1.9424,1.9424,1.9424,1.9424,1.9424,1.9424,1.9424,1.9456,1.9439,1.9251,1.9152,1.9492,2.0909,2.1735,2.2593,2.4205,2.5282,2.6025,2.6318,2.5605,2.4902,2.5086,2.417,2.3276,2.312,2.3091,2.3227,2.3711,2.3906,2.4248,2.5008,2.5195,2.5185,2.4893,2.4102,2.3574,2.3574,2.331,2.3091,2.3091,2.3691,2.4155,2.4498,2.5631,2.6547,2.7185,2.7765,2.7858,2.7438,2.7774,2.7774,2.7426,2.8703,2.9569,3.011,3.1031,3.1536,1.5084,1.4359,1.3271,1.2901,1.3082,1.3131,1.2184,1.198,1.2201,1.3026,1.4385,1.4898,1.3319,1.6564,1.8832,1.6786,1.8754,2.0621,2.0915,2.1042,2.1069,2.0969,2.1042,2.1069,2.0962,2.1223,2.147,2.1657,2.167,2.167,2.167,2.1496,2.1396,2.1396,2.1209,2.1109,2.1109,2.1109,2.1109,2.1109,2.1109,2.1109,2.1109,2.1109,2.1109,2.1109,2.1109,2.1049,2.0942,2.0755,2.0441,2.006,1.9873,1.9626,1.9424,1.9424,1.9424,1.9424,1.9424,1.9482,1.9519,1.9411,1.9528,1.9626,1.9366,1.9524,2.003,2.1178,2.2139,2.3085,2.4353,2.5331,2.5957,2.5928,2.5273,2.4639,2.4619,2.3838,2.3091,2.3091,2.3091,2.3188,2.3516,2.3809,2.4199,2.4756,2.4971,2.5116,2.5116,2.4316,2.3789,2.3789,2.3398,2.3091,2.3091,2.3647,2.4284,2.4914,2.6038,2.701,2.7644,2.8001,2.787,2.7186,2.7126,2.6971,2.6635,2.7861,2.8823,2.9544,3.041,3.1067,1.4034,1.345,1.2977,1.2175,1.1888,1.1811,1.1691,1.1595,1.161,1.1648,1.3499,1.4424,1.2156,1.5637,1.8276,1.6369,1.8379,2.0341,2.0655,2.0935,2.1009,0.0,0.0,0.0,0.0,0.0,2.1109,2.1109,2.1109,2.1109,2.1109,2.1109,2.1109,2.1109,2.1109,2.1109,2.1109,2.1109,2.1109,2.1109,2.1109,2.1109,2.1109,2.1109,2.1109,2.1109,2.1109,2.0955,2.0702,2.0702,2.0347,1.982,1.982,1.9633,1.9424,1.9424,1.9424,1.9424,1.9424,1.9591,1.9761,1.9403,1.9759,2.015,1.9528,2.0257,2.1523,2.2291,2.3285,2.4344,2.543,2.6045,2.6143,2.535,2.5116,2.4861,2.3994,2.3467,2.3091,2.3091,2.3091,2.3091,2.3091,2.3803,2.4414,2.4385,2.4775,2.5116,2.5116,2.4346,2.3828,2.3828,2.3447,2.314,2.3062,2.3188,2.3983,2.5628,2.588,2.6678,2.8347,2.7981,2.7654,2.7633,2.6622,2.6105,2.6142,2.6657,2.7498,2.8607,2.9136,2.9917,1.3712,1.3153,1.2465,1.1869,1.1875,1.1876,1.1337,1.2015,1.2919,1.3517,1.4848,1.557,1.4779,1.6784,1.827,1.7297,1.8857,0.0,2.0929,2.1062,0.0,2.1009,0.0,2.1082,2.1002,2.1069,2.1109,2.1109,2.1109,2.1109,2.1109,2.1109,2.1109,2.1109,2.1109,2.1109,2.1109,2.1109,2.1109,2.1109,2.1109,2.1109,2.1109,2.1109,2.1109,2.1109,2.1109,2.1069,2.0995,2.0995,2.0655,2.012,2.012,1.9813,1.9424,1.9424,1.9424,1.9424,1.9649,1.9758,1.9761,1.9403,1.9549,1.9857,1.9402,2.0091,2.1253,2.2215,2.3285,2.4344,2.543,2.5771,2.5801,2.5625,2.5068,2.4521,2.4307,2.3627,2.3091,2.3091,2.3091,2.3091,2.3091,2.3803,2.4307,2.3994,2.459,2.5116,2.5116,2.459,2.4258,2.4258,2.416,2.3656,2.2711,2.4483,2.537,2.4796,2.668,2.7652,2.733,2.7546,2.7306,2.6526,2.6238,2.6298,2.6681,2.7222,2.827,2.9701,3.023,3.0657,1.293,1.2484,1.2004,1.1531,1.1574,1.1633,1.0999,1.1568,1.2459,1.3202,1.3921,1.4443,1.4622,1.6178,1.7292,0.0,0.0,0.0,2.0661,2.0942,2.1109,0.0,2.1109,0.0,2.1109,2.1109,2.1109,2.1109,2.1109,2.1109,2.1109,2.1109,2.1109,2.1109,2.1109,2.1109,2.1109,2.1109,2.1109,2.1109,2.1109,2.1109,2.1109,2.1109,2.1109,2.1109,2.1109,2.1109,2.1109,2.1109,2.0762,2.0173,2.0173,1.988,1.9424,1.9424,1.9482,1.9591,1.9758,1.9906,1.9975,1.9605,1.963,1.9758,1.9379,2.0379,2.1735,2.2333,2.3601,2.4962,2.5538,2.5693,2.5635,2.5488,2.5059,2.46,2.4228,2.376,2.3369,2.313,2.3091,2.3091,2.3091,2.3691,2.4062,2.3828,2.4355,2.4853,2.5086,2.4687,2.4414,2.4414,2.4248,2.3769,2.2818,2.4538,2.5433,2.5036,2.6617,2.7601,2.7606,2.7224,2.6947,2.6803,2.6334,2.637,2.6898,2.7426,2.8294,2.9412,2.9941,3.0182,1.212,1.1824,1.1707,1.1262,1.1291,1.1247,1.0759,1.0947,1.1334,1.1971,0.0,1.2521,1.3386,1.4832,1.599,1.6465,0.0,1.9826,2.0234,2.0728,2.1069,2.1109,2.1109,2.1109,2.1109,2.1109,2.1109,2.1109,2.1109,2.1109,2.1109,2.1109,2.1109,2.1109,2.1109,2.1109,2.1109,2.1109,2.1109,2.1109,2.1109,2.1109,2.1109,2.1109,2.1109,2.1109,2.1109,2.1109,2.1109,2.1069,2.0728,2.0227,2.0187,1.9846,1.9424,1.9424,1.9591,1.9815,1.9873,2.0081,2.0236,1.9914,1.9809,1.9757,1.9576,2.0936,2.2542,2.2685,2.4156,2.5693,2.5693,2.5693,2.5586,2.5254,2.5116,2.4822,2.4033,2.3779,2.3594,2.3169,2.3091,2.3091,2.3091,2.3496,2.3769,2.3711,2.4111,2.4551,2.4932,2.4697,2.4482,2.4424,2.4141,2.3711,2.3062,2.396,2.484,2.5406,2.6172,2.7092,2.8191,2.704,2.6827,2.7666,2.6731,2.6514,2.7102,2.7498,2.8065,2.8727,2.9124,2.9304,1.2043,1.1925,1.1742,1.1432,1.1393,1.1218,1.0608,1.125,0.0,0.0,1.2516,1.3045,1.4725,1.5069,1.565,1.7414,1.8443,1.9432,2.0454,2.0688,2.0842,0.0,2.1109,2.1109,2.1109,2.1109,0.0,2.1109,2.1109,2.1109,2.1109,2.1109,2.1109,2.1109,2.1109,2.1109,2.1109,2.1109,2.1109,2.1109,2.1109,2.1109,2.1109,2.1109,2.1109,2.1109,2.1109,2.1109,2.1089,2.0848,2.0548,2.0207,1.9967,1.9666,1.9424,1.9424,1.9591,1.9815,2.0097,2.0252,2.0236,1.9914,1.9809,1.9909,2.0437,2.1489,2.2685,2.3583,2.4707,2.5693,2.5693,2.5693,2.5664,2.5596,2.5068,2.4492,2.4336,2.375,2.3188,2.311,2.3091,2.3091,2.3091,2.3496,2.3662,2.3257,2.3871,2.4443,2.4521,2.4775,2.4814,2.4453,2.4668,2.4238,2.2744,2.4071,2.4571,2.3617,2.6195,2.7416,2.6799,2.7601,2.7981,2.769,2.7066,2.7234,2.8234,2.7885,2.8438,2.9797,2.946,2.9304,1.1782,1.1639,1.1419,1.1214,1.1052,1.0758,1.0233,0.0,0.0,0.0,1.115,1.1361,1.3355,1.3939,0.0,1.6132,1.7541,1.8824,1.9853,2.0127,0.0,2.1036,2.1109,2.1109,0.0,2.1109,2.1109,2.1109,2.1109,2.1109,2.1109,2.1109,2.1109,2.1109,2.1109,2.1109,2.1109,2.1109,2.1109,2.1109,2.1109,2.1109,2.1109,2.1109,2.1109,2.1109,2.1109,2.1109,2.1089,2.0795,2.0501,2.014,1.9913,1.9626,1.9424,1.9533,1.9815,2.0097,2.0378,2.0366,2.0229,2.0077,1.9917,1.9962,2.0695,2.1641,2.2735,2.3791,2.4864,2.5693,2.5693,2.5693,2.5693,2.5693,2.5011,2.4355,2.4141,2.3594,2.3091,2.3091,2.3091,2.3091,2.3091,2.331,2.3457,2.3477,2.4014,2.4414,2.4414,2.5,2.5244,2.4805,2.4541,2.416,2.3555,2.4284,2.4805,2.486,2.6341,2.7377,2.7869,2.7746,2.7957,2.8534,2.7714,2.769,2.851,2.8258,2.8522,2.9268,2.9292,2.9148,1.1559,1.1395,1.1191,1.1057,1.0729,1.0286,0.9969,0.9721,0.0,0.0,0.9824,0.9677,1.1986,0.0,1.3393,0.0,1.6478,1.8116,1.9125,0.0,0.0,0.0,0.0,0.0,2.1109,2.1109,0.0,2.1109,2.1109,2.1109,2.1109,2.1109,2.1109,2.1109,2.1109,2.1109,2.1109,2.1109,2.1109,2.1109,2.1109,2.1109,2.1109,2.1109,2.1109,2.1109,2.1109,2.1076,2.0995,2.0702,2.0408,2.0107,1.982,1.9573,1.9424,1.97,1.9989,2.0328,2.0608,2.0527,2.0278,2.0205,2.0128,2.0174,2.1016,2.1988,2.3094,2.4146,2.5069,2.5693,2.5693,2.5693,2.5645,2.545,2.4922,2.4277,2.376,2.3379,2.3091,2.3091,2.3091,2.3091,2.3091,2.3091,2.3218,2.3603,2.4014,2.4316,2.4404,2.4982,2.5391,2.5225,2.4434,2.4023,2.4258,2.4229,2.4771,2.6131,2.634,2.7227,2.8957,2.7984,2.8029,2.928,2.8366,2.815,2.8679,2.857,2.857,2.8691,2.902,2.8988,1.1654,1.1492,1.122,1.1204,1.0814,1.0286,0.9969,0.0,0.0,1.1211,1.0002,0.954,1.2468,1.2433,1.2597,1.457,1.5976,1.7328,0.0,0.0,0.0,0.0,0.0,0.0,2.1109,2.1109,2.1109,2.1109,2.1109,2.1109,2.1109,2.1109,2.1109,2.1109,2.1109,2.1109,2.1109,2.1109,2.1109,2.1109,2.1109,2.1109,2.1109,2.1109,2.1109,2.1109,2.1109,2.0962,2.0695,2.0394,2.01,1.9813,1.9519,1.9392,1.9424,1.97,1.9989,2.0328,2.0608,2.0671,2.057,2.0278,2.0491,2.0976,2.2047,2.3085,2.4196,2.5274,2.5635,2.5693,2.5693,2.5693,2.5489,2.4727,2.4473,2.4189,2.3335,2.312,2.3091,2.3091,2.3091,2.3091,2.3091,2.3091,2.311,2.3149,2.3574,2.3984,2.4365,2.4482,2.4834,2.5547,2.4836,2.4219,2.3877,2.3452,2.3783,2.513,2.6066,2.7048,2.8099,2.8727,2.9148,2.9304,2.8727,2.8703,2.9232,2.8751,2.8751,2.922,2.8963,2.8812,1.1512,1.1419,1.1224,1.1224,1.0741,1.0176,0.9815,0.0,0.9329,0.9714,0.9134,0.8981,1.0187,1.1144,1.2119,1.3117,1.476,1.6433,1.7909,0.0,0.0,0.0,2.0668,0.0,0.0,0.0,2.1109,2.1109,2.1109,2.1109,2.1109,2.0329,2.0202,2.1046,2.0265,2.0265,2.1109,2.1109,2.1109,2.1109,2.1109,2.1109,2.1109,2.1109,2.1109,2.1096,2.0922,2.0782,2.0703,2.0402,2.0198,2.0062,1.999,1.9822,1.97,2.0155,2.0328,2.0392,2.0852,2.0747,2.0406,2.0219,2.0938,2.1937,2.2383,2.3244,2.4344,2.5382,2.5693,2.5693,2.5693,2.5693,2.5528,2.4951,2.4609,2.4258,2.3662,2.3276,2.3091,2.3091,2.3091,2.3091,2.3091,2.3091,2.3091,2.3091,2.3516,2.3857,2.4014,2.4492,2.4844,2.4884,2.4629,2.457,2.4932,2.427,2.4596,2.6209,2.6444,2.7191,2.8704,2.8829,2.8979,2.9292,2.8775,2.8619,2.8823,2.8726,2.8806,2.9,2.8992,2.8961,1.1261,1.1248,1.1147,1.1147,1.0651,1.0067,0.0,0.9352,0.9087,0.8987,0.8784,0.87,0.8955,1.0293,1.1529,1.208,1.3831,1.5669,1.7336,1.7836,0.0,0.0,0.0,2.0535,2.0822,2.1009,2.1109,2.1109,2.1109,2.1109,2.1109,1.975,1.9623,2.1046,2.0138,2.0075,2.1109,2.1109,2.1109,2.1109,2.1109,2.1109,2.1109,2.1109,2.1109,2.1096,2.0802,2.069,2.0685,2.0419,2.0278,2.0285,2.0303,2.0162,1.9982,2.0486,2.0608,2.05,2.1031,2.0786,2.0183,2.0183,2.1246,2.2484,2.2484,2.3493,2.4707,2.5479,2.5693,2.5693,2.5693,2.5693,2.5538,2.501,2.4639,2.4268,2.3711,2.3315,2.3091,2.3091,2.3091,2.3091,2.3091,2.3091,2.3091,2.3091,2.3398,2.3643,2.3769,2.4424,2.4805,2.4629,2.4727,2.5,2.5498,2.5125,2.5482,2.6985,2.6986,2.7599,2.8982,2.8703,2.8691,2.9063,2.8731,2.8538,2.851,2.8685,2.8791,2.8791,2.9013,2.917,1.0923,1.0972,1.1028,1.1028,1.0616,1.0067,0.9709,0.9352,0.9267,0.9768,0.9213,0.8872,0.9728,1.0067,1.067,1.1989,1.3373,1.5053,1.7311,1.7849,0.0,0.0,0.0,1.992,2.0153,2.0768,2.1109,2.1109,2.1109,2.1109,2.1109,1.975,1.9623,2.1046,2.1109,2.1109,2.1109,2.1109,2.1109,2.1109,2.1109,2.1109,2.1109,2.1109,2.1109,2.1096,2.0802,2.0692,2.0691,2.0397,2.0323,2.0277,2.027,2.027,2.0328,2.0608,2.0716,2.0716,2.1089,2.0786,2.0183,2.0183,2.1246,2.2484,2.2484,2.4007,2.5693,2.5693,2.5693,2.5693,2.5693,2.5693,2.5469,2.4582,2.4424,2.4134,2.3286,2.3101,2.3091,2.3091,2.3091,2.3091,2.3091,2.3091,2.3091,2.3091,2.3101,2.3257,2.374,2.416,2.459,2.5057,2.5459,2.5547,2.5165,2.5564,2.6228,2.7073,2.7642,2.8128,2.8495,2.851,2.851,2.8522,2.8697,2.8685,2.851,2.8685,2.8791,2.8791,2.9013,2.9339,1.042,1.0509,1.0546,1.029,1.0099,0.9847,0.9372,0.9177,0.9087,0.9032,0.8784,0.8696,0.8955,0.9565,1.0602,1.2534,1.3742,1.52,1.7311,0.0,0.0,1.937,2.0154,2.0728,0.0,2.1002,2.1109,2.1109,2.1109,2.1109,2.1109,2.0659,2.0652,2.1109,2.0138,2.0138,2.1109,2.1109,2.1109,2.1109,2.1109,2.1109,2.1109,2.1109,2.1002,2.0802,2.0501,2.0389,2.0443,2.0316,2.0412,2.0608,2.0852,2.0795,2.0608,2.091,2.0902,2.078,2.1089,2.0786,2.0183,2.0183,2.1246,2.2484,2.2484,2.4007,2.5693,2.5693,2.5693,2.5693,2.5693,2.5693,2.5538,2.5,2.4639,2.4258,2.3701,2.3305,2.3091,2.3091,2.3091,2.3091,2.3091,2.3091,2.3091,2.3091,2.3091,2.3257,2.374,2.3906,2.4268,2.5037,2.5195,2.5352,2.5518,2.6303,2.7037,2.7617,2.8137,2.8598,2.9035,2.8703,2.851,2.851,2.8685,2.8764,2.8724,2.9028,2.9314,2.9495,2.9546,2.9663,0.0,0.9989,1.0023,0.9843,0.9734,0.9579,0.9185,0.9043,0.8913,0.8669,0.8612,0.8612,0.8612,0.9098,1.0208,1.2402,1.3379,1.4746,0.0,0.0,0.0,1.9459,0.0,0.0,2.0935,2.1042,2.1109,2.1109,2.1109,2.1109,2.1109,2.1109,2.1109,2.1109,2.0265,2.0202,2.1109,2.1109,2.1109,2.1109,2.1109,2.1109,2.1109,2.0995,2.0848,2.0655,2.0362,2.0319,0.0,2.0454,2.0615,2.0902,2.1146,2.1089,2.0902,2.1146,2.1009,2.0722,2.0964,2.0603,2.0062,2.0062,2.1144,2.2643,2.3452,2.4618,2.5693,2.5693,2.5693,2.5693,2.5693,2.5605,2.5371,2.4932,2.4492,2.4062,2.3633,2.333,2.3091,2.3091,2.3091,2.3091,2.3091,2.3091,2.3091,2.3091,2.3091,2.3198,2.3516,2.3691,2.3994,2.4531,2.5043,2.5485,2.5727,2.6956,2.7889,2.8144,2.8795,2.9098,2.8987,2.8691,2.851,2.851,2.8776,2.8882,2.8791,2.9184,2.947,2.965,2.974,2.9792,0.0,0.9433,0.9583,0.9559,0.9445,0.9335,0.91,0.8934,0.0,0.8649,0.8612,0.8616,0.8624,0.8714,0.9568,1.1916,1.2669,1.4042,0.0,1.7936,0.0,0.0,2.0127,2.0401,2.0743,2.0955,2.1109,2.1109,2.1109,2.1109,2.1109,2.1109,2.1109,2.1109,2.1109,2.1109,2.1109,2.1109,2.1109,2.1109,2.1109,2.1096,2.1069,2.0802,2.0717,2.0643,2.0393,2.043,2.0669,2.0664,2.0902,2.1211,2.1211,2.1211,2.1211,2.1211,2.1006,2.072,2.072,2.0303,1.9808,1.9839,2.1051,2.2894,2.4971,2.5635,2.5693,2.5693,2.5664,2.5635,2.5635,2.5361,2.4912,2.4473,2.4072,2.3672,2.3188,2.3091,2.3091,2.3091,2.3091,2.3091,2.3091,2.3091,2.3091,2.3091,2.3091,2.3091,2.3091,2.3496,2.3805,2.3869,2.5027,2.5813,2.5979,2.7659,2.8654,2.8594,2.952,2.9593,2.8607,2.8522,2.855,2.855,2.8934,2.9052,2.8882,2.9275,2.9419,2.9419,2.9702,2.9792,0.8556,0.0,0.9157,0.8885,0.8991,0.9076,0.0,0.8759,0.8771,0.8649,0.0,0.8653,0.8735,0.8792,0.9745,1.2571,1.3336,1.4572,1.7475,0.0,0.0,2.1362,2.1174,2.0991,2.1373,2.1195,2.1109,2.1109,2.1109,2.1109,2.1109,2.1109,2.1109,2.1109,2.1109,2.1109,2.1109,2.1362,2.1362,2.1109,2.1362,2.1359,2.1072,2.0826,2.0611,2.0412,2.0328,2.0365,2.0433,2.0637,2.0902,2.1211,2.1211,2.1211,2.1211,2.1211,2.1006,2.072,2.072,2.0303,1.9878,2.0433,2.1503,2.2743,2.4048,2.5069,2.5693,2.5693,2.5488,2.5225,2.5225,2.4893,2.4463,2.4033,2.3867,2.3672,2.3188,2.3091,2.3091,2.3091,2.3091,2.3091,2.3091,2.3091,2.3091,2.3091,2.3091,2.3091,2.3091,2.3188,2.3673,2.469,2.5088,2.5982,2.7798,2.835,2.8602,2.8591,2.9177,2.9446,2.9343,2.8943,2.8803,2.8973,2.9197,2.9404,2.9585,2.9663,2.9702,2.9702,2.9792,2.9792,0.8316,0.8625,0.8905,0.8677,0.8771,0.8922,0.8727,0.0,0.0,0.0,0.0,0.8621,0.8787,0.9295,1.0464,1.2753,1.401,0.0,0.0,0.0,2.0607,2.1741,2.1527,2.1457,2.1783,2.1544,2.1362,2.1362,2.1172,2.1109,2.1109,2.1109,2.1109,2.1109,2.1109,2.1109,2.1109,2.1425,2.135,2.0909,2.1402,2.1369,2.0883,2.0753,2.0575,2.0319,2.041,2.0424,2.0328,2.073,2.1024,2.1211,2.1211,2.1211,2.1196,2.1042,2.0779,2.0424,2.0333,1.9959,1.9716,2.0596,2.1641,2.2685,2.3791,2.4864,2.5693,2.5693,2.541,2.5116,2.5116,2.46,2.4072,2.3838,2.3633,2.3428,2.3149,2.3091,2.3091,2.3091,2.3091,2.3091,2.3091,2.3091,2.3091,2.3091,2.3091,2.3266,2.3691,2.3734,2.4161,2.5283,2.5829,2.6576,2.7828,2.8324,2.8637,2.8925,2.9272,2.9375,2.9241,2.9029,2.904,2.9236,2.9341,2.9509,2.9792,2.9792,2.9792,2.9792,2.9792,2.9792,0.8325,0.8593,0.8808,0.858,0.8674,0.8812,0.8787,0.0,0.0,0.0,0.0,0.0,0.0,1.0219,0.0,1.3087,0.0,0.0,1.9621,2.043,2.1026,2.1765,2.1712,2.1817,2.2146,2.1859,2.167,2.167,2.1355,2.1172,2.1235,2.1172,2.1109,2.1172,2.1125,2.1105,2.1105,2.1413,2.1326,2.0793,2.1334,2.1296,2.0757,2.0733,2.0586,2.0361,2.0607,2.0551,2.0385,2.0974,2.1211,2.1211,2.1211,2.1211,2.1167,2.0845,2.0516,2.0132,1.9813,1.9558,1.9428,2.038,2.1481,2.2693,2.3592,2.4716,2.5693,2.5693,2.541,2.5096,2.5028,2.4385,2.3769,2.3711,2.3408,2.3091,2.3091,2.3091,2.3091,2.3091,2.3091,2.3091,2.3091,2.3091,2.3091,2.3091,2.3091,2.343,2.437,2.4498,2.4872,2.5913,2.6723,2.7267,2.7389,2.8099,2.8703,2.9148,2.9363,2.9306,2.8895,2.9079,2.9287,2.947,2.947,2.956,2.9792,2.9792,2.9792,2.9792,2.9792,2.9792,0.8526,0.8783,0.8938,0.8455,0.858,0.8783,0.8637,0.0,0.0,0.0,0.0,0.0,0.0,1.1759,1.34,0.0,0.0,1.9271,0.0,0.0,2.159,2.2711,2.2347,2.218,2.248,2.2237,2.2048,2.2048,2.1734,2.167,2.1922,2.1425,2.1235,2.1481,2.1237,2.1101,2.1101,2.141,2.1442,2.1143,2.1498,2.1462,2.1119,2.0812,2.0702,2.0615,2.068,2.0658,2.0666,2.1031,2.1211,2.1211,2.1211,2.1211,2.1167,2.0845,2.0516,2.0095,1.9557,1.9316,1.9331,1.948,2.0885,2.2534,2.2685,2.4106,2.5693,2.5693,2.541,2.5028,2.4609,2.416,2.3691,2.3286,2.314,2.3091,2.3091,2.3091,2.3091,2.3091,2.3091,2.3091,2.3091,2.3091,2.3091,2.3091,2.3091,2.343,2.437,2.4498,2.5126,2.6805,2.7103,2.751,2.8219,2.8431,2.8546,2.8631,2.8806,2.9034,2.9302,2.9573,2.9702,2.974,2.974,2.9753,2.9792,2.9792,2.9792,2.9792,2.9792,2.9792,0.8243,0.8459,0.8758,0.9156,0.9248,0.921,0.9077,0.9366,0.0,0.0,0.0,0.0,0.0,0.0,1.5363,1.7536,0.0,2.0082,2.0686,2.1015,2.1464,2.2226,2.2255,2.2238,2.2581,2.2443,2.2355,2.2355,2.2048,2.1922,2.2111,2.1796,2.1532,2.1375,2.1348,2.1237,2.0911,2.1219,2.1209,2.0942,2.1425,2.1436,2.0952,2.0952,2.0866,2.0716,2.0902,2.0845,2.0716,2.1089,2.1211,2.1211,2.1211,2.1101,2.0889,2.0391,1.9996,1.9674,1.9381,1.9279,1.9376,1.9983,2.1234,2.2593,2.3194,2.4461,2.5693,2.5693,2.5244,2.4668,2.4473,2.3926,2.3389,2.314,2.3091,2.3091,2.3091,2.3091,2.3091,2.3091,2.3091,2.3091,2.3091,2.3091,2.3091,2.3091,2.3517,2.4198,2.5073,2.5673,2.6464,2.7765,2.7886,2.8047,2.8471,2.851,2.859,2.8816,2.8934,2.917,2.9611,2.974,2.9792,2.9792,2.9792,2.9792,2.9792,2.9792,2.9792,2.9792,2.9792,2.9792,0.8117,0.8247,0.8609,0.9568,0.9624,0.9518,1.0031,1.0426,0.0,0.0,0.0,0.0,0.0,1.5189,0.0,1.9438,2.0216,2.0586,2.0787,2.1133,2.1445,2.1774,2.203,2.2301,2.2593,2.2603,2.2652,2.2731,2.2354,2.2124,2.2186,2.1998,2.1665,2.119,2.1413,2.1268,2.0732,2.1028,2.1051,2.0796,2.1343,2.1322,2.0838,2.1089,2.1089,2.0838,2.1089,2.1024,2.0838,2.1089,2.1211,2.1211,2.1211,2.0962,2.0545,1.9967,1.961,1.9279,1.9279,1.9279,1.9428,2.0285,2.1438,2.2634,2.3493,2.4658,2.5693,2.5693,2.5176,2.457,2.457,2.4004,2.3364,2.3276,2.3169,2.3091,2.3091,2.3091,2.3091,2.3091,2.3091,2.3091,2.3091,2.3091,2.3091,2.3091,2.3907,2.4829,2.5704,2.6629,2.751,2.8431,2.851,2.851,2.851,2.851,2.8669,2.9052,2.9091,2.93,2.9792,2.9792,2.9792,2.9792,2.9792,2.9792,2.9792,2.9792,2.9792,2.9792,2.9792,2.9792,0.8477,0.858,0.8633,0.8845,0.8886,0.9459,1.1812,1.1548,0.0,1.1593,0.0,0.0,0.0,1.6768,1.9295,1.9723,2.0554,2.1161,2.1175,2.1474,2.1781,2.2111,2.2169,2.2301,2.2593,2.2583,2.2722,2.3021,2.2457,2.223,2.2537,2.1715,2.1243,2.1222,2.1201,2.1083,2.0725,2.1039,2.1182,2.1182,2.1182,2.1233,2.1153,2.1211,2.1211,2.1153,2.1211,2.1211,2.1153,2.1211,2.1211,2.1211,2.1211,2.0823,2.0176,1.9886,1.961,1.9279,1.9279,1.9279,1.9324,1.9376,2.0834,2.2484,2.2584,2.4057,2.5693,2.5693,2.5391,2.5067,2.5067,2.4668,2.4228,2.3838,2.3437,2.3091,2.3091,2.3091,2.3091,2.3091,2.3091,2.3091,2.3091,2.3091,2.3091,2.3091,2.3907,2.4829,2.5704,2.6629,2.751,2.8431,2.851,2.851,2.851,2.851,2.8669,2.9052,2.9091,2.93,2.9792,2.9792,2.9792,2.9792,2.9792,2.9792,2.9792,2.9792,2.9792,2.9792,2.9792,2.9792,0.8325,0.9035,0.9856,1.0719,1.1038,0.0,0.0,1.2851,1.3837,1.4132,1.5828,0.0,0.0,0.0,1.9994,2.0327,2.0805,2.1197,2.1191,2.1328,2.1445,2.1562,2.1759,2.192,2.2037,2.2228,2.2396,2.2528,2.2297,2.2231,2.2352,2.1995,2.1649,2.1204,2.1399,2.1241,2.0728,2.1032,2.1211,2.1211,2.1211,2.1211,2.1211,2.1211,2.1211,2.1211,2.1211,2.1211,2.1211,2.1211,2.1211,2.1167,2.0764,2.0333,1.9901,1.9579,1.9434,1.9279,1.9279,1.9279,1.9428,2.0078,2.0834,2.1735,2.3085,2.4048,2.4854,2.5528,2.5567,2.542,2.5137,2.4551,2.3984,2.3828,2.3457,2.3091,2.3091,2.3091,2.3091,2.3091,2.3091,2.3091,2.3091,2.3091,2.3091,2.3091,2.436,2.5411,2.5746,2.7092,2.8139,2.8471,2.851,2.851,2.851,2.851,2.8669,2.9052,2.9091,2.93,2.9792,2.9792,2.9792,2.9792,2.9792,2.9792,2.9792,2.9792,2.9792,2.9792,2.9792,2.9792,0.8573,0.9393,1.0465,1.1767,0.0,0.0,1.2816,1.4259,1.5745,1.6015,1.7324,1.8607,1.9513,0.0,0.0,2.0669,2.0998,2.1211,2.1211,2.1211,2.1211,2.1211,2.1408,2.1584,2.1686,2.1898,2.2074,2.2176,2.2089,2.203,2.203,2.1935,2.1649,2.1052,2.1358,2.1249,2.0716,2.1024,2.1211,2.1211,2.1211,2.1211,2.1211,2.1211,2.1211,2.1211,2.1211,2.1211,2.1211,2.1211,2.1152,2.0991,2.034,1.9952,1.9779,1.9396,1.9279,1.9279,1.9279,1.9279,1.9428,2.0181,2.0637,2.1234,2.3044,2.384,2.4344,2.5382,2.5693,2.5615,2.5361,2.4736,2.4189,2.4189,2.3857,2.3461,2.3335,2.3305,2.3257,2.312,2.3091,2.3091,2.3091,2.3091,2.3091,2.3091,2.4773,2.6048,2.6048,2.78,2.9015,2.9015,2.9015,2.9015,2.9015,2.9015,2.9093,2.9361,2.9349,2.9473,2.9804,2.9792,2.9792,2.9792,2.9792,2.9792,2.9792,2.9792,2.9792,2.9792,2.9967,3.0055,0.9261,0.9667,1.026,1.1568,0.0,0.0,1.554,1.5826,1.6068,1.7038,1.7631,1.8462,1.9954,2.0183,2.0292,2.0669,2.0998,2.1211,2.1211,2.1211,2.1211,2.1211,2.1211,2.1335,2.1657,2.1693,2.1825,2.2154,2.1876,2.1693,2.1693,2.1386,2.1024,2.0723,2.1024,2.1024,2.0716,2.1024,2.1211,2.1211,2.1211,2.1211,2.1211,2.1211,2.1211,2.1203,2.1211,2.1211,2.1203,2.1203,2.1013,2.0655,2.0011,1.9815,1.9771,1.9448,1.9279,1.9279,1.9279,1.9279,1.9279,1.9279,2.0034,2.1089,2.2181,2.3235,2.4295,2.5382,2.5693,2.5693,2.5693,2.541,2.5116,2.5116,2.4736,2.4307,2.3887,2.3789,2.3662,2.3179,2.3091,2.3091,2.3101,2.3091,2.3091,2.311,2.5088,2.6626,2.6636,2.8676,3.0098,3.0098,3.011,3.011,3.011,3.0098,3.0036,2.9898,2.9901,2.9868,2.9817,2.9792,2.9792,2.9792,2.9804,2.9804,2.9804,2.9804,2.9817,2.9817,3.0369,3.062,0.856,1.0115,0.0,1.2292,0.0,0.0,0.0,1.7225,0.0,0.0,1.9463,1.9742,2.0405,2.0574,2.0555,2.0706,2.0998,2.1211,2.1211,2.1211,2.1211,2.1211,2.1211,2.1247,2.1342,2.1357,2.1393,2.1489,2.1408,2.1357,2.1357,2.1262,2.1146,2.1024,2.1146,2.1146,2.1024,2.1146,2.1211,2.1211,2.1211,2.1211,2.1211,2.1211,2.1086,2.0881,2.1108,2.1079,2.0867,2.0867,2.0676,2.0285,1.9923,1.9676,1.9463,1.9368,1.9279,1.9279,1.9279,1.9279,1.9279,1.9279,1.9532,2.013,2.1937,2.2735,2.3343,2.5177,2.5693,2.5693,2.5693,2.5586,2.5459,2.5184,2.4736,2.4307,2.3887,2.3789,2.3662,2.3179,2.3091,2.3188,2.3545,2.334,2.3296,2.39,2.5495,2.734,2.9371,3.0231,3.0826,3.1199,3.1247,3.1247,3.1247,3.1015,3.0937,3.1043,3.0482,3.0067,2.9817,2.9792,2.9792,2.9792,3.0168,3.0369,3.0369,3.0733,3.0922,3.0922,3.1085,3.116,0.95,1.1292,0.0,1.3862,1.5515,1.7068,1.7782,0.0,0.0,0.0,2.0256,2.0308,2.0619,2.0688,2.0764,2.0896,2.1079,2.1211,2.1211,2.1211,2.1211,2.1211,2.1211,2.1211,2.1211,2.1211,2.1211,2.1211,2.1211,2.1211,2.1211,2.1211,2.1211,2.1211,2.1211,2.1211,2.1211,2.1211,2.1211,2.1211,2.1079,2.1013,2.1013,2.1013,2.0911,2.0735,2.0933,2.083,2.0475,2.0475,2.034,2.0018,1.9696,1.95,1.9279,1.9279,1.9279,1.9279,1.9279,1.9279,1.9279,1.9279,1.9279,1.9628,2.1336,2.2139,2.2844,2.4559,2.5372,2.5693,2.5693,2.5693,2.5625,2.54,2.5,2.456,2.4131,2.3906,2.3662,2.3179,2.3237,2.3486,2.374,2.3711,2.3773,2.4336,2.5975,2.8184,3.0854,3.1235,3.1356,3.1681,3.1705,3.1705,3.1705,3.1491,3.143,3.1479,3.1021,3.0673,3.0444,3.0231,3.0118,3.0118,3.0645,3.0922,3.0922,3.1235,3.1386,3.1399,3.1612,3.1725,1.1308,1.2763,0.0,1.5813,1.6794,0.0,1.8337,1.8976,1.9537,2.0122,0.0,2.0408,2.0673,2.0728,2.0867,2.1159,2.1211,2.1211,2.1211,2.1211,2.1211,2.1211,2.1211,2.1211,2.1211,2.1211,2.1211,2.1211,2.1211,2.1211,2.1211,2.1211,2.1211,2.1211,2.1211,2.1211,2.1211,2.1181,2.1181,2.1203,2.0874,2.072,2.072,2.0691,2.0676,2.0676,2.0647,2.0486,2.0176,2.0146,2.0025,1.9786,1.9456,1.9279,1.9279,1.9279,1.9279,1.9279,1.9279,1.9279,1.9279,1.9279,1.9279,1.9532,2.068,2.1735,2.2735,2.3939,2.4962,2.5693,2.5693,2.5693,2.5674,2.5635,2.5361,2.4951,2.4512,2.4111,2.3721,2.3237,2.3555,2.3857,2.3896,2.4189,2.447,2.4694,2.6701,2.9038,3.1439,3.1789,3.1801,3.1849,3.1862,3.1862,3.1862,3.1813,3.1748,3.1639,3.1559,3.1541,3.1486,3.0972,3.0683,3.0683,3.1198,3.1461,3.1461,3.1512,3.1537,3.1562,3.2051,3.229,1.0582,1.252,0.0,0.0,1.6879,1.831,1.8738,1.9115,1.9449,1.9558,2.0167,2.0644,2.0709,2.0909,2.113,2.1196,2.1211,2.1211,2.1211,2.1211,2.1211,2.1211,2.1211,2.1211,2.1211,2.1211,2.1211,2.1211,2.1211,2.1211,2.1211,2.1211,2.1211,2.1211,2.1211,2.1211,2.1211,2.0955,2.0955,2.1203,2.0874,2.072,2.0713,2.0402,2.0285,2.0325,2.0077,2.0069,2.0161,1.9967,1.9828,1.9786,1.9456,1.9279,1.9279,1.9279,1.9279,1.9279,1.9279,1.9279,1.9279,1.9279,1.9279,1.968,2.1582,2.2341,2.2894,2.4824,2.5528,2.5693,2.5693,2.5693,2.5596,2.5293,2.5137,2.4951,2.4512,2.4346,2.416,2.373,2.3994,2.4394,2.4783,2.459,2.5065,2.6995,2.8039,2.9498,3.2012,3.2322,3.2478,3.2899,3.2947,3.2947,3.2947,3.272,3.2654,3.2811,3.2204,3.1883,3.2039,3.1512,3.1223,3.1223,3.175,3.2039,3.2039,3.2491,3.2717,3.2759,3.283,3.2893,1.0924,0.0,0.0,1.6253,0.0,1.8531,1.8684,1.8945,1.9129,1.9003,1.9785,2.0493,2.0493,2.091,2.1211,2.1211,2.1211,2.1211,2.1211,2.1211,2.1211,2.1211,2.1211,2.1211,2.1211,2.1211,2.1211,2.1211,2.1211,2.1211,2.1211,2.1211,2.1211,2.1211,2.1211,2.1137,2.0976,2.0962,2.0962,2.0976,2.0647,2.0325,2.0033,2.0018,1.9923,1.9777,1.9762,1.9769,1.9777,1.9762,1.972,1.9566,1.9397,1.9279,1.9279,1.9279,1.9279,1.9279,1.9279,1.9279,1.9279,1.9279,1.9279,1.9576,2.1234,2.2089,2.2844,2.4452,2.5323,2.5693,2.5693,2.5693,2.5577,2.5223,2.4912,2.4639,2.4209,2.4111,2.4053,2.3828,2.4297,2.4805,2.5077,2.5454,2.6336,2.8139,2.8987,3.008,3.1878,3.2094,3.2202,3.2478,3.2503,3.2503,3.2503,3.2385,3.2439,3.2774,3.2407,3.2301,3.2629,3.2353,3.2064,3.1788,3.234,3.2629,3.2629,3.293,3.3124,3.3124,3.3124,3.3124,1.1328,0.0,1.5171,1.743,1.823,0.0,1.8477,1.8677,1.8778,1.8544,1.9357,2.0136,2.0193,2.0702,2.1146,2.1211,2.1211,2.1211,2.1211,2.1211,2.1211,2.1211,2.1211,2.1211,2.1211,2.1211,2.1211,2.1211,2.1211,2.1211,2.1211,2.1211,2.1211,2.1211,2.1159,2.0998,2.0728,2.0933,2.0933,2.072,2.0336,1.993,1.9367,1.9632,1.958,1.9346,1.961,1.958,1.9294,1.9625,1.9573,1.9279,1.9279,1.9279,1.9279,1.9279,1.9279,1.9279,1.9279,1.9279,1.9279,1.9279,1.9279,1.9524,2.0783,2.1785,2.2735,2.4048,2.502,2.5693,2.5693,2.5693,2.5577,2.5223,2.4785,2.4414,2.3984,2.3955,2.4014,2.4014,2.4648,2.5185,2.5185,2.6167,2.7284,2.8308,2.928,3.0306,3.1294,3.1572,3.1705,3.1705,3.1705,3.1705,3.1705,3.1705,3.1893,3.2344,3.24,3.2605,3.3081,3.3124,3.2855,3.2365,3.283,3.3124,3.3124,3.3124,3.3124,3.3124,3.3124,3.3124,1.0411,0.0,1.5637,0.0,1.8022,1.8115,0.0,0.0,1.8537,0.0,1.9025,1.9595,1.9815,2.0366,2.0845,2.1146,2.1211,2.1211,2.1211,2.1211,2.1211,2.1211,2.1211,2.1211,2.1211,2.1211,2.1211,2.1211,2.1211,2.1211,2.1211,2.1211,2.1211,2.1211,2.0933,2.0772,2.072,2.0431,2.0431,2.072,2.0336,2.0047,1.9742,1.95,1.9316,1.9279,1.9375,1.9316,1.9279,1.9323,1.9316,1.9279,1.9279,1.9279,1.9279,1.9279,1.9279,1.9279,1.9279,1.9279,1.9279,1.9279,1.9279,1.968,2.1684,2.2391,2.2944,2.4922,2.5586,2.5693,2.5693,2.5693,2.5577,2.5223,2.5067,2.4863,2.4424,2.4629,2.4949,2.4949,2.5303,2.5596,2.5596,2.579,2.6235,2.7237,2.8262,2.928,3.026,3.1149,3.1705,3.1705,3.1705,3.1705,3.1705,3.1705,3.1893,3.2344,3.24,3.2605,3.3081,3.3124,3.3043,3.2968,3.3074,3.3124,3.3124,3.3124,3.3124,3.3124,3.3124,3.3124,1.1057,1.3251,1.5343,0.0,1.7862,1.7982,1.7989,1.8116,1.819,1.8016,1.8467,1.9067,1.9499,2.006,2.0558,2.0845,2.0902,2.0967,2.1153,2.1211,2.1211,2.1211,2.1211,2.1211,2.1211,2.1211,2.113,2.0947,2.094,2.094,2.094,2.094,2.102,2.1203,2.1072,2.0823,2.0402,2.0431,2.0398,2.0179,2.004,1.9806,1.9484,1.9397,1.9279,1.9279,1.9279,1.9279,1.9279,1.9279,1.9279,1.9279,1.9279,1.9279,1.9279,1.9279,1.9279,1.9279,1.9279,1.9279,1.9279,1.9279,1.9279,1.9583,2.1132,2.2038,2.2844,2.4353,2.5226,2.5693,2.5693,2.5693,2.5577,2.5223,2.5254,2.5322,2.4873,2.4932,2.5184,2.5391,2.5605,2.5693,2.5693,2.6197,2.6877,2.7887,2.8912,2.9886,3.0913,3.1427,3.1705,3.1705,3.1705,3.1705,3.1705,3.1705,3.1849,3.2169,3.23,3.2562,3.2853,3.3025,3.3124,3.3124,3.3124,3.3124,3.3124,3.3124,3.3124,3.3124,3.3124,3.3124,1.1088,1.2915,1.4414,1.6452,1.7378,1.7776,0.0,0.0,1.7862,1.7629,1.8003,1.8499,1.8937,1.9678,2.027,2.0551,2.0658,2.078,2.1024,2.1146,2.1211,2.1211,2.1211,2.1211,2.1211,2.1137,2.0984,2.0742,2.0647,2.0548,2.0548,2.0548,2.0713,2.0955,2.0881,2.0611,2.012,2.0355,2.0237,1.9815,1.9815,1.9647,1.9279,1.9279,1.9279,1.9279,1.9279,1.9279,1.9279,1.9279,1.9279,1.9279,1.9279,1.9279,1.9279,1.9279,1.9279,1.9279,1.9279,1.9279,1.9279,1.9279,1.9279,1.9524,2.0885,2.1887,2.2785,2.4146,2.5069,2.5693,2.5693,2.5693,2.5606,2.5322,2.5488,2.5596,2.5312,2.5234,2.5332,2.5625,2.5693,2.5693,2.5693,2.6322,2.7152,2.8168,2.9189,3.017,3.1193,3.1528,3.1705,3.1705,3.1705,3.1705,3.1705,3.1761,3.1849,3.1994,3.23,3.2562,3.2667,3.2939,3.3124,3.3124,3.3124,3.3124,3.3124,3.3124,3.3124,3.3124,3.3124,3.3124,0.945,1.1157,1.2826,1.4657,1.6196,0.0,0.0,0.0,1.7602,1.7589,1.7842,1.8022,1.809,1.9009,1.9931,2.027,2.0551,2.0716,2.0723,2.1024,2.1211,2.1211,2.1211,2.1211,2.1211,2.0933,2.0742,2.072,2.0435,2.0205,2.0205,2.0205,2.0212,2.0227,1.9996,1.9874,1.9837,1.9859,1.9852,1.9815,1.9815,1.9647,1.9279,1.9279,1.9279,1.9279,1.9279,1.9279,1.9279,1.9279,1.9279,1.9279,1.9279,1.9279,1.9279,1.9279,1.9279,1.9279,1.9279,1.9279,1.9279,1.9279,1.9279,1.968,2.1785,2.2433,2.2944,2.502,2.5635,2.5693,2.5693,2.5693,2.5684,2.5664,2.5674,2.5684,2.5664,2.5654,2.5664,2.5684,2.5693,2.5693,2.5693,2.5732,2.61,2.7142,2.8121,2.9143,3.017,3.1104,3.1705,3.1705,3.1705,3.1705,3.1705,3.1893,3.1994,3.1994,3.2419,3.2667,3.2711,3.2939,3.3124,3.3124,3.3124,3.3124,3.3124,3.3124,3.3124,3.3124,3.3124,3.3124,0.987,1.1049,0.0,1.4734,1.6047,1.6744,1.7041,1.735,1.7582,1.7582,1.7829,1.7995,1.7995,1.8666,1.93,1.9642,2.0144,2.0493,2.0658,2.0967,2.1211,2.1211,2.1211,2.1211,2.1211,2.0911,2.064,2.0428,2.0113,1.993,1.993,1.993,2.0025,2.0176,2.0128,1.9967,1.9823,1.961,1.95,1.95,1.95,1.9441,1.9279,1.9279,1.9279,1.9279,1.9279,1.9279,1.9279,1.9279,1.9279,1.9279,1.9279,1.9279,1.9279,1.9279,1.9279,1.9279,1.9279,1.9279,1.9279,1.9279,1.9279,1.9576,2.103,2.1937,2.2785,2.4254,2.5167,2.5693,2.5693,2.5693,2.5693,2.5693,2.5693,2.5693,2.5693,2.5693,2.5693,2.5693,2.5693,2.5693,2.5693,2.5693,2.6235,2.7887,2.8484,2.928,3.0958,3.1472,3.1705,3.1705,3.1705,3.1705,3.1705,3.1761,3.1805,3.1805,3.2245,3.2519,3.2519,3.2909,3.3124,3.3124,3.3124,3.3124,3.3124,3.3124,3.3124,3.3124,3.3124,3.3124,0.9509,1.0766,0.0,0.0,0.0,1.615,1.6794,1.7139,1.7348,1.7542,1.7749,1.7889,1.7889,1.8297,1.8747,1.9167,1.9731,2.0213,2.0493,2.0845,2.1089,2.1211,2.1211,2.1211,2.1211,2.0911,2.0533,2.0205,1.9938,1.9764,1.9661,1.9654,1.9696,1.9908,1.9916,1.9813,1.9654,1.9389,1.9279,1.9279,1.9279,1.9279,1.9279,1.9279,1.9279,1.9279,1.9279,1.9279,1.9279,1.9279,1.9279,1.9279,1.9279,1.9279,1.9279,1.9279,1.9279,1.9279,1.9279,1.9279,1.9279,1.9279,1.9279,1.9583,2.0987,2.1937,2.2793,2.4245,2.5167,2.5693,2.5693,2.5693,2.5693,2.5693,2.5693,2.5693,2.5693,2.5693,2.5693,2.5693,2.5693,2.5693,2.5693,2.5693,2.638,2.8402,2.868,2.9429,3.1427,3.1705,3.1705,3.1705,3.1705,3.1705,3.1705,3.1849,3.1893,3.1805,3.2344,3.2605,3.2519,3.2909,3.3124,3.3124,3.3124,3.3124,3.3124,3.3124,3.3124,3.3124,3.3124,3.3124,0.0,0.0,0.0,0.0,0.0,0.0,1.6808,0.0,1.6847,1.7448,1.7562,1.7562,1.7582,1.7836,1.8175,1.8804,1.9374,1.9917,2.0213,2.0493,2.0838,2.1146,2.1211,2.1211,2.1211,2.0911,2.0533,2.0205,1.9938,1.9676,1.9346,1.9279,1.9279,1.9279,1.9279,1.9279,1.9279,1.9279,1.9279,1.9279,1.9279,1.9279,1.9279,1.9279,1.9279,1.9279,1.9279,1.9272,1.9264,1.9324,1.9272,1.9264,1.9324,1.9272,1.9264,1.9324,1.9279,1.9279,1.9279,1.9279,1.9279,1.9279,1.9279,1.968,2.1836,2.2484,2.2944,2.5079,2.5693,2.5693,2.5693,2.5693,2.5693,2.5693,2.5693,2.5693,2.5693,2.5693,2.5693,2.5693,2.5693,2.5693,2.5693,2.5693,2.638,2.8402,2.868,2.9429,3.1427,3.1705,3.1705,3.1705,3.1705,3.1705,3.1705,3.2125,3.2257,3.1994,3.2692,3.2939,3.2711,3.2939,3.3124,3.3124,3.3124,3.3124,3.3124,3.3124,3.3124,3.3124,3.3124,3.3124,0.971,0.0,0.0,0.0,0.0,0.0,0.0,1.5852,1.6299,1.7152,1.7101,1.7081,1.7508,1.7836,1.8049,1.8209,1.8935,1.9626,1.9897,2.0378,2.0716,2.0838,2.1024,2.1211,2.1211,2.0911,2.0533,2.0205,1.9938,1.9676,1.9346,1.9279,1.9279,1.9279,1.9279,1.9279,1.9279,1.9279,1.9279,1.9279,1.9279,1.9279,1.9279,1.9279,1.9279,1.9279,1.9279,1.914,1.8942,1.9177,1.914,1.895,1.9236,1.9133,1.895,1.9191,1.9279,1.9279,1.9279,1.9279,1.9279,1.9279,1.9279,1.968,2.1836,2.2484,2.2944,2.5079,2.5693,2.5693,2.5693,2.5693,2.5693,2.5693,2.5693,2.5693,2.5693,2.5693,2.5693,2.5693,2.5693,2.5693,2.5693,2.5693,2.638,2.8402,2.868,2.9429,3.1427,3.1705,3.1705,3.1705,3.1705,3.1705,3.1705,3.1793,3.1849,3.1805,3.2288,3.2562,3.2475,3.2865,3.3124,3.3124,3.3124,3.3124,3.3124,3.3124,3.3124,3.3124,3.3124,3.3124,1.0036,1.1078,0.0,0.0,0.0,0.0,1.5045,1.5452,1.5932,1.6991,1.7065,1.7034,1.7495,1.7736,1.7896,1.7969,1.844,1.9033,1.9569,2.0129,2.0551,2.0658,2.1024,2.1211,2.1211,2.1035,2.0735,2.0219,2.0069,1.9762,1.9301,1.9279,1.9279,1.9279,1.9279,1.9279,1.9279,1.9279,1.9279,1.9279,1.9279,1.9279,1.9279,1.9279,1.9279,1.9279,1.9279,1.9089,1.8803,1.8994,1.8884,1.8621,1.895,1.8957,1.8833,1.9155,1.9279,1.9279,1.9279,1.9279,1.9279,1.9279,1.9279,1.9628,2.1336,2.2139,2.2844,2.4559,2.5323,2.5693,2.5693,2.5693,2.5693,2.5693,2.5693,2.5693,2.5693,2.5693,2.5693,2.5693,2.5693,2.5693,2.5693,2.5693,2.638,2.8402,2.868,2.9429,3.1427,3.1705,3.1705,3.1705,3.1705,3.1705,3.1705,3.1761,3.1849,3.1849,3.2257,3.2519,3.2519,3.2909,3.3124,3.3124,3.3124,3.3124,3.3124,3.3124,3.3124,3.3124,3.3124,3.3124,1.0093,1.139,0.0,1.3357,1.3441,0.0,1.5032,1.5302,1.5625,1.6817,1.7032,1.7112,1.7422,1.7482,1.7575,1.7796,1.7896,1.8258,1.9185,1.9804,2.0279,2.0551,2.0945,2.1153,2.1211,2.1211,2.094,2.0227,2.0117,1.9879,1.9308,1.9279,1.9279,1.9279,1.9279,1.9279,1.9279,1.9279,1.9279,1.9279,1.9279,1.9279,1.9279,1.9279,1.9279,1.9279,1.9242,1.9038,1.873,1.8694,1.8511,1.8284,1.8606,1.8708,1.8723,1.9052,1.9191,1.922,1.922,1.925,1.9279,1.9279,1.9279,1.948,2.0585,2.1641,2.2743,2.3939,2.4962,2.5693,2.5693,2.5693,2.5693,2.5693,2.5693,2.5693,2.5693,2.5693,2.5693,2.5693,2.5693,2.5693,2.5693,2.5781,2.6514,2.8402,2.8819,2.9555,3.1472,3.1705,3.1705,3.1705,3.1705,3.1705,3.1705,3.1849,3.1994,3.1994,3.2419,3.268,3.268,3.2939,3.3124,3.3124,3.3124,3.3124,3.3124,3.3124,3.3124,3.3124,3.3124,3.3124,1.2367,1.2886,1.3332,1.3224,1.3507,0.0,1.4084,1.4231,1.4674,1.5844,1.5899,1.5972,1.6734,1.6881,1.6894,1.6954,1.7361,1.7883,1.8601,1.9212,1.968,1.9949,2.0452,2.0902,2.1153,2.1211,2.094,2.0227,1.9755,1.9411,1.9286,1.9279,1.9279,1.9279,1.9279,1.9279,1.9279,1.9279,1.9279,1.9279,1.9279,1.9279,1.9279,1.9279,1.9279,1.9257,1.9001,1.8701,1.8379,1.8116,1.7969,1.794,1.8269,1.824,1.805,1.8372,1.8657,1.8884,1.8884,1.906,1.9279,1.9279,1.9279,1.948,2.0585,2.1641,2.2894,2.4815,2.5538,2.5693,2.5693,2.5693,2.5693,2.5693,2.5693,2.5693,2.5693,2.5693,2.5693,2.5693,2.5693,2.5693,2.5693,2.637,2.7332,2.8541,2.9372,3.0351,3.1572,3.1705,3.1705,3.1705,3.1705,3.1705,3.1705,3.1761,3.1761,3.1761,3.2201,3.2475,3.2475,3.2865,3.3124,3.3124,3.3124,3.3124,3.3124,3.3124,3.3124,3.3124,3.3124,3.3124,1.2637,1.3044,1.3483,1.3491,1.3588,0.0,0.0,1.4177,1.4453,1.5551,1.5598,1.5618,1.6353,1.6486,1.6533,1.668,1.7074,1.7527,1.7836,1.8598,1.9256,1.9569,2.0111,2.0608,2.0945,2.1089,2.094,2.0227,1.9791,1.95,1.9286,1.9279,1.9279,1.9279,1.9279,1.9279,1.9279,1.9279,1.9279,1.9279,1.9279,1.9279,1.9279,1.9279,1.9184,1.9023,1.8862,1.8511,1.805,1.7882,1.7721,1.7604,1.7933,1.7962,1.7874,1.8364,1.865,1.8811,1.8979,1.914,1.9279,1.9279,1.968,2.0181,2.0731,2.2038,2.3642,2.5226,2.5693,2.5693,2.5693,2.5693,2.5693,2.5693,2.5693,2.5693,2.5693,2.5693,2.5693,2.5693,2.5693,2.5693,2.5693,2.61,2.6781,2.7793,2.8819,2.9795,3.0812,3.1383,3.1705,3.1705,3.1705,3.1705,3.1705,3.1705,3.1705,3.1705,3.2125,3.24,3.24,3.2865,3.3124,3.3124,3.3124,3.3124,3.3124,3.3124,3.3124,3.3124,3.3124,3.3124,1.2793,1.3147,1.3738,1.3868,1.3797,1.3812,0.0,0.0,0.0,1.5338,1.5391,1.5391,1.5973,1.6067,1.6119,1.6406,1.67,1.6965,1.7025,1.7853,1.8653,1.9125,1.9654,2.0153,2.0508,2.0727,2.0647,2.0179,1.9791,1.9536,1.9286,1.9279,1.9279,1.9279,1.9279,1.9279,1.9279,1.9279,1.9279,1.9279,1.9279,1.9279,1.9324,1.9213,1.9038,1.8782,1.8657,1.8299,1.7808,1.7743,1.752,1.7355,1.7618,1.7721,1.7786,1.8313,1.8584,1.873,1.8994,1.9169,1.9279,1.9279,2.0034,2.0987,2.1387,2.2743,2.4344,2.5382,2.5693,2.5693,2.5693,2.5693,2.5693,2.5693,2.5693,2.5693,2.5693,2.5693,2.5693,2.5693,2.5693,2.5693,2.5693,2.5868,2.6284,2.7094,2.8215,2.928,3.0125,3.1104,3.1705,3.1705,3.1705,3.1705,3.1705,3.1705,3.1705,3.1705,3.2125,3.24,3.24,3.2865,3.3124,3.3124,3.3124,3.3124,3.3124,3.3124,3.3124,3.3124,3.3124,3.3124,1.458,1.45,1.4483,1.4006,1.4043,1.4149,1.3868,0.0,1.4012,1.4562,0.0,1.4723,1.5095,0.0,0.0,1.5498,1.5785,1.6072,1.6382,1.673,1.7268,1.8112,1.8755,1.9306,1.983,1.966,1.9586,1.9852,1.925,1.9008,1.9264,1.9279,1.9279,1.9279,1.9279,1.9279,1.9279,1.9279,1.9279,1.9279,1.9279,1.9279,1.9264,1.8979,1.8825,1.876,1.8174,1.7882,1.7794,1.7501,1.7315,1.7286,1.7323,1.7337,1.7344,1.7417,1.786,1.8364,1.8401,1.8789,1.9279,1.9279,2.0034,2.1234,2.3135,2.389,2.4344,2.5382,2.5693,2.5693,2.5693,2.5693,2.5693,2.5693,2.5693,2.5693,2.5693,2.5693,2.5693,2.5693,2.5693,2.5693,2.5693,2.6418,2.7057,2.7189,2.8808,3.0079,3.017,3.1104,3.1705,3.1705,3.1705,3.1705,3.1705,3.1705,3.1705,3.1705,3.2125,3.24,3.24,3.2865,3.3124,3.3124,3.3124,3.3124,3.3124,3.3124,3.3124,3.3124,3.3124,3.3124,1.5101,1.4933,1.4886,1.4581,1.4395,1.4224,1.4195,1.3989,1.3942,1.4385,0.0,0.0,0.0,0.0,0.0,0.0,1.5785,1.6072,1.6019,1.6273,1.6723,1.7475,1.793,1.8536,1.9477,1.9604,1.9669,1.9808,1.9382,1.9133,1.9264,1.9279,1.9279,1.9279,1.9279,1.9279,1.9279,1.9279,1.9279,1.9279,1.9279,1.9279,1.9264,1.8935,1.8686,1.8482,1.8021,1.7706,1.7523,1.7337,1.7279,1.7279,1.7279,1.7279,1.7308,1.7538,1.7904,1.8328,1.8518,1.8884,1.9532,2.0731,2.1887,2.3044,2.4559,2.502,2.5118,2.5586,2.5693,2.5693,2.5693,2.5693,2.5693,2.5693,2.5693,2.5693,2.5693,2.5693,2.5693,2.5693,2.5693,2.5693,2.5693,2.6052,2.6332,2.6332,2.8038,2.9326,2.9326,3.0734,3.1705,3.1705,3.1705,3.1705,3.1705,3.1705,3.1705,3.1705,3.2125,3.2519,3.2779,3.2995,3.3124,3.3124,3.3124,3.3124,3.3124,3.3124,3.3124,3.3124,3.3124,3.3124,1.5538,1.5335,1.5226,1.4968,1.4605,1.4308,1.4396,1.4211,1.4146,1.4548,1.4586,0.0,0.0,0.0,1.5271,1.5478,0.0,1.6079,1.5811,1.5945,1.6219,1.6777,1.7194,1.7825,1.8681,1.9018,1.9204,1.9379,1.9199,1.9089,1.9264,1.9279,1.9279,1.9279,1.9279,1.9279,1.9279,1.9279,1.9279,1.9279,1.9279,1.9228,1.9133,1.8803,1.8474,1.8152,1.7823,1.7498,1.7279,1.7279,1.7279,1.7279,1.7279,1.7279,1.7308,1.7549,1.7947,1.8335,1.8577,1.9125,2.0034,2.1887,2.3244,2.4295,2.5372,2.5693,2.5693,2.5693,2.5693,2.5693,2.5693,2.5693,2.5693,2.5693,2.5693,2.5693,2.5693,2.5693,2.5693,2.5693,2.5693,2.5693,2.5693,2.5693,2.5693,2.5693,2.7163,2.8402,2.8669,3.0215,3.1383,3.1661,3.1705,3.1705,3.1705,3.1705,3.1749,3.1893,3.2213,3.2605,3.3081,3.3124,3.3124,3.3124,3.3124,3.3124,3.3124,3.3124,3.3124,3.3124,3.3124,3.3124,1.6019,1.5856,1.5654,1.4813,1.4597,1.4492,1.4193,1.4361,1.4668,1.495,1.5398,1.5738,1.5738,1.5751,1.5758,1.5764,1.5784,0.0,0.0,1.5598,1.5538,1.5791,1.6576,1.7141,1.7161,1.7338,1.776,1.8382,1.8368,1.8613,1.9294,1.9279,1.9279,1.9279,1.9279,1.9279,1.9279,1.9279,1.9279,1.9279,1.9279,1.9111,1.8789,1.8467,1.8138,1.7808,1.7439,1.7286,1.7279,1.7279,1.7279,1.7279,1.7279,1.7279,1.7279,1.7293,1.775,1.8299,1.8313,1.9428,2.103,2.2139,2.3244,2.4295,2.5372,2.5693,2.5693,2.5693,2.5693,2.5693,2.5693,2.5693,2.5693,2.5693,2.5693,2.5693,2.5693,2.5693,2.5693,2.5693,2.5693,2.5693,2.5693,2.5693,2.5693,2.5693,2.66,2.7605,2.8577,2.9612,3.0633,3.1617,3.1705,3.1705,3.1705,3.1705,3.1893,3.2356,3.24,3.2605,3.3081,3.3124,3.3124,3.3124,3.3124,3.3124,3.3124,3.3124,3.3124,3.3124,3.3124,3.3124,1.6228,1.6168,1.6102,1.5803,1.5438,1.5106,1.4997,1.4922,1.4917,1.5205,1.557,1.586,1.5818,1.5992,1.6059,1.5865,1.5999,1.5919,0.0,1.5003,1.4997,1.5484,0.0,0.0,1.656,1.7091,1.7616,1.8089,1.8265,1.8584,1.9242,1.9279,1.9279,1.9279,1.9279,1.9279,1.9279,1.9279,1.9279,1.9324,1.906,1.8891,1.8767,1.8225,1.7918,1.7801,1.7472,1.7279,1.7279,1.7279,1.7279,1.7279,1.7279,1.7465,1.7625,1.7359,1.7743,1.8364,1.8796,2.0288,2.2038,2.2391,2.3701,2.5226,2.5586,2.5693,2.5693,2.5693,2.5693,2.5693,2.5693,2.5693,2.5693,2.5693,2.5693,2.5693,2.5693,2.5693,2.5693,2.5693,2.5693,2.5693,2.5693,2.5693,2.5693,2.5693,2.7115,2.8308,2.868,3.017,3.1327,3.1661,3.1705,3.1705,3.1705,3.1705,3.1893,3.2344,3.24,3.2605,3.3081,3.3124,3.3124,3.3124,3.3124,3.3124,3.3124,3.3124,3.3124,3.3124,3.3124,3.3124,1.6663,1.6636,1.6583,1.6375,1.5985,1.5678,1.5571,1.5564,1.5662,1.5811,1.6173,1.6473,1.6437,1.6607,1.6607,1.6206,1.6299,1.6086,0.0,1.489,1.493,1.5211,0.0,0.0,0.0,1.6618,1.7186,1.7817,1.7999,1.8467,1.9235,1.9279,1.9279,1.9279,1.9279,1.9279,1.9279,1.9279,1.9279,1.9324,1.8942,1.873,1.8599,1.8057,1.775,1.7625,1.7374,1.7279,1.7279,1.7279,1.7279,1.7279,1.7279,1.7476,1.7786,1.7582,1.7918,1.8555,1.9089,2.068,2.2484,2.2484,2.3958,2.5693,2.5693,2.5693,2.5693,2.5693,2.5693,2.5693,2.5693,2.5693,2.5693,2.5693,2.5693,2.5693,2.5693,2.5693,2.5693,2.5693,2.5693,2.5693,2.5693,2.5693,2.5693,2.5693,2.7115,2.8308,2.8634,3.0125,3.1282,3.1661,3.1705,3.1705,3.1705,3.1705,3.1893,3.2344,3.24,3.2605,3.3081,3.3124,3.3124,3.3124,3.3124,3.3124,3.3124,3.3124,3.3124,3.3124,3.3124,3.3124]}]]